Wetterdaten: Montag, 29.01.2018
Datum Zeit Temp. A. Pool Temp. Feuchte A. Luftdruck Regen Wind Richtung Richtung Sonnenschein ET UV Solar Taupunkt Windchill Windben Empfang
29.01.2018 00:00 8,9 C 3,9 C 77 % 1033,2 hPa 0,0 l/m 8,1 km/h (2 Bft) S-SW 199 0 min 0,000 mm 0,0 UV-I 0 W/m 5,1 C 7,6 C 12,9 km/h (3 Bft) 100,00 %
29.01.2018 00:02 8,9 C 3,9 C 77 % 1033,2 hPa 0,0 l/m 8,3 km/h (2 Bft) SW 232 0 min 0,000 mm 0,0 UV-I 0 W/m 5,1 C 7,5 C 12,9 km/h (3 Bft) 10,53 %
29.01.2018 00:04 8,8 C 3,9 C 78 % 1033,2 hPa 0,0 l/m 9,9 km/h (2 Bft) SW 235 0 min 0,000 mm 0,0 UV-I 0 W/m 5,2 C 6,3 C 14,5 km/h (3 Bft) 92,68 %
29.01.2018 00:06 8,8 C 3,9 C 78 % 1033,2 hPa 0,0 l/m 9,3 km/h (2 Bft) W-SW 247 0 min 0,000 mm 0,0 UV-I 0 W/m 5,2 C 6,7 C 12,9 km/h (3 Bft) 100,00 %
29.01.2018 00:08 8,8 C 3,9 C 78 % 1033,2 hPa 0,0 l/m 8,7 km/h (2 Bft) W 261 0 min 0,000 mm 0,0 UV-I 0 W/m 5,2 C 7,1 C 11,3 km/h (2 Bft) 100,00 %
29.01.2018 00:10 8,8 C 3,9 C 78 % 1033,2 hPa 0,0 l/m 7,4 km/h (2 Bft) W-SW 238 0 min 0,000 mm 0,0 UV-I 0 W/m 5,2 C 8,0 C 11,3 km/h (2 Bft) 100,00 %
29.01.2018 00:12 8,7 C 3,9 C 78 % 1033,2 hPa 0,0 l/m 7,5 km/h (2 Bft) SW 233 0 min 0,000 mm 0,0 UV-I 0 W/m 5,1 C 7,9 C 12,9 km/h (3 Bft) 100,00 %
29.01.2018 00:14 8,7 C 3,9 C 78 % 1033,1 hPa 0,0 l/m 11,1 km/h (2 Bft) SW 236 0 min 0,000 mm 0,0 UV-I 0 W/m 5,1 C 5,5 C 17,7 km/h (3 Bft) 100,00 %
29.01.2018 00:16 8,8 C 3,9 C 77 % 1033,1 hPa 0,0 l/m 11,0 km/h (2 Bft) W-SW 244 0 min 0,000 mm 0,0 UV-I 0 W/m 5,0 C 5,7 C 17,7 km/h (3 Bft) 97,73 %
29.01.2018 00:18 8,8 C 3,9 C 77 % 1033,1 hPa 0,0 l/m 10,9 km/h (2 Bft) W-SW 246 0 min 0,000 mm 0,0 UV-I 0 W/m 5,0 C 5,7 C 16,1 km/h (3 Bft) 97,44 %
29.01.2018 00:20 8,8 C 3,9 C 77 % 1033,1 hPa 0,0 l/m 11,8 km/h (2 Bft) W-SW 254 0 min 0,000 mm 0,0 UV-I 0 W/m 5,0 C 5,2 C 19,3 km/h (3 Bft) 98,11 %
29.01.2018 00:22 8,7 C 3,9 C 78 % 1033,1 hPa 0,0 l/m 10,1 km/h (2 Bft) W-SW 255 0 min 0,000 mm 0,0 UV-I 0 W/m 5,1 C 6,1 C 14,5 km/h (3 Bft) 95,74 %
29.01.2018 00:24 8,7 C 3,9 C 78 % 1033,1 hPa 0,0 l/m 11,5 km/h (2 Bft) W-SW 258 0 min 0,000 mm 0,0 UV-I 0 W/m 5,1 C 5,3 C 16,1 km/h (3 Bft) 93,62 %
29.01.2018 00:26 8,7 C 3,9 C 78 % 1033,1 hPa 0,0 l/m 10,7 km/h (2 Bft) W-SW 250 0 min 0,000 mm 0,0 UV-I 0 W/m 5,1 C 5,7 C 16,1 km/h (3 Bft) 100,00 %
29.01.2018 00:28 8,7 C 3,9 C 77 % 1033,0 hPa 0,0 l/m 12,4 km/h (3 Bft) W-SW 252 0 min 0,000 mm 0,0 UV-I 0 W/m 4,9 C 4,8 C 16,1 km/h (3 Bft) 96,23 %
29.01.2018 00:30 8,7 C 3,9 C 77 % 1033,0 hPa 0,0 l/m 12,1 km/h (2 Bft) W-SW 242 0 min 0,000 mm 0,0 UV-I 0 W/m 4,9 C 5,0 C 16,1 km/h (3 Bft) 98,21 %
29.01.2018 00:32 8,8 C 3,9 C 77 % 1032,9 hPa 0,0 l/m 9,7 km/h (2 Bft) W-SW 249 0 min 0,000 mm 0,0 UV-I 0 W/m 5,0 C 6,5 C 14,5 km/h (3 Bft) 96,15 %
29.01.2018 00:34 8,8 C 3,9 C 77 % 1032,9 hPa 0,0 l/m 10,2 km/h (2 Bft) W 260 0 min 0,000 mm 0,0 UV-I 0 W/m 5,0 C 6,1 C 14,5 km/h (3 Bft) 97,06 %
29.01.2018 00:36 8,7 C 3,9 C 77 % 1032,9 hPa 0,0 l/m 8,4 km/h (2 Bft) SW 226 0 min 0,000 mm 0,0 UV-I 0 W/m 4,9 C 7,2 C 12,9 km/h (3 Bft) 97,37 %
29.01.2018 00:38 8,7 C 3,9 C 77 % 1032,9 hPa 0,0 l/m 9,2 km/h (2 Bft) W-SW 241 0 min 0,000 mm 0,0 UV-I 0 W/m 4,9 C 6,7 C 12,9 km/h (3 Bft) 97,87 %
29.01.2018 00:40 8,8 C 3,9 C 77 % 1032,9 hPa 0,0 l/m 11,3 km/h (2 Bft) W 260 0 min 0,000 mm 0,0 UV-I 0 W/m 5,0 C 5,5 C 14,5 km/h (3 Bft) 98,00 %
29.01.2018 00:42 8,8 C 3,9 C 76 % 1032,9 hPa 0,0 l/m 11,5 km/h (2 Bft) SW 236 0 min 0,000 mm 0,0 UV-I 0 W/m 4,8 C 5,4 C 14,5 km/h (3 Bft) 94,34 %
29.01.2018 00:44 8,8 C 3,9 C 76 % 1032,8 hPa 0,0 l/m 12,2 km/h (2 Bft) SW 227 0 min 0,000 mm 0,0 UV-I 0 W/m 4,8 C 5,0 C 19,3 km/h (3 Bft) 97,37 %
29.01.2018 00:46 8,9 C 3,9 C 76 % 1032,8 hPa 0,0 l/m 17,8 km/h (3 Bft) W 259 0 min 0,000 mm 0,0 UV-I 0 W/m 4,9 C 2,7 C 25,7 km/h (4 Bft) 98,11 %
29.01.2018 00:48 8,9 C 3,9 C 75 % 1032,7 hPa 0,0 l/m 13,5 km/h (3 Bft) W-SW 257 0 min 0,000 mm 0,0 UV-I 0 W/m 4,7 C 4,5 C 17,7 km/h (3 Bft) 94,74 %
29.01.2018 00:50 8,9 C 3,9 C 75 % 1032,6 hPa 0,0 l/m 11,4 km/h (2 Bft) W-SW 240 0 min 0,000 mm 0,0 UV-I 0 W/m 4,7 C 5,6 C 17,7 km/h (3 Bft) 98,00 %
29.01.2018 00:52 8,9 C 3,9 C 76 % 1032,6 hPa 0,0 l/m 14,7 km/h (3 Bft) W-SW 252 0 min 0,000 mm 0,0 UV-I 0 W/m 4,9 C 3,9 C 24,1 km/h (4 Bft) 100,00 %
29.01.2018 00:54 8,9 C 3,9 C 76 % 1032,6 hPa 0,0 l/m 14,8 km/h (3 Bft) W-SW 250 0 min 0,000 mm 0,0 UV-I 0 W/m 4,9 C 3,9 C 19,3 km/h (3 Bft) 98,00 %
29.01.2018 00:56 9,0 C 3,9 C 76 % 1032,7 hPa 0,0 l/m 13,5 km/h (3 Bft) W-SW 258 0 min 0,000 mm 0,0 UV-I 0 W/m 5,0 C 4,6 C 19,3 km/h (3 Bft) 100,00 %
29.01.2018 00:58 9,0 C 3,9 C 76 % 1032,7 hPa 0,0 l/m 12,6 km/h (3 Bft) SW 235 0 min 0,000 mm 0,0 UV-I 0 W/m 5,0 C 5,1 C 19,3 km/h (3 Bft) 100,00 %
29.01.2018 01:00 8,9 C 3,9 C 76 % 1032,7 hPa 0,0 l/m 11,9 km/h (2 Bft) W-SW 251 0 min 0,025 mm 0,0 UV-I 0 W/m 4,9 C 5,3 C 16,1 km/h (3 Bft) 96,23 %
29.01.2018 01:02 8,9 C 3,9 C 76 % 1032,7 hPa 0,0 l/m 11,4 km/h (2 Bft) W-SW 256 0 min 0,000 mm 0,0 UV-I 0 W/m 4,9 C 5,6 C 17,7 km/h (3 Bft) 100,00 %
29.01.2018 01:04 8,9 C 3,9 C 76 % 1032,7 hPa 0,0 l/m 11,7 km/h (2 Bft) W-SW 251 0 min 0,000 mm 0,0 UV-I 0 W/m 4,9 C 5,4 C 16,1 km/h (3 Bft) 100,00 %
29.01.2018 01:06 8,8 C 3,9 C 76 % 1032,7 hPa 0,0 l/m 10,5 km/h (2 Bft) W-SW 246 0 min 0,000 mm 0,0 UV-I 0 W/m 4,8 C 6,0 C 16,1 km/h (3 Bft) 100,00 %
29.01.2018 01:08 8,8 C 3,9 C 76 % 1032,7 hPa 0,0 l/m 10,7 km/h (2 Bft) W-SW 246 0 min 0,000 mm 0,0 UV-I 0 W/m 4,8 C 5,9 C 12,9 km/h (3 Bft) 100,00 %
29.01.2018 01:10 8,8 C 3,9 C 76 % 1032,7 hPa 0,0 l/m 9,8 km/h (2 Bft) W 259 0 min 0,000 mm 0,0 UV-I 0 W/m 4,8 C 6,4 C 12,9 km/h (3 Bft) 100,00 %
29.01.2018 01:12 8,8 C 3,9 C 76 % 1032,6 hPa 0,0 l/m 6,5 km/h (2 Bft) W-SW 253 0 min 0,000 mm 0,0 UV-I 0 W/m 4,8 C 8,7 C 9,7 km/h (2 Bft) 98,00 %
29.01.2018 01:14 8,7 C 3,9 C 76 % 1032,6 hPa 0,0 l/m 8,6 km/h (2 Bft) W-SW 250 0 min 0,000 mm 0,0 UV-I 0 W/m 4,7 C 7,1 C 16,1 km/h (3 Bft) 96,00 %
29.01.2018 01:16 8,7 C 3,9 C 76 % 1032,6 hPa 0,0 l/m 9,2 km/h (2 Bft) W-SW 244 0 min 0,000 mm 0,0 UV-I 0 W/m 4,7 C 6,7 C 12,9 km/h (3 Bft) 97,37 %
29.01.2018 01:18 8,7 C 3,9 C 76 % 1032,5 hPa 0,0 l/m 11,6 km/h (2 Bft) W-SW 242 0 min 0,000 mm 0,0 UV-I 0 W/m 4,7 C 5,2 C 16,1 km/h (3 Bft) 98,11 %
29.01.2018 01:20 8,6 C 3,9 C 76 % 1032,5 hPa 0,0 l/m 10,2 km/h (2 Bft) S-SW 203 0 min 0,000 mm 0,0 UV-I 0 W/m 4,6 C 5,9 C 14,5 km/h (3 Bft) 96,00 %
29.01.2018 01:22 8,6 C 3,9 C 76 % 1032,4 hPa 0,0 l/m 14,3 km/h (3 Bft) W-SW 257 0 min 0,000 mm 0,0 UV-I 0 W/m 4,6 C 3,8 C 19,3 km/h (3 Bft) 97,37 %
29.01.2018 01:24 8,6 C 3,9 C 76 % 1032,4 hPa 0,0 l/m 14,4 km/h (3 Bft) W 264 0 min 0,000 mm 0,0 UV-I 0 W/m 4,6 C 3,7 C 20,9 km/h (4 Bft) 96,00 %
29.01.2018 01:26 8,6 C 3,9 C 76 % 1032,4 hPa 0,0 l/m 16,0 km/h (3 Bft) W-SW 254 0 min 0,000 mm 0,0 UV-I 0 W/m 4,6 C 3,0 C 22,5 km/h (4 Bft) 98,00 %
29.01.2018 01:28 8,7 C 3,9 C 76 % 1032,5 hPa 0,0 l/m 11,5 km/h (2 Bft) W-SW 255 0 min 0,000 mm 0,0 UV-I 0 W/m 4,7 C 5,3 C 17,7 km/h (3 Bft) 97,87 %
29.01.2018 01:30 8,7 C 3,9 C 76 % 1032,4 hPa 0,0 l/m 11,9 km/h (2 Bft) W 260 0 min 0,000 mm 0,0 UV-I 0 W/m 4,7 C 5,1 C 16,1 km/h (3 Bft) 97,44 %
29.01.2018 01:32 8,7 C 3,9 C 76 % 1032,4 hPa 0,0 l/m 13,0 km/h (3 Bft) SW 235 0 min 0,000 mm 0,0 UV-I 0 W/m 4,7 C 4,5 C 17,7 km/h (3 Bft) 98,18 %
29.01.2018 01:34 8,6 C 3,9 C 76 % 1032,4 hPa 0,0 l/m 10,6 km/h (2 Bft) SW 223 0 min 0,000 mm 0,0 UV-I 0 W/m 4,6 C 5,7 C 14,5 km/h (3 Bft) 97,44 %
29.01.2018 01:36 8,6 C 3,9 C 76 % 1032,4 hPa 0,0 l/m 11,7 km/h (2 Bft) W-SW 253 0 min 0,000 mm 0,0 UV-I 0 W/m 4,6 C 5,1 C 17,7 km/h (3 Bft) 98,28 %
29.01.2018 01:38 8,6 C 3,9 C 76 % 1032,4 hPa 0,0 l/m 13,2 km/h (3 Bft) W-SW 250 0 min 0,000 mm 0,0 UV-I 0 W/m 4,6 C 4,3 C 17,7 km/h (3 Bft) 97,22 %
29.01.2018 01:40 8,7 C 3,9 C 76 % 1032,3 hPa 0,0 l/m 15,5 km/h (3 Bft) SW 236 0 min 0,000 mm 0,0 UV-I 0 W/m 4,7 C 3,3 C 22,5 km/h (4 Bft) 98,11 %
29.01.2018 01:42 8,7 C 3,9 C 76 % 1032,3 hPa 0,0 l/m 13,7 km/h (3 Bft) W-SW 244 0 min 0,000 mm 0,0 UV-I 0 W/m 4,7 C 4,2 C 19,3 km/h (3 Bft) 98,00 %
29.01.2018 01:44 8,7 C 3,9 C 76 % 1032,2 hPa 0,0 l/m 14,9 km/h (3 Bft) SW 221 0 min 0,000 mm 0,0 UV-I 0 W/m 4,7 C 3,6 C 22,5 km/h (4 Bft) 95,74 %
29.01.2018 01:46 8,7 C 3,9 C 76 % 1032,2 hPa 0,0 l/m 14,3 km/h (3 Bft) SW 232 0 min 0,000 mm 0,0 UV-I 0 W/m 4,7 C 3,9 C 24,1 km/h (4 Bft) 100,00 %
29.01.2018 01:48 8,7 C 3,9 C 76 % 1032,2 hPa 0,0 l/m 13,3 km/h (3 Bft) W-SW 237 0 min 0,000 mm 0,0 UV-I 0 W/m 4,7 C 4,4 C 16,1 km/h (3 Bft) 96,43 %
29.01.2018 01:50 8,7 C 3,9 C 76 % 1032,2 hPa 0,0 l/m 14,8 km/h (3 Bft) W-SW 245 0 min 0,000 mm 0,0 UV-I 0 W/m 4,7 C 3,6 C 22,5 km/h (4 Bft) 97,37 %
29.01.2018 01:52 8,7 C 3,9 C 76 % 1032,2 hPa 0,0 l/m 12,6 km/h (3 Bft) SW 225 0 min 0,000 mm 0,0 UV-I 0 W/m 4,7 C 4,7 C 17,7 km/h (3 Bft) 100,00 %
29.01.2018 01:54 8,6 C 3,9 C 77 % 1032,2 hPa 0,0 l/m 13,5 km/h (3 Bft) SW 216 0 min 0,000 mm 0,0 UV-I 0 W/m 4,8 C 4,1 C 19,3 km/h (3 Bft) 96,92 %
29.01.2018 01:56 8,6 C 3,9 C 77 % 1032,0 hPa 0,0 l/m 17,5 km/h (3 Bft) W 267 0 min 0,000 mm 0,0 UV-I 0 W/m 4,8 C 2,4 C 27,4 km/h (4 Bft) 97,73 %
29.01.2018 01:58 8,7 C 3,9 C 77 % 1032,1 hPa 0,0 l/m 15,6 km/h (3 Bft) W-SW 244 0 min 0,000 mm 0,0 UV-I 0 W/m 4,9 C 3,3 C 24,1 km/h (4 Bft) 98,00 %
29.01.2018 02:00 8,7 C 3,9 C 77 % 1032,1 hPa 0,0 l/m 15,0 km/h (3 Bft) W-SW 243 0 min 0,000 mm 0,0 UV-I 0 W/m 4,9 C 3,6 C 24,1 km/h (4 Bft) 97,56 %
29.01.2018 02:02 8,7 C 3,9 C 77 % 1032,1 hPa 0,0 l/m 17,1 km/h (3 Bft) W-SW 244 0 min 0,026 mm 0,0 UV-I 0 W/m 4,9 C 2,7 C 22,5 km/h (4 Bft) 96,43 %
29.01.2018 02:04 8,7 C 3,9 C 77 % 1032,1 hPa 0,0 l/m 15,1 km/h (3 Bft) W-SW 252 0 min 0,000 mm 0,0 UV-I 0 W/m 4,9 C 3,5 C 25,7 km/h (4 Bft) 97,56 %
29.01.2018 02:06 8,7 C 3,9 C 77 % 1032,1 hPa 0,0 l/m 15,9 km/h (3 Bft) W 259 0 min 0,000 mm 0,0 UV-I 0 W/m 4,9 C 3,2 C 20,9 km/h (4 Bft) 100,00 %
29.01.2018 02:08 8,7 C 3,9 C 77 % 1032,1 hPa 0,0 l/m 15,9 km/h (3 Bft) W-SW 241 0 min 0,000 mm 0,0 UV-I 0 W/m 4,9 C 3,2 C 22,5 km/h (4 Bft) 97,56 %
29.01.2018 02:10 8,7 C 3,9 C 76 % 1032,1 hPa 0,0 l/m 14,9 km/h (3 Bft) W-SW 244 0 min 0,000 mm 0,0 UV-I 0 W/m 4,7 C 3,6 C 20,9 km/h (4 Bft) 96,00 %
29.01.2018 02:12 8,7 C 3,9 C 76 % 1032,1 hPa 0,0 l/m 14,6 km/h (3 Bft) SW 235 0 min 0,000 mm 0,0 UV-I 0 W/m 4,7 C 3,7 C 20,9 km/h (4 Bft) 97,44 %
29.01.2018 02:14 8,7 C 3,9 C 76 % 1032,1 hPa 0,0 l/m 15,5 km/h (3 Bft) W-SW 250 0 min 0,000 mm 0,0 UV-I 0 W/m 4,7 C 3,3 C 19,3 km/h (3 Bft) 98,28 %
29.01.2018 02:16 8,7 C 3,9 C 77 % 1032,1 hPa 0,0 l/m 15,2 km/h (3 Bft) W 267 0 min 0,000 mm 0,0 UV-I 0 W/m 4,9 C 3,5 C 20,9 km/h (4 Bft) 97,62 %
29.01.2018 02:18 8,7 C 3,9 C 77 % 1032,1 hPa 0,0 l/m 15,3 km/h (3 Bft) W-SW 241 0 min 0,000 mm 0,0 UV-I 0 W/m 4,9 C 3,4 C 27,4 km/h (4 Bft) 98,11 %
29.01.2018 02:20 8,7 C 3,9 C 77 % 1032,1 hPa 0,0 l/m 13,7 km/h (3 Bft) W-SW 257 0 min 0,000 mm 0,0 UV-I 0 W/m 4,9 C 4,2 C 17,7 km/h (3 Bft) 97,37 %
29.01.2018 02:22 8,7 C 3,9 C 77 % 1032,2 hPa 0,0 l/m 16,9 km/h (3 Bft) W-SW 244 0 min 0,000 mm 0,0 UV-I 0 W/m 4,9 C 2,8 C 29,0 km/h (5 Bft) 98,00 %
29.01.2018 02:24 8,7 C 3,9 C 77 % 1032,2 hPa 0,0 l/m 15,6 km/h (3 Bft) W-SW 255 0 min 0,000 mm 0,0 UV-I 0 W/m 4,9 C 3,3 C 22,5 km/h (4 Bft) 95,45 %
29.01.2018 02:26 8,7 C 3,9 C 77 % 1032,2 hPa 0,0 l/m 12,5 km/h (3 Bft) W-SW 237 0 min 0,000 mm 0,0 UV-I 0 W/m 4,9 C 4,8 C 17,7 km/h (3 Bft) 94,34 %
29.01.2018 02:28 8,7 C 3,9 C 77 % 1032,2 hPa 0,0 l/m 13,0 km/h (3 Bft) W-SW 242 0 min 0,000 mm 0,0 UV-I 0 W/m 4,9 C 4,5 C 16,1 km/h (3 Bft) 92,00 %
29.01.2018 02:30 8,7 C 3,9 C 77 % 1032,2 hPa 0,0 l/m 11,7 km/h (2 Bft) W-SW 239 0 min 0,000 mm 0,0 UV-I 0 W/m 4,9 C 5,2 C 16,1 km/h (3 Bft) 97,56 %
29.01.2018 02:32 8,7 C 3,9 C 77 % 1032,2 hPa 0,0 l/m 13,6 km/h (3 Bft) W 263 0 min 0,000 mm 0,0 UV-I 0 W/m 4,9 C 4,2 C 19,3 km/h (3 Bft) 95,83 %
29.01.2018 02:34 8,7 C 3,9 C 77 % 1032,2 hPa 0,0 l/m 14,4 km/h (3 Bft) SW 233 0 min 0,000 mm 0,0 UV-I 0 W/m 4,9 C 3,8 C 20,9 km/h (4 Bft) 94,74 %
29.01.2018 02:36 8,7 C 3,9 C 77 % 1032,2 hPa 0,0 l/m 14,8 km/h (3 Bft) W 263 0 min 0,000 mm 0,0 UV-I 0 W/m 4,9 C 3,6 C 19,3 km/h (3 Bft) 95,74 %
29.01.2018 02:38 8,6 C 3,9 C 77 % 1032,2 hPa 0,0 l/m 14,2 km/h (3 Bft) W-SW 240 0 min 0,000 mm 0,0 UV-I 0 W/m 4,8 C 3,8 C 17,7 km/h (3 Bft) 98,21 %
29.01.2018 02:40 8,6 C 3,9 C 77 % 1032,1 hPa 0,0 l/m 12,4 km/h (3 Bft) W-SW 258 0 min 0,000 mm 0,0 UV-I 0 W/m 4,8 C 4,7 C 17,7 km/h (3 Bft) 94,00 %
29.01.2018 02:42 8,6 C 3,9 C 77 % 1032,1 hPa 0,0 l/m 11,6 km/h (2 Bft) W-SW 252 0 min 0,000 mm 0,0 UV-I 0 W/m 4,8 C 5,1 C 14,5 km/h (3 Bft) 97,87 %
29.01.2018 02:44 8,6 C 3,9 C 78 % 1032,1 hPa 0,0 l/m 11,9 km/h (2 Bft) SW 219 0 min 0,000 mm 0,0 UV-I 0 W/m 5,0 C 5,0 C 17,7 km/h (3 Bft) 97,37 %
29.01.2018 02:46 8,6 C 3,9 C 77 % 1032,1 hPa 0,0 l/m 12,0 km/h (2 Bft) W-SW 242 0 min 0,000 mm 0,0 UV-I 0 W/m 4,8 C 4,9 C 16,1 km/h (3 Bft) 96,00 %
29.01.2018 02:48 8,6 C 3,9 C 77 % 1032,1 hPa 0,0 l/m 11,4 km/h (2 Bft) W-SW 244 0 min 0,000 mm 0,0 UV-I 0 W/m 4,8 C 5,2 C 16,1 km/h (3 Bft) 97,87 %
29.01.2018 02:50 8,5 C 3,9 C 78 % 1032,1 hPa 0,0 l/m 11,8 km/h (2 Bft) W-SW 244 0 min 0,000 mm 0,0 UV-I 0 W/m 4,9 C 4,9 C 16,1 km/h (3 Bft) 97,87 %
29.01.2018 02:52 8,4 C 3,9 C 78 % 1032,1 hPa 0,0 l/m 11,8 km/h (2 Bft) W-NW 300 0 min 0,000 mm 0,0 UV-I 0 W/m 4,8 C 4,8 C 16,1 km/h (3 Bft) 96,00 %
29.01.2018 02:54 8,4 C 3,9 C 78 % 1032,1 hPa 0,0 l/m 12,8 km/h (3 Bft) W-SW 242 0 min 0,000 mm 0,0 UV-I 0 W/m 4,8 C 4,3 C 17,7 km/h (3 Bft) 97,92 %
29.01.2018 02:56 8,4 C 3,9 C 78 % 1032,0 hPa 0,0 l/m 12,2 km/h (2 Bft) W 259 0 min 0,000 mm 0,0 UV-I 0 W/m 4,8 C 4,6 C 16,1 km/h (3 Bft) 97,56 %
29.01.2018 02:58 8,5 C 3,9 C 78 % 1032,1 hPa 0,0 l/m 10,7 km/h (2 Bft) W-SW 243 0 min 0,000 mm 0,0 UV-I 0 W/m 4,9 C 5,5 C 14,5 km/h (3 Bft) 98,00 %
29.01.2018 03:00 8,5 C 3,9 C 78 % 1032,1 hPa 0,0 l/m 12,4 km/h (3 Bft) W-SW 249 0 min 0,025 mm 0,0 UV-I 0 W/m 4,9 C 4,6 C 19,3 km/h (3 Bft) 100,00 %
29.01.2018 03:02 8,5 C 3,9 C 78 % 1032,0 hPa 0,0 l/m 13,2 km/h (3 Bft) W-SW 254 0 min 0,000 mm 0,0 UV-I 0 W/m 4,9 C 4,2 C 17,7 km/h (3 Bft) 100,00 %
29.01.2018 03:04 8,5 C 3,9 C 78 % 1032,0 hPa 0,0 l/m 12,1 km/h (2 Bft) W 264 0 min 0,000 mm 0,0 UV-I 0 W/m 4,9 C 4,7 C 16,1 km/h (3 Bft) 96,00 %
29.01.2018 03:06 8,4 C 3,9 C 79 % 1032,0 hPa 0,0 l/m 10,2 km/h (2 Bft) W-SW 249 0 min 0,000 mm 0,0 UV-I 0 W/m 5,0 C 5,7 C 14,5 km/h (3 Bft) 100,00 %
29.01.2018 03:08 8,4 C 3,9 C 78 % 1032,0 hPa 0,0 l/m 10,6 km/h (2 Bft) W-SW 250 0 min 0,000 mm 0,0 UV-I 0 W/m 4,8 C 5,5 C 14,5 km/h (3 Bft) 100,00 %
29.01.2018 03:10 8,4 C 3,9 C 78 % 1032,0 hPa 0,0 l/m 12,5 km/h (3 Bft) W-SW 254 0 min 0,000 mm 0,0 UV-I 0 W/m 4,8 C 4,4 C 16,1 km/h (3 Bft) 100,00 %
29.01.2018 03:12 8,5 C 3,9 C 78 % 1031,9 hPa 0,0 l/m 10,2 km/h (2 Bft) W-SW 248 0 min 0,000 mm 0,0 UV-I 0 W/m 4,9 C 5,8 C 14,5 km/h (3 Bft) 98,21 %
29.01.2018 03:14 8,4 C 3,9 C 78 % 1031,9 hPa 0,0 l/m 11,7 km/h (2 Bft) SW 236 0 min 0,000 mm 0,0 UV-I 0 W/m 4,8 C 4,8 C 16,1 km/h (3 Bft) 100,00 %
29.01.2018 03:16 8,4 C 3,9 C 78 % 1031,9 hPa 0,0 l/m 11,8 km/h (2 Bft) SW 225 0 min 0,000 mm 0,0 UV-I 0 W/m 4,8 C 4,8 C 17,7 km/h (3 Bft) 100,00 %
29.01.2018 03:18 8,4 C 3,9 C 78 % 1031,9 hPa 0,0 l/m 11,1 km/h (2 Bft) W 273 0 min 0,000 mm 0,0 UV-I 0 W/m 4,8 C 5,2 C 14,5 km/h (3 Bft) 100,00 %
29.01.2018 03:20 8,4 C 3,9 C 78 % 1031,9 hPa 0,0 l/m 11,1 km/h (2 Bft) W-SW 241 0 min 0,000 mm 0,0 UV-I 0 W/m 4,8 C 5,2 C 14,5 km/h (3 Bft) 100,00 %
29.01.2018 03:22 8,3 C 3,9 C 78 % 1031,9 hPa 0,0 l/m 10,0 km/h (2 Bft) W-SW 253 0 min 0,000 mm 0,0 UV-I 0 W/m 4,7 C 5,7 C 14,5 km/h (3 Bft) 100,00 %
29.01.2018 03:24 8,3 C 3,9 C 78 % 1031,8 hPa 0,0 l/m 10,7 km/h (2 Bft) W-SW 247 0 min 0,000 mm 0,0 UV-I 0 W/m 4,7 C 5,3 C 14,5 km/h (3 Bft) 100,00 %
29.01.2018 03:26 8,3 C 3,9 C 78 % 1031,8 hPa 0,0 l/m 7,8 km/h (2 Bft) W-SW 248 0 min 0,000 mm 0,0 UV-I 0 W/m 4,7 C 7,2 C 12,9 km/h (3 Bft) 100,00 %
29.01.2018 03:28 8,3 C 3,9 C 79 % 1031,8 hPa 0,0 l/m 9,5 km/h (2 Bft) W-SW 239 0 min 0,000 mm 0,0 UV-I 0 W/m 4,9 C 6,0 C 11,3 km/h (2 Bft) 100,00 %
29.01.2018 03:30 8,3 C 3,9 C 79 % 1031,8 hPa 0,0 l/m 7,9 km/h (2 Bft) SW 235 0 min 0,000 mm 0,0 UV-I 0 W/m 4,9 C 7,1 C 12,9 km/h (3 Bft) 100,00 %
29.01.2018 03:32 8,3 C 3,9 C 79 % 1031,7 hPa 0,0 l/m 7,7 km/h (2 Bft) SW 222 0 min 0,000 mm 0,0 UV-I 0 W/m 4,9 C 7,3 C 11,3 km/h (2 Bft) 100,00 %
29.01.2018 03:34 8,2 C 3,9 C 80 % 1031,7 hPa 0,0 l/m 10,6 km/h (2 Bft) W-SW 246 0 min 0,000 mm 0,0 UV-I 0 W/m 5,0 C 5,2 C 16,1 km/h (3 Bft) 95,74 %
29.01.2018 03:36 8,1 C 3,9 C 80 % 1031,7 hPa 0,0 l/m 9,6 km/h (2 Bft) W-SW 238 0 min 0,000 mm 0,0 UV-I 0 W/m 4,9 C 5,8 C 14,5 km/h (3 Bft) 100,00 %
29.01.2018 03:38 8,1 C 3,9 C 80 % 1031,8 hPa 0,0 l/m 10,5 km/h (2 Bft) SW 229 0 min 0,000 mm 0,0 UV-I 0 W/m 4,9 C 5,2 C 14,5 km/h (3 Bft) 100,00 %
29.01.2018 03:40 8,1 C 3,9 C 80 % 1031,8 hPa 0,0 l/m 9,0 km/h (2 Bft) SW 224 0 min 0,000 mm 0,0 UV-I 0 W/m 4,9 C 6,1 C 12,9 km/h (3 Bft) 100,00 %
29.01.2018 03:42 8,2 C 3,9 C 80 % 1031,7 hPa 0,0 l/m 11,5 km/h (2 Bft) W-SW 237 0 min 0,000 mm 0,0 UV-I 0 W/m 5,0 C 4,7 C 17,7 km/h (3 Bft) 100,00 %
29.01.2018 03:44 8,2 C 3,9 C 80 % 1031,7 hPa 0,0 l/m 8,3 km/h (2 Bft) W-SW 248 0 min 0,000 mm 0,0 UV-I 0 W/m 5,0 C 6,7 C 11,3 km/h (2 Bft) 100,00 %
29.01.2018 03:46 8,2 C 3,9 C 80 % 1031,8 hPa 0,0 l/m 6,6 km/h (2 Bft) SW 235 0 min 0,000 mm 0,0 UV-I 0 W/m 5,0 C 8,1 C 9,7 km/h (2 Bft) 100,00 %
29.01.2018 03:48 8,2 C 3,9 C 80 % 1031,8 hPa 0,0 l/m 7,9 km/h (2 Bft) SW 221 0 min 0,000 mm 0,0 UV-I 0 W/m 5,0 C 7,0 C 11,3 km/h (2 Bft) 100,00 %
29.01.2018 03:50 8,2 C 3,9 C 80 % 1031,8 hPa 0,0 l/m 8,9 km/h (2 Bft) SW 225 0 min 0,000 mm 0,0 UV-I 0 W/m 5,0 C 6,3 C 12,9 km/h (3 Bft) 100,00 %
29.01.2018 03:52 8,2 C 3,9 C 80 % 1031,8 hPa 0,0 l/m 10,6 km/h (2 Bft) SW 229 0 min 0,000 mm 0,0 UV-I 0 W/m 5,0 C 5,2 C 14,5 km/h (3 Bft) 100,00 %
29.01.2018 03:54 8,2 C 3,9 C 80 % 1031,7 hPa 0,0 l/m 9,3 km/h (2 Bft) W-SW 246 0 min 0,000 mm 0,0 UV-I 0 W/m 5,0 C 6,1 C 14,5 km/h (3 Bft) 94,74 %
29.01.2018 03:56 8,1 C 3,9 C 80 % 1031,7 hPa 0,0 l/m 7,6 km/h (2 Bft) W-SW 242 0 min 0,000 mm 0,0 UV-I 0 W/m 4,9 C 7,2 C 11,3 km/h (2 Bft) 100,00 %
29.01.2018 03:58 8,1 C 3,9 C 80 % 1031,7 hPa 0,0 l/m 9,0 km/h (2 Bft) SW 215 0 min 0,000 mm 0,0 UV-I 0 W/m 4,9 C 6,1 C 12,9 km/h (3 Bft) 97,56 %
29.01.2018 04:00 8,1 C 3,9 C 81 % 1031,7 hPa 0,0 l/m 7,5 km/h (2 Bft) W-SW 239 0 min 0,026 mm 0,0 UV-I 0 W/m 5,0 C 7,2 C 12,9 km/h (3 Bft) 98,21 %
29.01.2018 04:02 8,1 C 3,9 C 81 % 1031,7 hPa 0,0 l/m 6,7 km/h (2 Bft) W-SW 254 0 min 0,000 mm 0,0 UV-I 0 W/m 5,0 C 7,9 C 9,7 km/h (2 Bft) 96,43 %
29.01.2018 04:04 8,0 C 3,9 C 81 % 1031,7 hPa 0,0 l/m 5,9 km/h (2 Bft) SW 232 0 min 0,000 mm 0,0 UV-I 0 W/m 4,9 C 8,0 C 9,7 km/h (2 Bft) 100,00 %
29.01.2018 04:06 8,0 C 3,9 C 81 % 1031,7 hPa 0,0 l/m 6,6 km/h (2 Bft) W-SW 238 0 min 0,000 mm 0,0 UV-I 0 W/m 4,9 C 7,9 C 9,7 km/h (2 Bft) 97,96 %
29.01.2018 04:08 8,0 C 3,9 C 81 % 1031,7 hPa 0,0 l/m 7,2 km/h (2 Bft) SW 227 0 min 0,000 mm 0,0 UV-I 0 W/m 4,9 C 7,4 C 12,9 km/h (3 Bft) 100,00 %
29.01.2018 04:10 8,1 C 3,9 C 81 % 1031,7 hPa 0,0 l/m 6,5 km/h (2 Bft) SW 229 0 min 0,000 mm 0,0 UV-I 0 W/m 5,0 C 8,0 C 11,3 km/h (2 Bft) 100,00 %
29.01.2018 04:12 8,1 C 3,9 C 81 % 1031,7 hPa 0,0 l/m 7,1 km/h (2 Bft) SW 228 0 min 0,000 mm 0,0 UV-I 0 W/m 5,0 C 7,6 C 9,7 km/h (2 Bft) 100,00 %
29.01.2018 04:14 8,0 C 3,9 C 81 % 1031,6 hPa 0,0 l/m 6,4 km/h (2 Bft) W-SW 238 0 min 0,000 mm 0,0 UV-I 0 W/m 4,9 C 8,0 C 9,7 km/h (2 Bft) 98,00 %
29.01.2018 04:16 8,0 C 3,9 C 81 % 1031,7 hPa 0,0 l/m 5,9 km/h (2 Bft) W-SW 238 0 min 0,000 mm 0,0 UV-I 0 W/m 4,9 C 8,0 C 11,3 km/h (2 Bft) 100,00 %
29.01.2018 04:18 8,0 C 3,9 C 81 % 1031,6 hPa 0,0 l/m 6,8 km/h (2 Bft) S-SW 202 0 min 0,000 mm 0,0 UV-I 0 W/m 4,9 C 7,7 C 11,3 km/h (2 Bft) 96,00 %
29.01.2018 04:20 8,1 C 3,9 C 81 % 1031,6 hPa 0,0 l/m 6,8 km/h (2 Bft) SW 215 0 min 0,000 mm 0,0 UV-I 0 W/m 5,0 C 7,8 C 11,3 km/h (2 Bft) 97,37 %
29.01.2018 04:22 8,2 C 3,9 C 81 % 1031,6 hPa 0,0 l/m 7,3 km/h (2 Bft) SW 215 0 min 0,000 mm 0,0 UV-I 0 W/m 5,1 C 7,5 C 11,3 km/h (2 Bft) 96,67 %
29.01.2018 04:24 8,2 C 3,9 C 81 % 1031,6 hPa 0,0 l/m 4,9 km/h (1 Bft) W-SW 239 0 min 0,000 mm 0,0 UV-I 0 W/m 5,1 C 8,2 C 8,0 km/h (2 Bft) 97,87 %
29.01.2018 04:26 8,2 C 3,9 C 81 % 1031,6 hPa 0,0 l/m 6,1 km/h (2 Bft) S-SW 213 0 min 0,000 mm 0,0 UV-I 0 W/m 5,1 C 8,2 C 8,0 km/h (2 Bft) 97,37 %
29.01.2018 04:28 8,2 C 3,9 C 80 % 1031,6 hPa 0,0 l/m 7,5 km/h (2 Bft) SW 227 0 min 0,000 mm 0,0 UV-I 0 W/m 5,0 C 7,3 C 12,9 km/h (3 Bft) 97,92 %
29.01.2018 04:30 8,1 C 3,9 C 81 % 1031,6 hPa 0,0 l/m 5,9 km/h (2 Bft) W-SW 241 0 min 0,000 mm 0,0 UV-I 0 W/m 5,0 C 8,1 C 8,0 km/h (2 Bft) 98,11 %
29.01.2018 04:32 8,2 C 3,9 C 81 % 1031,6 hPa 0,0 l/m 6,8 km/h (2 Bft) W-SW 251 0 min 0,000 mm 0,0 UV-I 0 W/m 5,1 C 7,9 C 9,7 km/h (2 Bft) 100,00 %
29.01.2018 04:34 8,1 C 3,9 C 81 % 1031,6 hPa 0,0 l/m 6,4 km/h (2 Bft) W 261 0 min 0,000 mm 0,0 UV-I 0 W/m 5,0 C 8,1 C 11,3 km/h (2 Bft) 96,88 %
29.01.2018 04:36 8,2 C 3,9 C 81 % 1031,6 hPa 0,0 l/m 6,2 km/h (2 Bft) SW 234 0 min 0,000 mm 0,0 UV-I 0 W/m 5,1 C 8,2 C 9,7 km/h (2 Bft) 97,87 %
29.01.2018 04:38 8,2 C 3,9 C 81 % 1031,6 hPa 0,0 l/m 8,9 km/h (2 Bft) W-SW 254 0 min 0,000 mm 0,0 UV-I 0 W/m 5,1 C 6,3 C 11,3 km/h (2 Bft) 98,00 %
29.01.2018 04:40 8,2 C 3,9 C 81 % 1031,6 hPa 0,0 l/m 8,0 km/h (2 Bft) W-SW 248 0 min 0,000 mm 0,0 UV-I 0 W/m 5,1 C 7,0 C 12,9 km/h (3 Bft) 97,56 %
29.01.2018 04:42 8,2 C 3,9 C 80 % 1031,6 hPa 0,0 l/m 6,4 km/h (2 Bft) W-SW 242 0 min 0,000 mm 0,0 UV-I 0 W/m 5,0 C 8,2 C 9,7 km/h (2 Bft) 96,43 %
29.01.2018 04:44 8,3 C 3,9 C 80 % 1031,5 hPa 0,0 l/m 5,6 km/h (1 Bft) W-SW 245 0 min 0,000 mm 0,0 UV-I 0 W/m 5,1 C 8,3 C 8,0 km/h (2 Bft) 100,00 %
29.01.2018 04:46 8,3 C 3,9 C 80 % 1031,5 hPa 0,0 l/m 4,5 km/h (1 Bft) SW 223 0 min 0,000 mm 0,0 UV-I 0 W/m 5,1 C 8,3 C 6,4 km/h (2 Bft) 95,74 %
29.01.2018 04:48 8,2 C 3,9 C 81 % 1031,6 hPa 0,0 l/m 5,3 km/h (1 Bft) W-SW 248 0 min 0,000 mm 0,0 UV-I 0 W/m 5,1 C 8,2 C 8,0 km/h (2 Bft) 97,87 %
29.01.2018 04:50 8,3 C 3,9 C 81 % 1031,5 hPa 0,0 l/m 7,0 km/h (2 Bft) SW 231 0 min 0,000 mm 0,0 UV-I 0 W/m 5,2 C 7,8 C 12,9 km/h (3 Bft) 95,74 %
29.01.2018 04:52 8,2 C 3,9 C 80 % 1031,5 hPa 0,0 l/m 5,6 km/h (1 Bft) W-SW 244 0 min 0,000 mm 0,0 UV-I 0 W/m 5,0 C 8,2 C 9,7 km/h (2 Bft) 98,11 %
29.01.2018 04:54 8,2 C 3,9 C 81 % 1031,5 hPa 0,0 l/m 5,7 km/h (1 Bft) W-SW 257 0 min 0,000 mm 0,0 UV-I 0 W/m 5,1 C 8,2 C 9,7 km/h (2 Bft) 97,73 %
29.01.2018 04:56 8,2 C 3,9 C 81 % 1031,5 hPa 0,0 l/m 7,5 km/h (2 Bft) SW 221 0 min 0,000 mm 0,0 UV-I 0 W/m 5,1 C 7,3 C 12,9 km/h (3 Bft) 97,56 %
29.01.2018 04:58 8,2 C 3,9 C 81 % 1031,5 hPa 0,0 l/m 7,0 km/h (2 Bft) W 267 0 min 0,000 mm 0,0 UV-I 0 W/m 5,1 C 7,7 C 9,7 km/h (2 Bft) 97,87 %
29.01.2018 05:00 8,2 C 3,9 C 81 % 1031,5 hPa 0,0 l/m 4,5 km/h (1 Bft) W-SW 248 0 min 0,025 mm 0,0 UV-I 0 W/m 5,1 C 8,2 C 8,0 km/h (2 Bft) 98,00 %
29.01.2018 05:02 8,2 C 3,9 C 81 % 1031,5 hPa 0,0 l/m 5,7 km/h (1 Bft) W-SW 257 0 min 0,000 mm 0,0 UV-I 0 W/m 5,1 C 8,2 C 8,0 km/h (2 Bft) 98,00 %
29.01.2018 05:04 8,2 C 3,9 C 81 % 1031,5 hPa 0,0 l/m 5,4 km/h (1 Bft) W-SW 256 0 min 0,000 mm 0,0 UV-I 0 W/m 5,1 C 8,2 C 8,0 km/h (2 Bft) 100,00 %
29.01.2018 05:06 8,2 C 3,9 C 81 % 1031,5 hPa 0,0 l/m 4,4 km/h (1 Bft) W-SW 256 0 min 0,000 mm 0,0 UV-I 0 W/m 5,1 C 8,2 C 6,4 km/h (2 Bft) 100,00 %
29.01.2018 05:08 8,1 C 3,9 C 81 % 1031,5 hPa 0,0 l/m 4,1 km/h (1 Bft) W-SW 255 0 min 0,000 mm 0,0 UV-I 0 W/m 5,0 C 8,1 C 6,4 km/h (2 Bft) 100,00 %
29.01.2018 05:10 8,1 C 3,9 C 81 % 1031,5 hPa 0,0 l/m 3,7 km/h (1 Bft) W-SW 255 0 min 0,000 mm 0,0 UV-I 0 W/m 5,0 C 8,1 C 4,8 km/h (1 Bft) 98,00 %
29.01.2018 05:12 8,1 C 3,9 C 81 % 1031,5 hPa 0,0 l/m 4,0 km/h (1 Bft) W 272 0 min 0,000 mm 0,0 UV-I 0 W/m 5,0 C 8,1 C 6,4 km/h (2 Bft) 100,00 %
29.01.2018 05:14 8,1 C 3,9 C 81 % 1031,5 hPa 0,0 l/m 3,8 km/h (1 Bft) W 260 0 min 0,000 mm 0,0 UV-I 0 W/m 5,0 C 8,1 C 4,8 km/h (1 Bft) 98,00 %
29.01.2018 05:16 8,1 C 3,9 C 81 % 1031,4 hPa 0,0 l/m 2,9 km/h (1 Bft) W 259 0 min 0,000 mm 0,0 UV-I 0 W/m 5,0 C 8,1 C 4,8 km/h (1 Bft) 100,00 %
29.01.2018 05:18 8,1 C 3,9 C 82 % 1031,5 hPa 0,0 l/m 3,6 km/h (1 Bft) W-SW 258 0 min 0,000 mm 0,0 UV-I 0 W/m 5,2 C 8,1 C 6,4 km/h (2 Bft) 97,87 %
29.01.2018 05:20 8,0 C 3,9 C 82 % 1031,5 hPa 0,0 l/m 3,8 km/h (1 Bft) SW 227 0 min 0,000 mm 0,0 UV-I 0 W/m 5,1 C 8,0 C 6,4 km/h (2 Bft) 100,00 %
29.01.2018 05:22 8,0 C 3,9 C 82 % 1031,5 hPa 0,0 l/m 4,5 km/h (1 Bft) W-SW 244 0 min 0,000 mm 0,0 UV-I 0 W/m 5,1 C 8,0 C 6,4 km/h (2 Bft) 97,87 %
29.01.2018 05:24 8,0 C 3,9 C 82 % 1031,5 hPa 0,0 l/m 3,7 km/h (1 Bft) W-SW 244 0 min 0,000 mm 0,0 UV-I 0 W/m 5,1 C 8,0 C 4,8 km/h (1 Bft) 100,00 %
29.01.2018 05:26 8,0 C 3,9 C 82 % 1031,5 hPa 0,0 l/m 3,5 km/h (1 Bft) W-SW 244 0 min 0,000 mm 0,0 UV-I 0 W/m 5,1 C 8,0 C 4,8 km/h (1 Bft) 97,62 %
29.01.2018 05:28 8,0 C 3,9 C 82 % 1031,4 hPa 0,0 l/m 4,6 km/h (1 Bft) W-SW 241 0 min 0,000 mm 0,0 UV-I 0 W/m 5,1 C 8,0 C 6,4 km/h (2 Bft) 100,00 %
29.01.2018 05:30 8,0 C 3,9 C 82 % 1031,4 hPa 0,0 l/m 5,1 km/h (1 Bft) W-SW 253 0 min 0,000 mm 0,0 UV-I 0 W/m 5,1 C 8,0 C 8,0 km/h (2 Bft) 100,00 %
29.01.2018 05:32 8,0 C 3,9 C 82 % 1031,4 hPa 0,0 l/m 5,5 km/h (1 Bft) W-SW 245 0 min 0,000 mm 0,0 UV-I 0 W/m 5,1 C 8,0 C 8,0 km/h (2 Bft) 97,87 %
29.01.2018 05:34 7,9 C 3,9 C 82 % 1031,5 hPa 0,0 l/m 4,2 km/h (1 Bft) W 261 0 min 0,000 mm 0,0 UV-I 0 W/m 5,0 C 7,9 C 4,8 km/h (1 Bft) 100,00 %
29.01.2018 05:36 8,0 C 3,9 C 82 % 1031,5 hPa 0,0 l/m 4,6 km/h (1 Bft) W 273 0 min 0,000 mm 0,0 UV-I 0 W/m 5,1 C 8,0 C 9,7 km/h (2 Bft) 100,00 %
29.01.2018 05:38 8,0 C 3,9 C 82 % 1031,5 hPa 0,0 l/m 8,8 km/h (2 Bft) W-SW 246 0 min 0,000 mm 0,0 UV-I 0 W/m 5,1 C 6,2 C 14,5 km/h (3 Bft) 98,00 %
29.01.2018 05:40 8,1 C 3,9 C 81 % 1031,5 hPa 0,0 l/m 6,6 km/h (2 Bft) W-SW 248 0 min 0,000 mm 0,0 UV-I 0 W/m 5,0 C 8,0 C 9,7 km/h (2 Bft) 100,00 %
29.01.2018 05:42 8,1 C 3,9 C 81 % 1031,6 hPa 0,0 l/m 10,3 km/h (2 Bft) W-SW 240 0 min 0,000 mm 0,0 UV-I 0 W/m 5,0 C 5,3 C 17,7 km/h (3 Bft) 100,00 %
29.01.2018 05:44 8,2 C 3,9 C 81 % 1031,5 hPa 0,0 l/m 7,9 km/h (2 Bft) W-SW 240 0 min 0,000 mm 0,0 UV-I 0 W/m 5,1 C 7,0 C 12,9 km/h (3 Bft) 98,00 %
29.01.2018 05:46 8,2 C 3,9 C 81 % 1031,6 hPa 0,0 l/m 8,4 km/h (2 Bft) W-SW 240 0 min 0,000 mm 0,0 UV-I 0 W/m 5,1 C 6,7 C 14,5 km/h (3 Bft) 100,00 %
29.01.2018 05:48 8,2 C 3,9 C 81 % 1031,5 hPa 0,0 l/m 6,2 km/h (2 Bft) W 267 0 min 0,000 mm 0,0 UV-I 0 W/m 5,1 C 8,2 C 9,7 km/h (2 Bft) 100,00 %
29.01.2018 05:50 8,2 C 3,9 C 81 % 1031,6 hPa 0,0 l/m 7,2 km/h (2 Bft) W-SW 238 0 min 0,000 mm 0,0 UV-I 0 W/m 5,1 C 7,6 C 14,5 km/h (3 Bft) 100,00 %
29.01.2018 05:52 8,2 C 3,9 C 81 % 1031,6 hPa 0,0 l/m 7,1 km/h (2 Bft) W-SW 254 0 min 0,000 mm 0,0 UV-I 0 W/m 5,1 C 7,7 C 12,9 km/h (3 Bft) 100,00 %
29.01.2018 05:54 8,2 C 3,9 C 81 % 1031,6 hPa 0,0 l/m 6,9 km/h (2 Bft) W 274 0 min 0,000 mm 0,0 UV-I 0 W/m 5,1 C 7,8 C 14,5 km/h (3 Bft) 100,00 %
29.01.2018 05:56 8,1 C 3,9 C 81 % 1031,6 hPa 0,0 l/m 5,9 km/h (2 Bft) W 273 0 min 0,000 mm 0,0 UV-I 0 W/m 5,0 C 8,1 C 9,7 km/h (2 Bft) 95,74 %
29.01.2018 05:58 8,1 C 3,9 C 81 % 1031,6 hPa 0,0 l/m 7,0 km/h (2 Bft) W-SW 247 0 min 0,000 mm 0,0 UV-I 0 W/m 5,0 C 7,6 C 12,9 km/h (3 Bft) 97,44 %
29.01.2018 06:00 8,2 C 3,9 C 81 % 1031,6 hPa 0,0 l/m 7,9 km/h (2 Bft) W-SW 248 0 min 0,025 mm 0,0 UV-I 0 W/m 5,1 C 7,0 C 14,5 km/h (3 Bft) 100,00 %
29.01.2018 06:02 8,2 C 3,9 C 81 % 1031,6 hPa 0,0 l/m 6,6 km/h (2 Bft) SW 234 0 min 0,000 mm 0,0 UV-I 0 W/m 5,1 C 8,1 C 9,7 km/h (2 Bft) 97,59 %
29.01.2018 06:04 8,2 C 3,9 C 81 % 1031,6 hPa 0,0 l/m 6,1 km/h (2 Bft) W-SW 248 0 min 0,000 mm 0,0 UV-I 0 W/m 5,1 C 8,2 C 8,0 km/h (2 Bft) 97,87 %
29.01.2018 06:06 8,1 C 3,9 C 81 % 1031,6 hPa 0,0 l/m 4,9 km/h (1 Bft) SW 232 0 min 0,000 mm 0,0 UV-I 0 W/m 5,0 C 8,1 C 8,0 km/h (2 Bft) 96,00 %
29.01.2018 06:08 8,1 C 3,9 C 81 % 1031,6 hPa 0,0 l/m 6,1 km/h (2 Bft) W 259 0 min 0,000 mm 0,0 UV-I 0 W/m 5,0 C 8,1 C 9,7 km/h (2 Bft) 97,73 %
29.01.2018 06:10 8,1 C 3,9 C 81 % 1031,7 hPa 0,0 l/m 5,9 km/h (2 Bft) W-NW 283 0 min 0,000 mm 0,0 UV-I 0 W/m 5,0 C 8,1 C 9,7 km/h (2 Bft) 98,00 %
29.01.2018 06:12 8,1 C 3,9 C 81 % 1031,7 hPa 0,0 l/m 7,5 km/h (2 Bft) W 262 0 min 0,000 mm 0,0 UV-I 0 W/m 5,0 C 7,2 C 17,7 km/h (3 Bft) 97,87 %
29.01.2018 06:14 8,2 C 3,9 C 81 % 1031,7 hPa 0,0 l/m 12,2 km/h (2 Bft) W 260 0 min 0,000 mm 0,0 UV-I 0 W/m 5,1 C 4,3 C 17,7 km/h (3 Bft) 98,00 %
29.01.2018 06:16 8,3 C 3,9 C 80 % 1031,7 hPa 0,0 l/m 8,9 km/h (2 Bft) W-NW 285 0 min 0,000 mm 0,0 UV-I 0 W/m 5,1 C 6,4 C 11,3 km/h (2 Bft) 97,37 %
29.01.2018 06:18 8,3 C 3,9 C 80 % 1031,7 hPa 0,0 l/m 9,1 km/h (2 Bft) W-SW 258 0 min 0,000 mm 0,0 UV-I 0 W/m 5,1 C 6,3 C 16,1 km/h (3 Bft) 95,74 %
29.01.2018 06:20 8,4 C 3,9 C 80 % 1031,7 hPa 0,0 l/m 10,1 km/h (2 Bft) W 278 0 min 0,000 mm 0,0 UV-I 0 W/m 5,2 C 5,8 C 17,7 km/h (3 Bft) 98,00 %
29.01.2018 06:22 8,3 C 3,9 C 80 % 1031,7 hPa 0,0 l/m 11,0 km/h (2 Bft) W 259 0 min 0,000 mm 0,0 UV-I 0 W/m 5,1 C 5,1 C 17,7 km/h (3 Bft) 97,56 %
29.01.2018 06:24 8,4 C 3,9 C 80 % 1031,7 hPa 0,0 l/m 15,5 km/h (3 Bft) W 265 0 min 0,000 mm 0,0 UV-I 0 W/m 5,2 C 3,0 C 22,5 km/h (4 Bft) 98,21 %
29.01.2018 06:26 8,4 C 3,9 C 79 % 1031,9 hPa 0,0 l/m 14,6 km/h (3 Bft) SW 224 0 min 0,000 mm 0,0 UV-I 0 W/m 5,0 C 3,4 C 24,1 km/h (4 Bft) 97,56 %
29.01.2018 06:28 8,4 C 3,9 C 79 % 1031,7 hPa 0,0 l/m 10,1 km/h (2 Bft) W-SW 250 0 min 0,000 mm 0,0 UV-I 0 W/m 5,0 C 5,8 C 16,1 km/h (3 Bft) 96,23 %
29.01.2018 06:30 8,4 C 3,9 C 79 % 1031,7 hPa 0,0 l/m 13,2 km/h (3 Bft) W 267 0 min 0,000 mm 0,0 UV-I 0 W/m 5,0 C 4,0 C 22,5 km/h (4 Bft) 100,00 %
29.01.2018 06:32 8,4 C 3,9 C 79 % 1031,6 hPa 0,0 l/m 11,3 km/h (2 Bft) W 259 0 min 0,000 mm 0,0 UV-I 0 W/m 5,0 C 5,1 C 19,3 km/h (3 Bft) 97,87 %
29.01.2018 06:34 8,4 C 3,9 C 80 % 1031,6 hPa 0,0 l/m 9,1 km/h (2 Bft) SW 221 0 min 0,000 mm 0,0 UV-I 0 W/m 5,2 C 6,4 C 12,9 km/h (3 Bft) 97,73 %
29.01.2018 06:36 8,4 C 3,9 C 80 % 1031,6 hPa 0,0 l/m 12,4 km/h (3 Bft) W 261 0 min 0,000 mm 0,0 UV-I 0 W/m 5,2 C 4,5 C 22,5 km/h (4 Bft) 94,00 %
29.01.2018 06:38 8,4 C 3,9 C 79 % 1031,6 hPa 0,0 l/m 11,9 km/h (2 Bft) SW 235 0 min 0,000 mm 0,0 UV-I 0 W/m 5,0 C 4,7 C 16,1 km/h (3 Bft) 95,24 %
29.01.2018 06:40 8,4 C 3,9 C 79 % 1031,6 hPa 0,0 l/m 13,1 km/h (3 Bft) W 274 0 min 0,000 mm 0,0 UV-I 0 W/m 5,0 C 4,1 C 22,5 km/h (4 Bft) 94,00 %
29.01.2018 06:42 8,4 C 3,9 C 79 % 1031,5 hPa 0,0 l/m 14,8 km/h (3 Bft) W 265 0 min 0,000 mm 0,0 UV-I 0 W/m 5,0 C 3,3 C 25,7 km/h (4 Bft) 94,29 %
29.01.2018 06:44 8,4 C 3,9 C 79 % 1031,6 hPa 0,0 l/m 12,9 km/h (3 Bft) W 261 0 min 0,000 mm 0,0 UV-I 0 W/m 5,0 C 4,2 C 20,9 km/h (4 Bft) 94,00 %
29.01.2018 06:46 8,4 C 3,9 C 80 % 1031,6 hPa 0,0 l/m 9,0 km/h (2 Bft) SW 221 0 min 0,000 mm 0,0 UV-I 0 W/m 5,2 C 6,5 C 16,1 km/h (3 Bft) 94,00 %
29.01.2018 06:48 8,3 C 3,9 C 80 % 1031,5 hPa 0,0 l/m 8,2 km/h (2 Bft) SW 221 0 min 0,000 mm 0,0 UV-I 0 W/m 5,1 C 6,9 C 12,9 km/h (3 Bft) 96,00 %
29.01.2018 06:50 8,3 C 3,9 C 80 % 1031,5 hPa 0,0 l/m 9,6 km/h (2 Bft) W 275 0 min 0,000 mm 0,0 UV-I 0 W/m 5,1 C 6,0 C 12,9 km/h (3 Bft) 92,68 %
29.01.2018 06:52 8,3 C 3,9 C 80 % 1031,5 hPa 0,0 l/m 14,6 km/h (3 Bft) W-SW 249 0 min 0,000 mm 0,0 UV-I 0 W/m 5,1 C 3,3 C 25,7 km/h (4 Bft) 94,34 %
29.01.2018 06:54 8,4 C 3,9 C 80 % 1031,5 hPa 0,0 l/m 9,9 km/h (2 Bft) W-SW 248 0 min 0,000 mm 0,0 UV-I 0 W/m 5,2 C 5,9 C 16,1 km/h (3 Bft) 94,00 %
29.01.2018 06:56 8,3 C 3,9 C 80 % 1031,4 hPa 0,0 l/m 10,0 km/h (2 Bft) W-SW 248 0 min 0,000 mm 0,0 UV-I 0 W/m 5,1 C 5,7 C 14,5 km/h (3 Bft) 93,62 %
29.01.2018 06:58 8,3 C 3,9 C 80 % 1031,4 hPa 0,0 l/m 12,4 km/h (3 Bft) W-SW 244 0 min 0,000 mm 0,0 UV-I 0 W/m 5,1 C 4,3 C 20,9 km/h (4 Bft) 95,74 %
29.01.2018 07:00 8,3 C 3,9 C 80 % 1031,4 hPa 0,0 l/m 11,1 km/h (2 Bft) W-SW 251 0 min 0,026 mm 0,0 UV-I 0 W/m 5,1 C 5,1 C 16,1 km/h (3 Bft) 91,67 %
29.01.2018 07:02 8,3 C 3,9 C 80 % 1031,4 hPa 0,0 l/m 10,4 km/h (2 Bft) W-SW 249 0 min 0,000 mm 0,0 UV-I 0 W/m 5,1 C 5,5 C 19,3 km/h (3 Bft) 94,29 %
29.01.2018 07:04 8,3 C 3,9 C 80 % 1031,5 hPa 0,0 l/m 18,3 km/h (3 Bft) W-SW 242 0 min 0,000 mm 0,0 UV-I 0 W/m 5,1 C 1,7 C 30,6 km/h (5 Bft) 94,74 %
29.01.2018 07:06 8,4 C 3,9 C 80 % 1031,4 hPa 0,0 l/m 15,4 km/h (3 Bft) W-SW 250 0 min 0,000 mm 0,0 UV-I 0 W/m 5,2 C 3,0 C 22,5 km/h (4 Bft) 96,00 %
29.01.2018 07:08 8,3 C 3,9 C 80 % 1031,5 hPa 0,0 l/m 11,9 km/h (2 Bft) W 263 0 min 0,000 mm 0,0 UV-I 0 W/m 5,1 C 4,6 C 22,5 km/h (4 Bft) 94,34 %
29.01.2018 07:10 8,3 C 3,9 C 80 % 1031,5 hPa 0,0 l/m 9,2 km/h (2 Bft) W 273 0 min 0,000 mm 0,0 UV-I 0 W/m 5,1 C 6,2 C 14,5 km/h (3 Bft) 97,37 %
29.01.2018 07:12 8,3 C 3,9 C 80 % 1031,5 hPa 0,0 l/m 11,2 km/h (2 Bft) W-SW 257 0 min 0,000 mm 0,0 UV-I 0 W/m 5,1 C 5,0 C 17,7 km/h (3 Bft) 96,00 %
29.01.2018 07:14 8,3 C 3,9 C 80 % 1031,5 hPa 0,0 l/m 8,2 km/h (2 Bft) W-SW 242 0 min 0,000 mm 0,0 UV-I 0 W/m 5,1 C 6,9 C 11,3 km/h (2 Bft) 94,00 %
29.01.2018 07:16 8,3 C 3,9 C 80 % 1031,5 hPa 0,0 l/m 7,2 km/h (2 Bft) W-SW 238 0 min 0,000 mm 0,0 UV-I 0 W/m 5,1 C 7,7 C 12,9 km/h (3 Bft) 97,44 %
29.01.2018 07:18 8,2 C 3,9 C 81 % 1031,4 hPa 0,0 l/m 7,4 km/h (2 Bft) SW 234 0 min 0,000 mm 0,0 UV-I 0 W/m 5,1 C 7,4 C 11,3 km/h (2 Bft) 100,00 %
29.01.2018 07:20 8,2 C 3,9 C 81 % 1031,5 hPa 0,0 l/m 6,8 km/h (2 Bft) W-SW 243 0 min 0,000 mm 0,0 UV-I 0 W/m 5,1 C 7,9 C 9,7 km/h (2 Bft) 100,00 %
29.01.2018 07:22 8,1 C 3,9 C 81 % 1031,5 hPa 0,0 l/m 9,1 km/h (2 Bft) W 272 0 min 0,000 mm 0,0 UV-I 0 W/m 5,0 C 6,1 C 12,9 km/h (3 Bft) 100,00 %
29.01.2018 07:24 8,1 C 3,9 C 81 % 1031,6 hPa 0,0 l/m 8,0 km/h (2 Bft) W-SW 254 0 min 0,000 mm 0,0 UV-I 0 W/m 5,0 C 6,9 C 11,3 km/h (2 Bft) 97,37 %
29.01.2018 07:26 8,1 C 3,9 C 82 % 1031,6 hPa 0,0 l/m 6,4 km/h (2 Bft) W 269 0 min 0,000 mm 0,0 UV-I 0 W/m 5,2 C 8,1 C 9,7 km/h (2 Bft) 100,00 %
29.01.2018 07:28 8,1 C 3,9 C 82 % 1031,6 hPa 0,0 l/m 6,6 km/h (2 Bft) W-SW 254 0 min 0,000 mm 0,0 UV-I 0 W/m 5,2 C 8,0 C 11,3 km/h (2 Bft) 97,87 %
29.01.2018 07:30 8,1 C 3,9 C 82 % 1031,5 hPa 0,0 l/m 5,8 km/h (2 Bft) W-SW 251 0 min 0,000 mm 0,0 UV-I 5 W/m 5,2 C 8,1 C 11,3 km/h (2 Bft) 100,00 %
29.01.2018 07:32 8,1 C 3,9 C 82 % 1031,6 hPa 0,0 l/m 7,3 km/h (2 Bft) W 261 0 min 0,000 mm 0,0 UV-I 5 W/m 5,2 C 7,4 C 11,3 km/h (2 Bft) 100,00 %
29.01.2018 07:34 8,1 C 3,9 C 82 % 1031,6 hPa 0,0 l/m 9,7 km/h (2 Bft) W 262 0 min 0,000 mm 0,0 UV-I 5 W/m 5,2 C 5,7 C 14,5 km/h (3 Bft) 97,73 %
29.01.2018 07:36 8,1 C 3,9 C 82 % 1031,6 hPa 0,0 l/m 7,9 km/h (2 Bft) W 259 0 min 0,000 mm 0,0 UV-I 5 W/m 5,2 C 6,9 C 11,3 km/h (2 Bft) 100,00 %
29.01.2018 07:38 8,1 C 3,9 C 82 % 1031,6 hPa 0,0 l/m 7,9 km/h (2 Bft) W-NW 290 0 min 0,000 mm 0,0 UV-I 5 W/m 5,2 C 6,9 C 11,3 km/h (2 Bft) 100,00 %
29.01.2018 07:40 8,1 C 3,9 C 82 % 1031,6 hPa 0,0 l/m 8,2 km/h (2 Bft) W-SW 247 0 min 0,000 mm 0,0 UV-I 5 W/m 5,2 C 6,7 C 19,3 km/h (3 Bft) 100,00 %
29.01.2018 07:42 8,1 C 3,9 C 81 % 1031,5 hPa 0,0 l/m 9,7 km/h (2 Bft) W-SW 250 0 min 0,000 mm 0,0 UV-I 5 W/m 5,0 C 5,7 C 16,1 km/h (3 Bft) 100,00 %
29.01.2018 07:44 8,1 C 3,9 C 82 % 1031,6 hPa 0,0 l/m 10,3 km/h (2 Bft) W 274 0 min 0,000 mm 0,0 UV-I 6 W/m 5,2 C 5,3 C 14,5 km/h (3 Bft) 100,00 %
29.01.2018 07:46 8,0 C 3,9 C 82 % 1031,6 hPa 0,0 l/m 9,9 km/h (2 Bft) W-SW 250 0 min 0,000 mm 0,0 UV-I 7 W/m 5,1 C 5,4 C 16,1 km/h (3 Bft) 97,87 %
29.01.2018 07:48 8,1 C 3,9 C 82 % 1031,6 hPa 0,0 l/m 12,5 km/h (3 Bft) W 262 0 min 0,000 mm 0,0 UV-I 7 W/m 5,2 C 4,1 C 17,7 km/h (3 Bft) 100,00 %
29.01.2018 07:50 8,1 C 3,9 C 81 % 1031,6 hPa 0,0 l/m 10,7 km/h (2 Bft) W 269 0 min 0,000 mm 0,0 UV-I 7 W/m 5,0 C 5,1 C 17,7 km/h (3 Bft) 100,00 %
29.01.2018 07:52 8,1 C 3,9 C 81 % 1031,7 hPa 0,0 l/m 10,0 km/h (2 Bft) W 269 0 min 0,000 mm 0,0 UV-I 8 W/m 5,0 C 5,5 C 19,3 km/h (3 Bft) 100,00 %
29.01.2018 07:54 8,1 C 3,9 C 81 % 1031,7 hPa 0,0 l/m 7,8 km/h (2 Bft) W-NW 294 0 min 0,000 mm 0,0 UV-I 9 W/m 5,0 C 7,0 C 11,3 km/h (2 Bft) 97,84 %
29.01.2018 07:58 8,1 C 3,9 C 81 % 1031,6 hPa 0,0 l/m 10,1 km/h (2 Bft) W 259 0 min 0,000 mm 0,0 UV-I 12 W/m 5,0 C 5,4 C 12,9 km/h (3 Bft) 100,00 %
29.01.2018 08:00 8,1 C 3,9 C 81 % 1031,6 hPa 0,0 l/m 12,2 km/h (2 Bft) W 261 0 min 0,025 mm 0,0 UV-I 14 W/m 5,0 C 4,2 C 19,3 km/h (3 Bft) 100,00 %
29.01.2018 08:02 8,1 C 3,9 C 81 % 1031,6 hPa 0,0 l/m 10,8 km/h (2 Bft) W-SW 257 0 min 0,000 mm 0,0 UV-I 18 W/m 5,0 C 5,0 C 16,1 km/h (3 Bft) 98,00 %
29.01.2018 08:04 8,1 C 3,9 C 81 % 1031,6 hPa 0,0 l/m 9,4 km/h (2 Bft) W-SW 255 0 min 0,000 mm 0,0 UV-I 22 W/m 5,0 C 5,9 C 14,5 km/h (3 Bft) 100,00 %
29.01.2018 08:06 8,0 C 3,9 C 81 % 1031,6 hPa 0,0 l/m 11,0 km/h (2 Bft) W-SW 252 0 min 0,000 mm 0,0 UV-I 25 W/m 4,9 C 4,8 C 19,3 km/h (3 Bft) 98,00 %
29.01.2018 08:08 8,0 C 3,9 C 81 % 1031,6 hPa 0,0 l/m 13,1 km/h (3 Bft) W-SW 250 0 min 0,000 mm 0,0 UV-I 25 W/m 4,9 C 3,6 C 25,7 km/h (4 Bft) 100,00 %
29.01.2018 08:10 8,0 C 3,9 C 81 % 1031,5 hPa 0,0 l/m 14,2 km/h (3 Bft) W 261 0 min 0,000 mm 0,0 UV-I 27 W/m 4,9 C 3,1 C 22,5 km/h (4 Bft) 100,00 %
29.01.2018 08:12 8,0 C 3,9 C 81 % 1031,6 hPa 0,0 l/m 10,8 km/h (2 Bft) W 259 0 min 0,000 mm 0,0 UV-I 34 W/m 4,9 C 4,9 C 14,5 km/h (3 Bft) 98,00 %
29.01.2018 08:14 7,9 C 3,9 C 81 % 1031,5 hPa 0,0 l/m 12,0 km/h (2 Bft) W-SW 244 0 min 0,000 mm 0,0 UV-I 41 W/m 4,8 C 4,1 C 17,7 km/h (3 Bft) 100,00 %
29.01.2018 08:16 7,9 C 3,9 C 81 % 1031,5 hPa 0,0 l/m 10,6 km/h (2 Bft) NW 307 2 min 0,000 mm 0,0 UV-I 57 W/m 4,8 C 4,9 C 17,7 km/h (3 Bft) 100,00 %
29.01.2018 08:18 7,9 C 3,9 C 81 % 1031,4 hPa 0,0 l/m 12,7 km/h (3 Bft) W-SW 252 2 min 0,000 mm 0,0 UV-I 84 W/m 4,8 C 3,7 C 17,7 km/h (3 Bft) 100,00 %
29.01.2018 08:20 7,9 C 3,9 C 81 % 1031,4 hPa 0,0 l/m 11,3 km/h (2 Bft) W 266 2 min 0,000 mm 0,0 UV-I 103 W/m 4,8 C 4,5 C 17,7 km/h (3 Bft) 100,00 %
29.01.2018 08:22 8,0 C 3,9 C 81 % 1031,4 hPa 0,0 l/m 15,3 km/h (3 Bft) W-SW 249 2 min 0,000 mm 0,0 UV-I 122 W/m 4,9 C 2,6 C 24,1 km/h (4 Bft) 100,00 %
29.01.2018 08:24 8,1 C 3,9 C 81 % 1031,4 hPa 0,0 l/m 13,6 km/h (3 Bft) W-SW 245 2 min 0,000 mm 0,0 UV-I 124 W/m 5,0 C 3,5 C 19,3 km/h (3 Bft) 100,00 %
29.01.2018 08:26 8,2 C 3,9 C 80 % 1031,5 hPa 0,0 l/m 15,2 km/h (3 Bft) SW 234 2 min 0,000 mm 0,0 UV-I 115 W/m 5,0 C 2,9 C 19,3 km/h (3 Bft) 100,00 %
29.01.2018 08:28 8,2 C 3,9 C 80 % 1031,4 hPa 0,0 l/m 14,4 km/h (3 Bft) W 277 2 min 0,000 mm 0,0 UV-I 113 W/m 5,0 C 3,2 C 20,9 km/h (4 Bft) 100,00 %
29.01.2018 08:30 8,2 C 3,9 C 80 % 1031,5 hPa 0,0 l/m 14,0 km/h (3 Bft) SW 223 2 min 0,000 mm 0,0 UV-I 126 W/m 5,0 C 3,4 C 19,3 km/h (3 Bft) 100,00 %
29.01.2018 08:32 8,3 C 3,9 C 80 % 1031,5 hPa 0,0 l/m 18,8 km/h (3 Bft) W 281 2 min 0,000 mm 0,0 UV-I 114 W/m 5,1 C 1,5 C 25,7 km/h (4 Bft) 100,00 %
29.01.2018 08:34 8,3 C 3,9 C 80 % 1031,5 hPa 0,0 l/m 12,0 km/h (2 Bft) W-SW 249 2 min 0,000 mm 0,0 UV-I 76 W/m 5,1 C 4,6 C 17,7 km/h (3 Bft) 100,00 %
29.01.2018 08:36 8,2 C 3,9 C 80 % 1031,5 hPa 0,0 l/m 12,3 km/h (3 Bft) W 259 2 min 0,000 mm 0,0 UV-I 77 W/m 5,0 C 4,3 C 20,9 km/h (4 Bft) 100,00 %
29.01.2018 08:38 8,3 C 3,9 C 80 % 1031,6 hPa 0,0 l/m 14,4 km/h (3 Bft) W 265 0 min 0,000 mm 0,0 UV-I 65 W/m 5,1 C 3,4 C 20,9 km/h (4 Bft) 98,11 %
29.01.2018 08:40 8,2 C 3,9 C 80 % 1031,5 hPa 0,0 l/m 13,2 km/h (3 Bft) W-SW 242 0 min 0,000 mm 0,0 UV-I 62 W/m 5,0 C 3,8 C 19,3 km/h (3 Bft) 97,56 %
29.01.2018 08:42 8,2 C 3,9 C 80 % 1031,5 hPa 0,0 l/m 12,4 km/h (3 Bft) W-SW 250 0 min 0,000 mm 0,0 UV-I 58 W/m 5,0 C 4,2 C 16,1 km/h (3 Bft) 98,11 %
29.01.2018 08:44 8,2 C 3,9 C 80 % 1031,5 hPa 0,0 l/m 14,5 km/h (3 Bft) W-SW 243 0 min 0,000 mm 0,0 UV-I 62 W/m 5,0 C 3,2 C 19,3 km/h (3 Bft) 97,37 %
29.01.2018 08:46 8,2 C 3,9 C 80 % 1031,5 hPa 0,0 l/m 8,8 km/h (2 Bft) W-SW 254 0 min 0,000 mm 0,0 UV-I 65 W/m 5,0 C 6,4 C 12,9 km/h (3 Bft) 95,74 %
29.01.2018 08:48 8,2 C 3,9 C 80 % 1031,5 hPa 0,0 l/m 10,9 km/h (2 Bft) W 263 0 min 0,000 mm 0,0 UV-I 69 W/m 5,0 C 5,1 C 16,1 km/h (3 Bft) 96,23 %
29.01.2018 08:50 8,2 C 3,9 C 80 % 1031,5 hPa 0,0 l/m 15,2 km/h (3 Bft) W 268 0 min 0,000 mm 0,0 UV-I 76 W/m 5,0 C 2,9 C 27,4 km/h (4 Bft) 97,56 %
29.01.2018 08:52 8,2 C 3,9 C 80 % 1031,4 hPa 0,0 l/m 16,8 km/h (3 Bft) W-SW 240 0 min 0,000 mm 0,0 UV-I 87 W/m 5,0 C 2,2 C 27,4 km/h (4 Bft) 98,11 %
29.01.2018 08:54 8,2 C 3,9 C 80 % 1031,4 hPa 0,0 l/m 14,3 km/h (3 Bft) W 265 0 min 0,000 mm 0,0 UV-I 95 W/m 5,0 C 3,3 C 19,3 km/h (3 Bft) 97,37 %
29.01.2018 08:56 8,2 C 3,9 C 80 % 1031,4 hPa 0,0 l/m 15,6 km/h (3 Bft) W-NW 295 2 min 0,000 mm 0,0 UV-I 100 W/m 5,0 C 2,7 C 22,5 km/h (4 Bft) 95,45 %
29.01.2018 08:58 8,2 C 3,9 C 80 % 1031,4 hPa 0,0 l/m 13,8 km/h (3 Bft) W 275 2 min 0,000 mm 0,0 UV-I 133 W/m 5,0 C 3,5 C 22,5 km/h (4 Bft) 96,23 %
29.01.2018 09:00 8,3 C 3,9 C 80 % 1031,4 hPa 0,0 l/m 17,4 km/h (3 Bft) W-SW 257 2 min 0,051 mm 0,0 UV-I 113 W/m 5,1 C 2,1 C 24,1 km/h (4 Bft) 98,00 %
29.01.2018 09:02 8,3 C 3,9 C 80 % 1031,4 hPa 0,0 l/m 17,6 km/h (3 Bft) W-SW 249 2 min 0,000 mm 0,0 UV-I 138 W/m 5,1 C 2,0 C 27,4 km/h (4 Bft) 94,74 %
29.01.2018 09:04 8,3 C 3,9 C 79 % 1031,3 hPa 0,0 l/m 19,1 km/h (3 Bft) W-NW 284 2 min 0,000 mm 0,0 UV-I 111 W/m 4,9 C 1,4 C 25,7 km/h (4 Bft) 96,43 %
29.01.2018 09:06 8,3 C 3,9 C 79 % 1031,3 hPa 0,0 l/m 19,4 km/h (3 Bft) W 263 0 min 0,000 mm 0,0 UV-I 108 W/m 4,9 C 1,3 C 25,7 km/h (4 Bft) 97,44 %
29.01.2018 09:08 8,3 C 3,9 C 79 % 1031,4 hPa 0,0 l/m 16,8 km/h (3 Bft) W-SW 255 0 min 0,000 mm 0,0 UV-I 109 W/m 4,9 C 2,3 C 27,4 km/h (4 Bft) 96,36 %
29.01.2018 09:10 8,3 C 3,9 C 79 % 1031,4 hPa 0,0 l/m 19,6 km/h (3 Bft) SW 232 0 min 0,000 mm 0,0 UV-I 112 W/m 4,9 C 1,2 C 27,4 km/h (4 Bft) 95,56 %
29.01.2018 09:12 8,3 C 3,9 C 79 % 1031,4 hPa 0,0 l/m 18,1 km/h (3 Bft) SW 224 0 min 0,000 mm 0,0 UV-I 104 W/m 4,9 C 1,8 C 27,4 km/h (4 Bft) 97,56 %
29.01.2018 09:14 8,3 C 3,9 C 80 % 1031,4 hPa 0,0 l/m 12,1 km/h (2 Bft) W-NW 285 0 min 0,000 mm 0,0 UV-I 114 W/m 5,1 C 4,5 C 20,9 km/h (4 Bft) 100,00 %
29.01.2018 09:16 8,3 C 3,9 C 80 % 1031,3 hPa 0,0 l/m 11,4 km/h (2 Bft) W 261 0 min 0,000 mm 0,0 UV-I 113 W/m 5,1 C 4,9 C 17,7 km/h (3 Bft) 100,00 %
29.01.2018 09:18 8,3 C 3,9 C 79 % 1031,3 hPa 0,0 l/m 15,4 km/h (3 Bft) W 267 0 min 0,000 mm 0,0 UV-I 119 W/m 4,9 C 2,9 C 24,1 km/h (4 Bft) 98,00 %
29.01.2018 09:20 8,3 C 3,9 C 79 % 1031,3 hPa 0,0 l/m 18,4 km/h (3 Bft) W 281 2 min 0,000 mm 0,0 UV-I 128 W/m 4,9 C 1,7 C 27,4 km/h (4 Bft) 98,00 %
29.01.2018 09:22 8,3 C 3,9 C 80 % 1031,3 hPa 0,0 l/m 12,4 km/h (3 Bft) W-SW 252 2 min 0,000 mm 0,0 UV-I 137 W/m 5,1 C 4,3 C 17,7 km/h (3 Bft) 100,00 %
29.01.2018 09:24 8,3 C 3,9 C 80 % 1031,3 hPa 0,0 l/m 14,9 km/h (3 Bft) W-SW 247 2 min 0,000 mm 0,0 UV-I 135 W/m 5,1 C 3,1 C 20,9 km/h (4 Bft) 100,00 %
29.01.2018 09:26 8,3 C 3,9 C 80 % 1031,2 hPa 0,0 l/m 12,1 km/h (2 Bft) W 268 0 min 0,000 mm 0,0 UV-I 132 W/m 5,1 C 4,5 C 16,1 km/h (3 Bft) 100,00 %
29.01.2018 09:28 8,3 C 3,9 C 80 % 1031,2 hPa 0,0 l/m 12,2 km/h (2 Bft) W-NW 295 2 min 0,000 mm 0,0 UV-I 136 W/m 5,1 C 4,4 C 16,1 km/h (3 Bft) 100,00 %
29.01.2018 09:30 8,3 C 3,9 C 80 % 1031,2 hPa 0,0 l/m 9,3 km/h (2 Bft) SW 236 2 min 0,000 mm 0,0 UV-I 139 W/m 5,1 C 6,2 C 14,5 km/h (3 Bft) 100,00 %
29.01.2018 09:32 8,3 C 3,9 C 80 % 1031,2 hPa 0,0 l/m 9,7 km/h (2 Bft) W 278 0 min 0,000 mm 0,0 UV-I 132 W/m 5,1 C 5,9 C 16,1 km/h (3 Bft) 100,00 %
29.01.2018 09:34 8,3 C 3,9 C 80 % 1031,2 hPa 0,0 l/m 12,8 km/h (3 Bft) W-NW 286 2 min 0,000 mm 0,0 UV-I 146 W/m 5,1 C 4,1 C 19,3 km/h (3 Bft) 100,00 %
29.01.2018 09:36 8,3 C 3,9 C 80 % 1031,2 hPa 0,0 l/m 12,6 km/h (3 Bft) W 281 2 min 0,000 mm 0,0 UV-I 245 W/m 5,1 C 4,2 C 20,9 km/h (4 Bft) 100,00 %
29.01.2018 09:38 8,4 C 3,9 C 80 % 1031,1 hPa 0,0 l/m 13,7 km/h (3 Bft) W-SW 255 2 min 0,000 mm 0,0 UV-I 257 W/m 5,2 C 3,8 C 24,1 km/h (4 Bft) 100,00 %
29.01.2018 09:40 8,4 C 3,9 C 80 % 1031,1 hPa 0,0 l/m 16,1 km/h (3 Bft) W-SW 250 2 min 0,000 mm 0,0 UV-I 148 W/m 5,2 C 2,7 C 27,4 km/h (4 Bft) 100,00 %
29.01.2018 09:42 8,4 C 3,9 C 80 % 1031,1 hPa 0,0 l/m 15,7 km/h (3 Bft) W-SW 242 2 min 0,000 mm 0,0 UV-I 184 W/m 5,2 C 2,9 C 22,5 km/h (4 Bft) 95,92 %
29.01.2018 09:44 8,5 C 3,9 C 80 % 1031,1 hPa 0,0 l/m 14,3 km/h (3 Bft) W 262 2 min 0,000 mm 0,0 UV-I 221 W/m 5,3 C 3,6 C 20,9 km/h (4 Bft) 100,00 %
29.01.2018 09:46 8,6 C 3,9 C 80 % 1031,1 hPa 0,0 l/m 11,4 km/h (2 Bft) NW 313 2 min 0,000 mm 0,3 UV-I 251 W/m 5,3 C 5,2 C 20,9 km/h (4 Bft) 100,00 %
29.01.2018 09:48 8,6 C 3,9 C 79 % 1031,0 hPa 0,0 l/m 14,8 km/h (3 Bft) W 259 2 min 0,000 mm 0,5 UV-I 279 W/m 5,2 C 3,5 C 19,3 km/h (3 Bft) 100,00 %
29.01.2018 09:50 8,7 C 3,9 C 79 % 1031,0 hPa 0,0 l/m 14,2 km/h (3 Bft) W-SW 250 2 min 0,000 mm 0,5 UV-I 371 W/m 5,3 C 3,9 C 24,1 km/h (4 Bft) 98,11 %
29.01.2018 09:52 8,7 C 3,9 C 79 % 1030,9 hPa 0,0 l/m 17,0 km/h (3 Bft) W 261 2 min 0,000 mm 0,5 UV-I 369 W/m 5,3 C 2,7 C 24,1 km/h (4 Bft) 100,00 %
29.01.2018 09:54 8,8 C 3,9 C 79 % 1030,8 hPa 0,0 l/m 13,4 km/h (3 Bft) W-SW 248 2 min 0,000 mm 0,5 UV-I 378 W/m 5,4 C 4,4 C 20,9 km/h (4 Bft) 100,00 %
29.01.2018 09:56 8,9 C 3,9 C 79 % 1030,8 hPa 0,0 l/m 14,0 km/h (3 Bft) W 278 2 min 0,000 mm 0,5 UV-I 383 W/m 5,5 C 4,3 C 17,7 km/h (3 Bft) 100,00 %
29.01.2018 09:58 9,0 C 3,9 C 79 % 1030,8 hPa 0,0 l/m 16,9 km/h (3 Bft) W 262 2 min 0,000 mm 0,5 UV-I 395 W/m 5,6 C 3,1 C 22,5 km/h (4 Bft) 100,00 %
29.01.2018 10:00 9,1 C 3,9 C 78 % 1030,8 hPa 0,0 l/m 10,9 km/h (2 Bft) W 275 2 min 0,127 mm 0,5 UV-I 410 W/m 5,5 C 6,1 C 22,5 km/h (4 Bft) 100,00 %
29.01.2018 10:02 9,1 C 3,9 C 78 % 1030,7 hPa 0,0 l/m 12,9 km/h (3 Bft) W-SW 258 2 min 0,000 mm 0,5 UV-I 325 W/m 5,5 C 5,0 C 20,9 km/h (4 Bft) 98,00 %
29.01.2018 10:04 9,3 C 3,9 C 78 % 1030,8 hPa 0,0 l/m 12,5 km/h (3 Bft) W 265 2 min 0,000 mm 0,6 UV-I 390 W/m 5,7 C 5,5 C 19,3 km/h (3 Bft) 100,00 %
29.01.2018 10:06 9,3 C 3,9 C 78 % 1030,8 hPa 0,0 l/m 11,8 km/h (2 Bft) W-SW 248 2 min 0,000 mm 0,5 UV-I 202 W/m 5,7 C 5,8 C 20,9 km/h (4 Bft) 100,00 %
29.01.2018 10:08 9,3 C 3,9 C 78 % 1030,8 hPa 0,0 l/m 12,8 km/h (3 Bft) W 262 2 min 0,000 mm 0,5 UV-I 197 W/m 5,7 C 5,3 C 20,9 km/h (4 Bft) 100,00 %
29.01.2018 10:10 9,2 C 3,9 C 77 % 1030,7 hPa 0,0 l/m 16,6 km/h (3 Bft) W 262 2 min 0,000 mm 0,5 UV-I 197 W/m 5,4 C 3,5 C 22,5 km/h (4 Bft) 100,00 %
29.01.2018 10:12 9,1 C 3,9 C 78 % 1030,7 hPa 0,0 l/m 13,0 km/h (3 Bft) SW 236 2 min 0,000 mm 0,6 UV-I 187 W/m 5,5 C 5,0 C 24,1 km/h (4 Bft) 97,73 %
29.01.2018 10:14 9,1 C 3,9 C 78 % 1030,7 hPa 0,0 l/m 14,4 km/h (3 Bft) W-NW 290 0 min 0,000 mm 0,6 UV-I 165 W/m 5,5 C 4,3 C 20,9 km/h (4 Bft) 100,00 %
29.01.2018 10:16 9,1 C 3,9 C 78 % 1030,7 hPa 0,0 l/m 9,2 km/h (2 Bft) W 268 2 min 0,000 mm 0,6 UV-I 268 W/m 5,5 C 7,1 C 14,5 km/h (3 Bft) 100,00 %
29.01.2018 10:18 9,1 C 3,9 C 78 % 1030,7 hPa 0,0 l/m 12,8 km/h (3 Bft) W 278 2 min 0,000 mm 0,6 UV-I 340 W/m 5,5 C 5,1 C 19,3 km/h (3 Bft) 100,00 %
29.01.2018 10:20 9,1 C 3,9 C 78 % 1030,7 hPa 0,0 l/m 14,5 km/h (3 Bft) W 272 2 min 0,000 mm 0,6 UV-I 194 W/m 5,5 C 4,3 C 22,5 km/h (4 Bft) 100,00 %
29.01.2018 10:22 9,1 C 3,9 C 78 % 1030,7 hPa 0,0 l/m 12,2 km/h (2 Bft) W 277 2 min 0,000 mm 0,6 UV-I 199 W/m 5,5 C 5,4 C 19,3 km/h (3 Bft) 100,00 %
29.01.2018 10:24 9,1 C 3,9 C 78 % 1030,7 hPa 0,0 l/m 7,0 km/h (2 Bft) SW 234 0 min 0,000 mm 0,6 UV-I 178 W/m 5,5 C 8,7 C 19,3 km/h (3 Bft) 100,00 %
29.01.2018 10:26 9,1 C 3,9 C 78 % 1030,6 hPa 0,0 l/m 7,6 km/h (2 Bft) W-NW 288 0 min 0,000 mm 0,6 UV-I 153 W/m 5,5 C 8,2 C 19,3 km/h (3 Bft) 97,37 %
29.01.2018 10:28 8,9 C 3,9 C 78 % 1030,6 hPa 0,0 l/m 11,7 km/h (2 Bft) W 260 0 min 0,000 mm 0,6 UV-I 161 W/m 5,3 C 5,4 C 19,3 km/h (3 Bft) 98,00 %
29.01.2018 10:30 8,9 C 3,9 C 78 % 1030,6 hPa 0,0 l/m 9,7 km/h (2 Bft) W-SW 246 2 min 0,000 mm 0,6 UV-I 190 W/m 5,3 C 6,6 C 16,1 km/h (3 Bft) 96,00 %
29.01.2018 10:32 8,9 C 3,9 C 78 % 1030,6 hPa 0,0 l/m 11,1 km/h (2 Bft) W-SW 247 2 min 0,000 mm 0,7 UV-I 219 W/m 5,3 C 5,7 C 20,9 km/h (4 Bft) 95,12 %
29.01.2018 10:34 9,0 C 3,9 C 78 % 1030,6 hPa 0,0 l/m 10,1 km/h (2 Bft) W 269 0 min 0,000 mm 0,7 UV-I 181 W/m 5,4 C 6,4 C 16,1 km/h (3 Bft) 96,23 %
29.01.2018 10:36 9,0 C 3,9 C 78 % 1030,6 hPa 0,0 l/m 8,3 km/h (2 Bft) W-SW 254 2 min 0,000 mm 0,8 UV-I 205 W/m 5,4 C 7,6 C 12,9 km/h (3 Bft) 97,56 %
29.01.2018 10:38 9,1 C 3,9 C 78 % 1030,6 hPa 0,0 l/m 13,6 km/h (3 Bft) W 262 0 min 0,000 mm 0,7 UV-I 167 W/m 5,5 C 4,7 C 19,3 km/h (3 Bft) 98,21 %
29.01.2018 10:40 9,2 C 3,9 C 78 % 1030,6 hPa 0,0 l/m 10,6 km/h (2 Bft) W 262 0 min 0,000 mm 0,7 UV-I 187 W/m 5,6 C 6,4 C 19,3 km/h (3 Bft) 97,87 %
29.01.2018 10:42 9,2 C 3,9 C 78 % 1030,6 hPa 0,0 l/m 8,9 km/h (2 Bft) W-NW 291 2 min 0,000 mm 0,8 UV-I 288 W/m 5,6 C 7,4 C 16,1 km/h (3 Bft) 98,00 %
29.01.2018 10:44 9,3 C 3,9 C 78 % 1030,6 hPa 0,0 l/m 11,9 km/h (2 Bft) SW 236 2 min 0,000 mm 0,7 UV-I 261 W/m 5,7 C 5,8 C 17,7 km/h (3 Bft) 97,73 %
29.01.2018 10:46 9,2 C 3,9 C 77 % 1030,6 hPa 0,0 l/m 11,0 km/h (2 Bft) W-SW 248 0 min 0,000 mm 0,7 UV-I 190 W/m 5,4 C 6,1 C 17,7 km/h (3 Bft) 97,87 %
29.01.2018 10:48 9,3 C 3,9 C 78 % 1030,6 hPa 0,0 l/m 6,5 km/h (2 Bft) W-NW 297 2 min 0,000 mm 0,8 UV-I 210 W/m 5,7 C 9,3 C 11,3 km/h (2 Bft) 96,00 %
29.01.2018 10:50 9,3 C 3,9 C 78 % 1030,6 hPa 0,0 l/m 5,6 km/h (1 Bft) W-SW 244 2 min 0,000 mm 0,7 UV-I 211 W/m 5,7 C 9,3 C 11,3 km/h (2 Bft) 97,73 %
29.01.2018 10:52 9,3 C 4,4 C 77 % 1030,5 hPa 0,0 l/m 7,5 km/h (2 Bft) W 261 0 min 0,000 mm 0,8 UV-I 203 W/m 5,5 C 8,5 C 14,5 km/h (3 Bft) 97,37 %
29.01.2018 10:54 9,2 C 3,9 C 77 % 1030,6 hPa 0,0 l/m 9,2 km/h (2 Bft) W 273 2 min 0,000 mm 0,9 UV-I 276 W/m 5,4 C 7,2 C 20,9 km/h (4 Bft) 98,11 %
29.01.2018 10:56 9,3 C 3,9 C 78 % 1030,6 hPa 0,0 l/m 5,0 km/h (1 Bft) NW 309 2 min 0,000 mm 0,8 UV-I 250 W/m 5,7 C 9,3 C 12,9 km/h (3 Bft) 100,00 %
29.01.2018 10:58 9,2 C 3,9 C 78 % 1030,6 hPa 0,0 l/m 5,7 km/h (1 Bft) W 277 2 min 0,000 mm 0,8 UV-I 245 W/m 5,6 C 9,2 C 11,3 km/h (2 Bft) 100,00 %
29.01.2018 11:00 9,2 C 3,9 C 79 % 1030,6 hPa 0,0 l/m 4,9 km/h (1 Bft) W 264 0 min 0,127 mm 0,8 UV-I 141 W/m 5,8 C 9,2 C 9,7 km/h (2 Bft) 97,87 %
29.01.2018 11:02 9,0 C 3,9 C 78 % 1030,6 hPa 0,0 l/m 4,5 km/h (1 Bft) W-NW 294 0 min 0,000 mm 0,8 UV-I 174 W/m 5,4 C 9,0 C 8,0 km/h (2 Bft) 100,00 %
29.01.2018 11:04 8,9 C 4,4 C 79 % 1030,5 hPa 0,0 l/m 6,2 km/h (2 Bft) W 260 2 min 0,000 mm 0,9 UV-I 240 W/m 5,5 C 8,9 C 14,5 km/h (3 Bft) 100,00 %
29.01.2018 11:06 8,9 C 4,4 C 79 % 1030,5 hPa 0,0 l/m 6,8 km/h (2 Bft) NW 305 2 min 0,000 mm 0,9 UV-I 356 W/m 5,5 C 8,6 C 11,3 km/h (2 Bft) 97,56 %
29.01.2018 11:08 9,1 C 3,9 C 79 % 1030,5 hPa 0,0 l/m 5,6 km/h (1 Bft) W 270 2 min 0,000 mm 1,0 UV-I 455 W/m 5,7 C 9,1 C 11,3 km/h (2 Bft) 100,00 %
29.01.2018 11:10 9,3 C 3,9 C 79 % 1030,4 hPa 0,0 l/m 7,6 km/h (2 Bft) W-NW 286 2 min 0,000 mm 1,0 UV-I 415 W/m 5,8 C 8,4 C 14,5 km/h (3 Bft) 100,00 %
29.01.2018 11:12 9,3 C 3,9 C 78 % 1030,4 hPa 0,0 l/m 8,1 km/h (2 Bft) W 262 2 min 0,000 mm 1,0 UV-I 417 W/m 5,7 C 8,0 C 16,1 km/h (3 Bft) 100,00 %
29.01.2018 11:14 9,4 C 3,9 C 78 % 1030,3 hPa 0,0 l/m 7,7 km/h (2 Bft) W-SW 257 2 min 0,000 mm 1,0 UV-I 408 W/m 5,8 C 8,4 C 14,5 km/h (3 Bft) 100,00 %
29.01.2018 11:16 9,6 C 4,4 C 78 % 1030,3 hPa 0,0 l/m 7,6 km/h (2 Bft) W 265 2 min 0,000 mm 1,0 UV-I 412 W/m 6,0 C 8,7 C 14,5 km/h (3 Bft) 100,00 %
29.01.2018 11:18 9,7 C 4,4 C 77 % 1030,3 hPa 0,0 l/m 8,8 km/h (2 Bft) W-SW 253 2 min 0,000 mm 1,0 UV-I 413 W/m 5,9 C 8,0 C 14,5 km/h (3 Bft) 100,00 %
29.01.2018 11:20 9,8 C 4,4 C 76 % 1030,2 hPa 0,0 l/m 6,5 km/h (2 Bft) W-SW 249 2 min 0,000 mm 1,0 UV-I 405 W/m 5,8 C 9,8 C 12,9 km/h (3 Bft) 100,00 %
29.01.2018 11:22 9,8 C 4,4 C 76 % 1030,2 hPa 0,0 l/m 7,0 km/h (2 Bft) W-SW 237 2 min 0,000 mm 1,0 UV-I 403 W/m 5,8 C 9,4 C 12,9 km/h (3 Bft) 100,00 %
29.01.2018 11:24 9,9 C 3,9 C 77 % 1030,1 hPa 0,0 l/m 7,0 km/h (2 Bft) W-NW 284 2 min 0,000 mm 1,0 UV-I 403 W/m 6,1 C 9,5 C 20,9 km/h (4 Bft) 100,00 %
29.01.2018 11:26 10,0 C 3,9 C 76 % 1030,1 hPa 0,0 l/m 7,1 km/h (2 Bft) W-SW 254 2 min 0,000 mm 1,0 UV-I 403 W/m 6,0 C 9,5 C 12,9 km/h (3 Bft) 100,00 %
29.01.2018 11:28 10,0 C 4,4 C 76 % 1030,0 hPa 0,0 l/m 7,1 km/h (2 Bft) W-NW 294 2 min 0,000 mm 1,0 UV-I 404 W/m 6,0 C 9,5 C 16,1 km/h (3 Bft) 100,00 %
29.01.2018 11:30 10,0 C 4,4 C 75 % 1029,9 hPa 0,0 l/m 8,0 km/h (2 Bft) NW 309 2 min 0,000 mm 1,0 UV-I 406 W/m 5,8 C 8,9 C 14,5 km/h (3 Bft) 100,00 %
29.01.2018 11:32 10,0 C 4,4 C 76 % 1029,9 hPa 0,0 l/m 7,4 km/h (2 Bft) W-NW 298 2 min 0,000 mm 1,0 UV-I 406 W/m 6,0 C 9,3 C 14,5 km/h (3 Bft) 100,00 %
29.01.2018 11:34 10,1 C 3,9 C 76 % 1029,8 hPa 0,0 l/m 6,1 km/h (2 Bft) W 273 2 min 0,000 mm 1,0 UV-I 408 W/m 6,1 C 10,1 C 14,5 km/h (3 Bft) 100,00 %
29.01.2018 11:36 10,2 C 3,9 C 75 % 1029,9 hPa 0,0 l/m 5,9 km/h (2 Bft) W 277 2 min 0,000 mm 1,1 UV-I 409 W/m 6,0 C 10,2 C 11,3 km/h (2 Bft) 100,00 %
29.01.2018 11:38 10,3 C 4,4 C 75 % 1029,8 hPa 0,0 l/m 7,7 km/h (2 Bft) SW 231 2 min 0,000 mm 1,1 UV-I 410 W/m 6,1 C 9,4 C 14,5 km/h (3 Bft) 98,00 %
29.01.2018 11:40 10,3 C 4,4 C 75 % 1029,8 hPa 0,0 l/m 3,0 km/h (1 Bft) W-SW 257 2 min 0,000 mm 1,1 UV-I 410 W/m 6,1 C 10,3 C 8,0 km/h (2 Bft) 100,00 %
29.01.2018 11:42 10,2 C 4,4 C 75 % 1029,8 hPa 0,0 l/m 7,2 km/h (2 Bft) W-NW 294 2 min 0,000 mm 1,1 UV-I 411 W/m 6,0 C 9,6 C 12,9 km/h (3 Bft) 100,00 %
29.01.2018 11:44 10,2 C 4,4 C 74 % 1029,7 hPa 0,0 l/m 6,1 km/h (2 Bft) W-SW 237 2 min 0,000 mm 1,1 UV-I 411 W/m 5,8 C 10,2 C 11,3 km/h (2 Bft) 100,00 %
29.01.2018 11:46 10,3 C 4,4 C 75 % 1029,7 hPa 0,0 l/m 7,7 km/h (2 Bft) NW 306 2 min 0,000 mm 1,1 UV-I 414 W/m 6,1 C 9,4 C 16,1 km/h (3 Bft) 100,00 %
29.01.2018 11:48 10,2 C 4,4 C 74 % 1029,6 hPa 0,0 l/m 8,9 km/h (2 Bft) W 277 2 min 0,000 mm 1,1 UV-I 414 W/m 5,8 C 8,5 C 16,1 km/h (3 Bft) 100,00 %
29.01.2018 11:50 10,2 C 4,4 C 75 % 1029,6 hPa 0,0 l/m 7,3 km/h (2 Bft) W 261 2 min 0,000 mm 1,1 UV-I 414 W/m 6,0 C 9,6 C 12,9 km/h (3 Bft) 98,53 %
29.01.2018 11:52 10,2 C 4,4 C 75 % 1029,6 hPa 0,0 l/m 5,7 km/h (1 Bft) W-NW 290 2 min 0,000 mm 1,1 UV-I 415 W/m 6,0 C 10,2 C 11,3 km/h (2 Bft) 100,00 %
29.01.2018 11:54 10,3 C 4,4 C 74 % 1029,5 hPa 0,0 l/m 6,5 km/h (2 Bft) NW 304 2 min 0,000 mm 1,1 UV-I 416 W/m 5,9 C 10,3 C 12,9 km/h (3 Bft) 98,11 %
29.01.2018 11:56 10,3 C 4,4 C 74 % 1029,5 hPa 0,0 l/m 4,3 km/h (1 Bft) W-SW 242 2 min 0,000 mm 1,1 UV-I 417 W/m 5,9 C 10,3 C 9,7 km/h (2 Bft) 98,00 %
29.01.2018 11:58 10,3 C 4,4 C 75 % 1029,5 hPa 0,0 l/m 4,4 km/h (1 Bft) W-SW 242 2 min 0,000 mm 1,1 UV-I 417 W/m 6,1 C 10,3 C 8,0 km/h (2 Bft) 100,00 %
29.01.2018 12:00 10,4 C 4,4 C 75 % 1029,5 hPa 0,0 l/m 4,8 km/h (1 Bft) NW 307 2 min 0,203 mm 1,1 UV-I 418 W/m 6,2 C 10,4 C 9,7 km/h (2 Bft) 98,11 %
29.01.2018 12:02 10,4 C 4,4 C 74 % 1029,4 hPa 0,0 l/m 4,1 km/h (1 Bft) O-NO 63 2 min 0,000 mm 1,1 UV-I 417 W/m 6,0 C 10,4 C 6,4 km/h (2 Bft) 92,11 %
29.01.2018 12:04 10,4 C 4,4 C 74 % 1029,3 hPa 0,0 l/m 6,3 km/h (2 Bft) W-NW 291 2 min 0,000 mm 1,1 UV-I 418 W/m 6,0 C 10,4 C 12,9 km/h (3 Bft) 96,23 %
29.01.2018 12:06 10,4 C 4,4 C 74 % 1029,3 hPa 0,0 l/m 6,7 km/h (2 Bft) W 265 2 min 0,000 mm 1,1 UV-I 418 W/m 6,0 C 10,2 C 14,5 km/h (3 Bft) 97,87 %
29.01.2018 12:08 10,4 C 4,4 C 73 % 1029,3 hPa 0,0 l/m 4,7 km/h (1 Bft) NW 306 2 min 0,000 mm 1,1 UV-I 417 W/m 5,8 C 10,4 C 11,3 km/h (2 Bft) 95,12 %
29.01.2018 12:10 10,4 C 4,4 C 74 % 1029,3 hPa 0,0 l/m 4,4 km/h (1 Bft) NW 313 2 min 0,000 mm 1,1 UV-I 418 W/m 6,0 C 10,4 C 16,1 km/h (3 Bft) 98,11 %
29.01.2018 12:12 10,5 C 4,4 C 76 % 1029,2 hPa 0,0 l/m 3,4 km/h (1 Bft) NW 313 2 min 0,000 mm 1,1 UV-I 418 W/m 6,5 C 10,5 C 6,4 km/h (2 Bft) 97,56 %
29.01.2018 12:14 10,6 C 4,4 C 76 % 1029,2 hPa 0,0 l/m 4,7 km/h (1 Bft) W-NW 298 2 min 0,000 mm 1,1 UV-I 418 W/m 6,5 C 10,6 C 14,5 km/h (3 Bft) 96,23 %
29.01.2018 12:16 10,5 C 4,4 C 75 % 1029,2 hPa 0,0 l/m 6,8 km/h (2 Bft) W 281 2 min 0,000 mm 1,1 UV-I 417 W/m 6,3 C 10,2 C 12,9 km/h (3 Bft) 100,00 %
29.01.2018 12:18 10,4 C 4,4 C 75 % 1029,1 hPa 0,0 l/m 5,2 km/h (1 Bft) N-NW 331 2 min 0,000 mm 1,1 UV-I 417 W/m 6,2 C 10,4 C 8,0 km/h (2 Bft) 94,34 %
29.01.2018 12:20 10,6 C 4,4 C 76 % 1029,2 hPa 0,0 l/m 3,5 km/h (1 Bft) NW 314 2 min 0,000 mm 1,1 UV-I 417 W/m 6,5 C 10,6 C 9,7 km/h (2 Bft) 97,87 %
29.01.2018 12:22 10,6 C 4,4 C 77 % 1029,1 hPa 0,0 l/m 2,6 km/h (1 Bft) W-NW 296 2 min 0,000 mm 1,1 UV-I 417 W/m 6,7 C 10,6 C 8,0 km/h (2 Bft) 98,11 %
29.01.2018 12:24 10,6 C 4,4 C 75 % 1029,1 hPa 0,0 l/m 5,2 km/h (1 Bft) W 281 2 min 0,000 mm 1,1 UV-I 417 W/m 6,4 C 10,6 C 12,9 km/h (3 Bft) 97,56 %
29.01.2018 12:26 10,5 C 4,4 C 75 % 1029,0 hPa 0,0 l/m 7,4 km/h (2 Bft) W-NW 296 2 min 0,000 mm 1,1 UV-I 417 W/m 6,3 C 9,8 C 14,5 km/h (3 Bft) 100,00 %
29.01.2018 12:28 10,4 C 4,4 C 75 % 1029,1 hPa 0,0 l/m 5,3 km/h (1 Bft) N-NW 328 2 min 0,000 mm 1,1 UV-I 415 W/m 6,2 C 10,4 C 12,9 km/h (3 Bft) 100,00 %
29.01.2018 12:30 10,4 C 4,4 C 76 % 1028,9 hPa 0,0 l/m 2,9 km/h (1 Bft) NW 309 2 min 0,000 mm 1,1 UV-I 415 W/m 6,4 C 10,4 C 8,0 km/h (2 Bft) 97,87 %
29.01.2018 12:32 10,5 C 4,4 C 76 % 1028,9 hPa 0,0 l/m 4,4 km/h (1 Bft) W-SW 247 2 min 0,000 mm 1,1 UV-I 414 W/m 6,5 C 10,5 C 8,0 km/h (2 Bft) 100,00 %
29.01.2018 12:34 10,5 C 4,4 C 76 % 1028,8 hPa 0,0 l/m 5,6 km/h (1 Bft) W-NW 297 2 min 0,000 mm 1,1 UV-I 414 W/m 6,5 C 10,5 C 11,3 km/h (2 Bft) 97,56 %
29.01.2018 12:36 10,4 C 4,4 C 76 % 1028,7 hPa 0,0 l/m 3,5 km/h (1 Bft) W-NW 302 2 min 0,000 mm 1,1 UV-I 412 W/m 6,4 C 10,4 C 9,7 km/h (2 Bft) 100,00 %
29.01.2018 12:38 10,4 C 4,4 C 76 % 1028,6 hPa 0,0 l/m 4,8 km/h (1 Bft) W-NW 298 2 min 0,000 mm 1,1 UV-I 411 W/m 6,4 C 10,4 C 9,7 km/h (2 Bft) 100,00 %
29.01.2018 12:40 10,5 C 4,4 C 76 % 1028,6 hPa 0,0 l/m 4,7 km/h (1 Bft) NW 306 2 min 0,000 mm 1,1 UV-I 411 W/m 6,5 C 10,5 C 11,3 km/h (2 Bft) 97,37 %
29.01.2018 12:42 10,4 C 4,4 C 75 % 1028,6 hPa 0,0 l/m 8,4 km/h (2 Bft) N-NW 328 2 min 0,000 mm 1,1 UV-I 410 W/m 6,2 C 9,0 C 16,1 km/h (3 Bft) 98,00 %
29.01.2018 12:44 10,4 C 4,4 C 75 % 1028,6 hPa 0,0 l/m 4,7 km/h (1 Bft) W-NW 284 2 min 0,000 mm 1,1 UV-I 411 W/m 6,2 C 10,4 C 9,7 km/h (2 Bft) 100,00 %
29.01.2018 12:46 10,6 C 4,4 C 75 % 1028,5 hPa 0,0 l/m 4,5 km/h (1 Bft) W-NW 293 2 min 0,000 mm 1,1 UV-I 411 W/m 6,4 C 10,6 C 12,9 km/h (3 Bft) 98,11 %
29.01.2018 12:48 10,6 C 4,4 C 76 % 1028,5 hPa 0,0 l/m 5,3 km/h (1 Bft) W-NW 302 2 min 0,000 mm 1,1 UV-I 408 W/m 6,5 C 10,6 C 12,9 km/h (3 Bft) 100,00 %
29.01.2018 12:50 10,6 C 4,4 C 76 % 1028,4 hPa 0,0 l/m 6,0 km/h (2 Bft) N-NW 338 2 min 0,000 mm 1,1 UV-I 406 W/m 6,5 C 10,6 C 12,9 km/h (3 Bft) 100,00 %
29.01.2018 12:52 10,6 C 4,4 C 75 % 1028,4 hPa 0,0 l/m 5,7 km/h (1 Bft) NW 313 2 min 0,000 mm 1,1 UV-I 406 W/m 6,4 C 10,6 C 12,9 km/h (3 Bft) 100,00 %
29.01.2018 12:54 10,8 C 4,4 C 77 % 1028,3 hPa 0,0 l/m 3,0 km/h (1 Bft) W 273 2 min 0,000 mm 1,1 UV-I 404 W/m 6,9 C 10,8 C 8,0 km/h (2 Bft) 100,00 %
29.01.2018 12:56 10,8 C 4,4 C 75 % 1028,3 hPa 0,0 l/m 3,9 km/h (1 Bft) W-NW 301 2 min 0,000 mm 1,1 UV-I 403 W/m 6,5 C 10,8 C 9,7 km/h (2 Bft) 100,00 %
29.01.2018 12:58 10,7 C 4,4 C 77 % 1028,3 hPa 0,0 l/m 4,5 km/h (1 Bft) S-SW 211 2 min 0,000 mm 1,1 UV-I 402 W/m 6,8 C 10,7 C 16,1 km/h (3 Bft) 100,00 %
29.01.2018 13:00 10,7 C 4,4 C 76 % 1028,3 hPa 0,0 l/m 6,2 km/h (2 Bft) N-NW 340 2 min 0,203 mm 1,0 UV-I 401 W/m 6,6 C 10,7 C 16,1 km/h (3 Bft) 97,56 %
29.01.2018 13:02 10,6 C 4,4 C 75 % 1028,2 hPa 0,0 l/m 3,2 km/h (1 Bft) NW 306 2 min 0,000 mm 1,0 UV-I 400 W/m 6,4 C 10,6 C 6,4 km/h (2 Bft) 98,00 %
29.01.2018 13:04 10,6 C 4,4 C 76 % 1028,2 hPa 0,0 l/m 4,8 km/h (1 Bft) W 264 2 min 0,000 mm 1,0 UV-I 398 W/m 6,5 C 10,6 C 6,4 km/h (2 Bft) 100,00 %
29.01.2018 13:06 10,7 C 4,4 C 75 % 1028,2 hPa 0,0 l/m 4,4 km/h (1 Bft) W 272 2 min 0,000 mm 1,0 UV-I 397 W/m 6,5 C 10,7 C 9,7 km/h (2 Bft) 100,00 %
29.01.2018 13:08 10,7 C 4,4 C 76 % 1028,1 hPa 0,0 l/m 4,4 km/h (1 Bft) W-NW 290 2 min 0,000 mm 1,0 UV-I 394 W/m 6,6 C 10,7 C 9,7 km/h (2 Bft) 100,00 %
29.01.2018 13:10 10,8 C 4,4 C 76 % 1028,1 hPa 0,0 l/m 4,7 km/h (1 Bft) W 278 2 min 0,000 mm 1,0 UV-I 393 W/m 6,7 C 10,8 C 12,9 km/h (3 Bft) 100,00 %
29.01.2018 13:12 10,8 C 4,4 C 73 % 1028,1 hPa 0,0 l/m 5,2 km/h (1 Bft) W 275 2 min 0,000 mm 1,0 UV-I 392 W/m 6,2 C 10,8 C 12,9 km/h (3 Bft) 100,00 %
29.01.2018 13:14 10,8 C 4,4 C 76 % 1028,1 hPa 0,0 l/m 2,0 km/h (1 Bft) N-NW 333 2 min 0,000 mm 1,0 UV-I 389 W/m 6,7 C 10,8 C 4,8 km/h (1 Bft) 100,00 %
29.01.2018 13:16 10,9 C 4,4 C 76 % 1028,1 hPa 0,0 l/m 3,9 km/h (1 Bft) N-NW 343 2 min 0,000 mm 1,0 UV-I 387 W/m 6,8 C 10,9 C 9,7 km/h (2 Bft) 98,11 %
29.01.2018 13:18 10,8 C 4,4 C 73 % 1028,0 hPa 0,0 l/m 5,0 km/h (1 Bft) W 265 2 min 0,000 mm 1,0 UV-I 386 W/m 6,2 C 10,8 C 12,9 km/h (3 Bft) 100,00 %
29.01.2018 13:20 10,8 C 4,4 C 74 % 1028,0 hPa 0,0 l/m 3,4 km/h (1 Bft) NW 308 2 min 0,000 mm 1,0 UV-I 384 W/m 6,4 C 10,8 C 8,0 km/h (2 Bft) 100,00 %
29.01.2018 13:22 10,9 C 4,4 C 75 % 1028,0 hPa 0,0 l/m 4,6 km/h (1 Bft) N-NW 334 2 min 0,000 mm 1,0 UV-I 381 W/m 6,6 C 10,9 C 19,3 km/h (3 Bft) 100,00 %
29.01.2018 13:24 10,8 C 4,4 C 74 % 1027,9 hPa 0,0 l/m 8,3 km/h (2 Bft) W-SW 243 2 min 0,000 mm 1,0 UV-I 381 W/m 6,4 C 9,5 C 17,7 km/h (3 Bft) 98,11 %
29.01.2018 13:26 10,9 C 4,4 C 73 % 1027,9 hPa 0,0 l/m 7,3 km/h (2 Bft) W 264 2 min 0,000 mm 1,0 UV-I 379 W/m 6,3 C 10,3 C 16,1 km/h (3 Bft) 98,00 %
29.01.2018 13:28 10,8 C 4,4 C 72 % 1027,7 hPa 0,0 l/m 6,1 km/h (2 Bft) W-NW 290 2 min 0,000 mm 0,9 UV-I 376 W/m 6,0 C 10,8 C 16,1 km/h (3 Bft) 100,00 %
29.01.2018 13:30 10,8 C 4,4 C 72 % 1027,8 hPa 0,0 l/m 6,0 km/h (2 Bft) W-NW 296 2 min 0,000 mm 0,9 UV-I 372 W/m 6,0 C 10,8 C 11,3 km/h (2 Bft) 100,00 %
29.01.2018 13:32 10,8 C 4,4 C 72 % 1027,6 hPa 0,0 l/m 7,3 km/h (2 Bft) W-SW 238 2 min 0,000 mm 0,9 UV-I 373 W/m 6,0 C 10,2 C 12,9 km/h (3 Bft) 100,00 %
29.01.2018 13:34 10,8 C 4,4 C 72 % 1027,6 hPa 0,0 l/m 6,0 km/h (2 Bft) W-SW 252 2 min 0,000 mm 0,9 UV-I 371 W/m 6,0 C 10,8 C 16,1 km/h (3 Bft) 98,08 %
29.01.2018 13:36 11,0 C 4,4 C 72 % 1027,6 hPa 0,0 l/m 5,2 km/h (1 Bft) W 273 2 min 0,000 mm 0,9 UV-I 368 W/m 6,2 C 11,0 C 12,9 km/h (3 Bft) 97,78 %
29.01.2018 13:38 11,1 C 4,4 C 72 % 1027,5 hPa 0,0 l/m 6,0 km/h (2 Bft) W-SW 238 2 min 0,000 mm 0,9 UV-I 366 W/m 6,2 C 11,1 C 14,5 km/h (3 Bft) 96,00 %
29.01.2018 13:40 11,1 C 4,4 C 72 % 1027,5 hPa 0,0 l/m 12,0 km/h (2 Bft) W-SW 257 2 min 0,000 mm 0,9 UV-I 365 W/m 6,2 C 7,8 C 19,3 km/h (3 Bft) 95,74 %
29.01.2018 13:42 11,0 C 4,4 C 72 % 1027,5 hPa 0,0 l/m 4,2 km/h (1 Bft) NW 305 2 min 0,000 mm 0,9 UV-I 363 W/m 6,2 C 11,0 C 12,9 km/h (3 Bft) 95,74 %
29.01.2018 13:44 11,1 C 4,4 C 73 % 1027,5 hPa 0,0 l/m 4,5 km/h (1 Bft) W-NW 303 2 min 0,000 mm 0,9 UV-I 360 W/m 6,4 C 11,1 C 9,7 km/h (2 Bft) 95,45 %
29.01.2018 13:46 11,2 C 4,4 C 75 % 1027,4 hPa 0,0 l/m 3,8 km/h (1 Bft) W-NW 298 2 min 0,000 mm 0,8 UV-I 358 W/m 6,9 C 11,2 C 11,3 km/h (2 Bft) 98,00 %
29.01.2018 13:48 11,2 C 4,4 C 74 % 1027,5 hPa 0,0 l/m 2,2 km/h (1 Bft) N-NW 342 2 min 0,000 mm 0,8 UV-I 355 W/m 6,7 C 11,2 C 9,7 km/h (2 Bft) 97,37 %
29.01.2018 13:50 11,2 C 4,4 C 74 % 1027,5 hPa 0,0 l/m 4,0 km/h (1 Bft) NW 313 2 min 0,000 mm 0,8 UV-I 352 W/m 6,7 C 11,2 C 6,4 km/h (2 Bft) 98,11 %
29.01.2018 13:52 11,2 C 4,4 C 74 % 1027,5 hPa 0,0 l/m 1,2 km/h (1 Bft) W-NW 283 2 min 0,000 mm 0,8 UV-I 350 W/m 6,7 C 11,2 C 4,8 km/h (1 Bft) 97,87 %
29.01.2018 13:54 11,2 C 4,4 C 74 % 1027,4 hPa 0,0 l/m 3,4 km/h (1 Bft) NW 304 2 min 0,000 mm 0,8 UV-I 346 W/m 6,7 C 11,2 C 11,3 km/h (2 Bft) 98,00 %
29.01.2018 13:56 11,1 C 4,4 C 73 % 1027,3 hPa 0,0 l/m 3,8 km/h (1 Bft) W 269 2 min 0,000 mm 0,8 UV-I 345 W/m 6,4 C 11,1 C 6,4 km/h (2 Bft) 94,74 %
29.01.2018 13:58 11,1 C 4,4 C 74 % 1027,3 hPa 0,0 l/m 4,7 km/h (1 Bft) W-NW 296 2 min 0,000 mm 0,8 UV-I 341 W/m 6,6 C 11,1 C 9,7 km/h (2 Bft) 97,87 %
29.01.2018 14:00 11,1 C 4,4 C 72 % 1027,3 hPa 0,0 l/m 7,9 km/h (2 Bft) W-SW 255 2 min 0,178 mm 0,8 UV-I 339 W/m 6,2 C 10,1 C 16,1 km/h (3 Bft) 100,00 %
29.01.2018 14:02 11,2 C 4,4 C 73 % 1027,2 hPa 0,0 l/m 4,6 km/h (1 Bft) W 265 2 min 0,000 mm 0,8 UV-I 336 W/m 6,5 C 11,2 C 12,9 km/h (3 Bft) 100,00 %
29.01.2018 14:04 11,2 C 4,4 C 72 % 1027,2 hPa 0,0 l/m 5,3 km/h (1 Bft) W-NW 284 2 min 0,000 mm 0,7 UV-I 332 W/m 6,3 C 11,2 C 11,3 km/h (2 Bft) 100,00 %
29.01.2018 14:06 11,1 C 4,4 C 72 % 1027,2 hPa 0,0 l/m 6,9 km/h (2 Bft) NW 311 2 min 0,000 mm 0,7 UV-I 322 W/m 6,2 C 10,8 C 16,1 km/h (3 Bft) 96,23 %
29.01.2018 14:08 11,1 C 4,4 C 72 % 1027,2 hPa 0,0 l/m 3,6 km/h (1 Bft) N-NO 13 2 min 0,000 mm 0,7 UV-I 319 W/m 6,2 C 11,1 C 6,4 km/h (2 Bft) 100,00 %
29.01.2018 14:10 11,1 C 4,4 C 75 % 1027,2 hPa 0,0 l/m 2,0 km/h (1 Bft) NW 304 2 min 0,000 mm 0,7 UV-I 320 W/m 6,8 C 11,1 C 6,4 km/h (2 Bft) 100,00 %
29.01.2018 14:12 11,1 C 4,4 C 73 % 1027,1 hPa 0,0 l/m 4,9 km/h (1 Bft) NW 310 2 min 0,000 mm 0,7 UV-I 317 W/m 6,4 C 11,1 C 11,3 km/h (2 Bft) 100,00 %
29.01.2018 14:14 11,1 C 4,4 C 75 % 1027,1 hPa 0,0 l/m 5,3 km/h (1 Bft) W-NW 298 2 min 0,000 mm 0,7 UV-I 312 W/m 6,8 C 11,1 C 11,3 km/h (2 Bft) 97,14 %
29.01.2018 14:16 10,8 C 4,4 C 73 % 1027,1 hPa 0,0 l/m 6,6 km/h (2 Bft) NW 316 2 min 0,000 mm 0,7 UV-I 308 W/m 6,2 C 10,7 C 14,5 km/h (3 Bft) 98,11 %
29.01.2018 14:18 10,8 C 4,4 C 77 % 1027,0 hPa 0,0 l/m 2,2 km/h (1 Bft) W-NW 302 2 min 0,000 mm 0,7 UV-I 306 W/m 6,9 C 10,8 C 4,8 km/h (1 Bft) 100,00 %
29.01.2018 14:20 10,9 C 4,4 C 76 % 1027,0 hPa 0,0 l/m 6,2 km/h (2 Bft) W 267 2 min 0,000 mm 0,6 UV-I 303 W/m 6,8 C 10,9 C 12,9 km/h (3 Bft) 98,21 %
29.01.2018 14:22 10,8 C 4,4 C 74 % 1026,9 hPa 0,0 l/m 5,9 km/h (2 Bft) W-NW 296 2 min 0,000 mm 0,6 UV-I 299 W/m 6,4 C 10,8 C 11,3 km/h (2 Bft) 98,00 %
29.01.2018 14:24 10,7 C 4,4 C 75 % 1026,9 hPa 0,0 l/m 3,0 km/h (1 Bft) W 274 2 min 0,000 mm 0,6 UV-I 296 W/m 6,5 C 10,7 C 4,8 km/h (1 Bft) 100,00 %
29.01.2018 14:26 10,8 C 4,4 C 76 % 1026,9 hPa 0,0 l/m 3,6 km/h (1 Bft) NW 306 2 min 0,000 mm 0,6 UV-I 293 W/m 6,7 C 10,8 C 6,4 km/h (2 Bft) 98,11 %
29.01.2018 14:28 10,7 C 4,4 C 75 % 1026,9 hPa 0,0 l/m 5,2 km/h (1 Bft) W 266 2 min 0,000 mm 0,6 UV-I 289 W/m 6,5 C 10,7 C 11,3 km/h (2 Bft) 96,00 %
29.01.2018 14:30 10,6 C 4,4 C 75 % 1026,8 hPa 0,0 l/m 4,8 km/h (1 Bft) W 272 2 min 0,000 mm 0,6 UV-I 286 W/m 6,4 C 10,6 C 11,3 km/h (2 Bft) 100,00 %
29.01.2018 14:32 10,7 C 4,4 C 77 % 1026,8 hPa 0,0 l/m 1,9 km/h (1 Bft) W-SW 250 2 min 0,000 mm 0,6 UV-I 281 W/m 6,8 C 10,7 C 6,4 km/h (2 Bft) 100,00 %
29.01.2018 14:34 10,7 C 4,4 C 78 % 1026,7 hPa 0,0 l/m 2,4 km/h (1 Bft) W-NW 293 2 min 0,000 mm 0,6 UV-I 278 W/m 7,0 C 10,7 C 4,8 km/h (1 Bft) 100,00 %
29.01.2018 14:36 10,6 C 4,4 C 78 % 1026,7 hPa 0,0 l/m 3,2 km/h (1 Bft) NW 311 2 min 0,000 mm 0,5 UV-I 274 W/m 6,9 C 10,6 C 6,4 km/h (2 Bft) 98,11 %
29.01.2018 14:38 10,6 C 4,4 C 76 % 1026,7 hPa 0,0 l/m 3,7 km/h (1 Bft) NW 315 2 min 0,000 mm 0,5 UV-I 270 W/m 6,5 C 10,6 C 9,7 km/h (2 Bft) 100,00 %
29.01.2018 14:40 10,7 C 4,4 C 77 % 1026,6 hPa 0,0 l/m 2,3 km/h (1 Bft) W-NW 294 2 min 0,000 mm 0,5 UV-I 267 W/m 6,8 C 10,7 C 4,8 km/h (1 Bft) 95,45 %
29.01.2018 14:42 10,7 C 4,4 C 76 % 1026,6 hPa 0,0 l/m 3,9 km/h (1 Bft) W-SW 240 2 min 0,000 mm 0,5 UV-I 262 W/m 6,6 C 10,7 C 8,0 km/h (2 Bft) 100,00 %
29.01.2018 14:44 10,6 C 4,4 C 75 % 1026,6 hPa 0,0 l/m 4,1 km/h (1 Bft) W 279 2 min 0,000 mm 0,5 UV-I 258 W/m 6,4 C 10,6 C 9,7 km/h (2 Bft) 94,87 %
29.01.2018 14:46 10,6 C 4,4 C 77 % 1026,5 hPa 0,0 l/m 3,0 km/h (1 Bft) W-NW 292 2 min 0,000 mm 0,5 UV-I 254 W/m 6,7 C 10,6 C 6,4 km/h (2 Bft) 100,00 %
29.01.2018 14:48 10,6 C 4,4 C 77 % 1026,6 hPa 0,0 l/m 3,6 km/h (1 Bft) W-NW 294 2 min 0,000 mm 0,5 UV-I 250 W/m 6,7 C 10,6 C 11,3 km/h (2 Bft) 98,21 %
29.01.2018 14:50 10,5 C 4,4 C 76 % 1026,6 hPa 0,0 l/m 3,6 km/h (1 Bft) NW 305 2 min 0,000 mm 0,2 UV-I 246 W/m 6,5 C 10,5 C 11,3 km/h (2 Bft) 100,00 %
29.01.2018 14:52 10,5 C 4,4 C 76 % 1026,5 hPa 0,0 l/m 5,4 km/h (1 Bft) W 266 2 min 0,000 mm 0,0 UV-I 243 W/m 6,5 C 10,5 C 9,7 km/h (2 Bft) 100,00 %
29.01.2018 14:54 10,4 C 4,4 C 76 % 1026,5 hPa 0,0 l/m 4,0 km/h (1 Bft) N 355 2 min 0,000 mm 0,0 UV-I 238 W/m 6,4 C 10,4 C 8,0 km/h (2 Bft) 100,00 %
29.01.2018 14:56 10,3 C 4,4 C 76 % 1026,5 hPa 0,0 l/m 6,7 km/h (2 Bft) W-NW 301 2 min 0,000 mm 0,0 UV-I 234 W/m 6,3 C 10,1 C 12,9 km/h (3 Bft) 100,00 %
29.01.2018 14:58 10,3 C 4,4 C 76 % 1026,4 hPa 0,0 l/m 4,3 km/h (1 Bft) W-NW 296 2 min 0,000 mm 0,0 UV-I 231 W/m 6,3 C 10,3 C 6,4 km/h (2 Bft) 97,87 %
29.01.2018 15:00 10,3 C 4,4 C 76 % 1026,4 hPa 0,0 l/m 8,6 km/h (2 Bft) W-NW 283 2 min 0,153 mm 0,0 UV-I 226 W/m 6,3 C 8,8 C 19,3 km/h (3 Bft) 100,00 %
29.01.2018 15:02 10,3 C 4,4 C 76 % 1026,4 hPa 0,0 l/m 4,6 km/h (1 Bft) NW 307 2 min 0,000 mm 0,0 UV-I 221 W/m 6,3 C 10,3 C 9,7 km/h (2 Bft) 100,00 %
29.01.2018 15:04 10,3 C 4,4 C 75 % 1026,3 hPa 0,0 l/m 5,4 km/h (1 Bft) W-SW 249 2 min 0,000 mm 0,0 UV-I 218 W/m 6,1 C 10,3 C 11,3 km/h (2 Bft) 100,00 %
29.01.2018 15:06 10,4 C 4,4 C 77 % 1026,3 hPa 0,0 l/m 2,9 km/h (1 Bft) W 269 2 min 0,000 mm 0,0 UV-I 213 W/m 6,5 C 10,4 C 6,4 km/h (2 Bft) 100,00 %
29.01.2018 15:08 10,3 C 4,4 C 77 % 1026,3 hPa 0,0 l/m 2,8 km/h (1 Bft) W-NW 297 2 min 0,000 mm 0,0 UV-I 210 W/m 6,4 C 10,3 C 4,8 km/h (1 Bft) 100,00 %
29.01.2018 15:10 10,2 C 4,4 C 78 % 1026,2 hPa 0,0 l/m 2,8 km/h (1 Bft) W-SW 240 2 min 0,000 mm 0,0 UV-I 206 W/m 6,5 C 10,2 C 6,4 km/h (2 Bft) 97,56 %
29.01.2018 15:12 10,2 C 4,4 C 78 % 1026,2 hPa 0,0 l/m 3,4 km/h (1 Bft) W-NW 286 2 min 0,000 mm 0,0 UV-I 201 W/m 6,5 C 10,2 C 6,4 km/h (2 Bft) 100,00 %
29.01.2018 15:14 10,1 C 4,4 C 78 % 1026,2 hPa 0,0 l/m 5,4 km/h (1 Bft) W-NW 300 2 min 0,000 mm 0,0 UV-I 197 W/m 6,4 C 10,1 C 9,7 km/h (2 Bft) 100,00 %
29.01.2018 15:16 10,1 C 4,4 C 79 % 1026,2 hPa 0,0 l/m 2,1 km/h (1 Bft) W-NW 298 2 min 0,000 mm 0,0 UV-I 193 W/m 6,6 C 10,1 C 8,0 km/h (2 Bft) 100,00 %
29.01.2018 15:18 10,0 C 4,4 C 78 % 1026,1 hPa 0,0 l/m 3,0 km/h (1 Bft) N-NO 18 2 min 0,000 mm 0,0 UV-I 189 W/m 6,3 C 10,0 C 6,4 km/h (2 Bft) 97,87 %
29.01.2018 15:20 10,0 C 4,4 C 79 % 1026,1 hPa 0,0 l/m 2,8 km/h (1 Bft) W 279 2 min 0,000 mm 0,0 UV-I 185 W/m 6,5 C 10,0 C 4,8 km/h (1 Bft) 100,00 %
29.01.2018 15:22 9,9 C 4,4 C 79 % 1026,1 hPa 0,0 l/m 3,1 km/h (1 Bft) W-NW 295 2 min 0,000 mm 0,0 UV-I 180 W/m 6,4 C 9,9 C 4,8 km/h (1 Bft) 98,00 %
29.01.2018 15:24 9,9 C 4,4 C 79 % 1025,9 hPa 0,0 l/m 3,1 km/h (1 Bft) SW 226 2 min 0,000 mm 0,0 UV-I 177 W/m 6,4 C 9,9 C 6,4 km/h (2 Bft) 97,87 %
29.01.2018 15:26 9,9 C 4,4 C 79 % 1025,9 hPa 0,0 l/m 2,3 km/h (1 Bft) N-NW 327 2 min 0,000 mm 0,0 UV-I 172 W/m 6,4 C 9,9 C 4,8 km/h (1 Bft) 91,49 %
29.01.2018 15:28 9,8 C 4,4 C 80 % 1025,9 hPa 0,0 l/m 2,2 km/h (1 Bft) NW 310 2 min 0,000 mm 0,0 UV-I 169 W/m 6,5 C 9,8 C 6,4 km/h (2 Bft) 97,87 %
29.01.2018 15:30 9,8 C 4,4 C 80 % 1025,9 hPa 0,0 l/m 2,8 km/h (1 Bft) N-NW 336 2 min 0,000 mm 0,0 UV-I 164 W/m 6,5 C 9,8 C 4,8 km/h (1 Bft) 97,73 %
29.01.2018 15:32 9,8 C 4,4 C 79 % 1025,9 hPa 0,0 l/m 4,9 km/h (1 Bft) W-NW 296 2 min 0,000 mm 0,0 UV-I 160 W/m 6,3 C 9,8 C 11,3 km/h (2 Bft) 98,11 %
29.01.2018 15:34 9,8 C 4,4 C 79 % 1026,0 hPa 0,0 l/m 3,4 km/h (1 Bft) W-NW 284 2 min 0,000 mm 0,0 UV-I 156 W/m 6,3 C 9,8 C 11,3 km/h (2 Bft) 98,00 %
29.01.2018 15:36 9,8 C 4,4 C 79 % 1025,9 hPa 0,0 l/m 4,4 km/h (1 Bft) W-NW 298 2 min 0,000 mm 0,0 UV-I 152 W/m 6,3 C 9,8 C 12,9 km/h (3 Bft) 97,73 %
29.01.2018 15:38 9,8 C 4,4 C 80 % 1025,8 hPa 0,0 l/m 1,7 km/h (1 Bft) W-NW 297 2 min 0,000 mm 0,0 UV-I 148 W/m 6,5 C 9,8 C 3,2 km/h (1 Bft) 95,74 %
29.01.2018 15:40 9,7 C 4,4 C 80 % 1025,8 hPa 0,0 l/m 2,4 km/h (1 Bft) W 273 2 min 0,000 mm 0,0 UV-I 144 W/m 6,4 C 9,7 C 6,4 km/h (2 Bft) 97,14 %
29.01.2018 15:42 9,6 C 4,4 C 80 % 1025,8 hPa 0,0 l/m 1,6 km/h (1 Bft) W-NW 294 2 min 0,000 mm 0,0 UV-I 139 W/m 6,3 C 9,6 C 3,2 km/h (1 Bft) 98,21 %
29.01.2018 15:44 9,5 C 4,4 C 80 % 1025,8 hPa 0,0 l/m 3,3 km/h (1 Bft) W-SW 257 2 min 0,000 mm 0,0 UV-I 135 W/m 6,2 C 9,5 C 11,3 km/h (2 Bft) 94,34 %
29.01.2018 15:46 9,5 C 4,4 C 80 % 1025,8 hPa 0,0 l/m 2,8 km/h (1 Bft) W 278 2 min 0,000 mm 0,0 UV-I 133 W/m 6,2 C 9,5 C 4,8 km/h (1 Bft) 97,73 %
29.01.2018 15:48 9,5 C 4,4 C 80 % 1025,7 hPa 0,0 l/m 1,5 km/h (1 Bft) W 277 2 min 0,000 mm 0,0 UV-I 129 W/m 6,2 C 9,5 C 3,2 km/h (1 Bft) 98,00 %
29.01.2018 15:50 9,4 C 4,4 C 81 % 1025,6 hPa 0,0 l/m 2,4 km/h (1 Bft) W-NW 288 2 min 0,000 mm 0,0 UV-I 125 W/m 6,3 C 9,4 C 3,2 km/h (1 Bft) 97,87 %
29.01.2018 15:52 9,4 C 4,4 C 81 % 1025,6 hPa 0,0 l/m 1,0 km/h (0 Bft) W-NW 284 2 min 0,000 mm 0,0 UV-I 121 W/m 6,3 C 9,4 C 3,2 km/h (1 Bft) 94,74 %
29.01.2018 15:54 9,4 C 4,4 C 81 % 1025,6 hPa 0,0 l/m 1,1 km/h (1 Bft) W-NW 284 2 min 0,000 mm 0,0 UV-I 116 W/m 6,3 C 9,4 C 3,2 km/h (1 Bft) 95,45 %
29.01.2018 15:56 9,3 C 4,4 C 81 % 1025,5 hPa 0,0 l/m 5,3 km/h (1 Bft) NW 313 2 min 0,000 mm 0,0 UV-I 112 W/m 6,2 C 9,3 C 9,7 km/h (2 Bft) 95,24 %
29.01.2018 15:58 9,3 C 4,4 C 81 % 1025,5 hPa 0,0 l/m 3,9 km/h (1 Bft) W-SW 248 2 min 0,000 mm 0,0 UV-I 107 W/m 6,2 C 9,3 C 4,8 km/h (1 Bft) 96,23 %
29.01.2018 16:00 9,2 C 4,4 C 80 % 1025,5 hPa 0,0 l/m 6,5 km/h (2 Bft) W-SW 241 2 min 0,076 mm 0,0 UV-I 104 W/m 5,9 C 9,2 C 12,9 km/h (3 Bft) 94,55 %
29.01.2018 16:02 9,2 C 4,4 C 80 % 1025,5 hPa 0,0 l/m 2,2 km/h (1 Bft) W-SW 242 2 min 0,000 mm 0,0 UV-I 98 W/m 5,9 C 9,2 C 3,2 km/h (1 Bft) 92,31 %
29.01.2018 16:04 9,2 C 4,4 C 81 % 1025,5 hPa 0,0 l/m 5,8 km/h (2 Bft) W-NW 286 2 min 0,000 mm 0,0 UV-I 94 W/m 6,1 C 9,2 C 11,3 km/h (2 Bft) 96,36 %
29.01.2018 16:06 9,1 C 4,4 C 81 % 1025,4 hPa 0,0 l/m 5,2 km/h (1 Bft) W 265 2 min 0,000 mm 0,0 UV-I 90 W/m 6,0 C 9,1 C 9,7 km/h (2 Bft) 95,24 %
29.01.2018 16:08 9,1 C 4,4 C 81 % 1025,4 hPa 0,0 l/m 6,2 km/h (2 Bft) W 264 2 min 0,000 mm 0,0 UV-I 86 W/m 6,0 C 9,1 C 11,3 km/h (2 Bft) 93,62 %
29.01.2018 16:10 9,1 C 4,4 C 81 % 1025,4 hPa 0,0 l/m 4,3 km/h (1 Bft) W-SW 256 2 min 0,000 mm 0,0 UV-I 81 W/m 6,0 C 9,1 C 6,4 km/h (2 Bft) 95,74 %
29.01.2018 16:12 9,1 C 4,4 C 81 % 1025,4 hPa 0,0 l/m 4,6 km/h (1 Bft) W-SW 256 2 min 0,000 mm 0,0 UV-I 76 W/m 6,0 C 9,1 C 8,0 km/h (2 Bft) 96,23 %
29.01.2018 16:14 9,1 C 4,4 C 81 % 1025,3 hPa 0,0 l/m 3,7 km/h (1 Bft) S-SW 209 2 min 0,000 mm 0,0 UV-I 72 W/m 6,0 C 9,1 C 9,7 km/h (2 Bft) 94,74 %
29.01.2018 16:16 9,1 C 4,4 C 81 % 1025,3 hPa 0,0 l/m 2,7 km/h (1 Bft) NW 310 2 min 0,000 mm 0,0 UV-I 68 W/m 6,0 C 9,1 C 4,8 km/h (1 Bft) 94,34 %
29.01.2018 16:18 9,1 C 4,4 C 81 % 1025,3 hPa 0,0 l/m 4,3 km/h (1 Bft) W-NW 294 2 min 0,000 mm 0,0 UV-I 63 W/m 6,0 C 9,1 C 6,4 km/h (2 Bft) 95,74 %
29.01.2018 16:20 9,0 C 4,4 C 81 % 1025,3 hPa 0,0 l/m 2,0 km/h (1 Bft) W 281 2 min 0,000 mm 0,0 UV-I 60 W/m 5,9 C 9,0 C 4,8 km/h (1 Bft) 94,00 %
29.01.2018 16:22 8,9 C 4,4 C 81 % 1025,3 hPa 0,0 l/m 1,7 km/h (1 Bft) W 281 2 min 0,000 mm 0,0 UV-I 55 W/m 5,8 C 8,9 C 4,8 km/h (1 Bft) 97,14 %
29.01.2018 16:24 8,8 C 4,4 C 82 % 1025,3 hPa 0,0 l/m 1,6 km/h (1 Bft) W 277 2 min 0,000 mm 0,0 UV-I 51 W/m 5,9 C 8,8 C 6,4 km/h (2 Bft) 95,74 %
29.01.2018 16:26 8,8 C 4,4 C 82 % 1025,3 hPa 0,0 l/m 1,4 km/h (1 Bft) W 277 2 min 0,000 mm 0,0 UV-I 48 W/m 5,9 C 8,8 C 4,8 km/h (1 Bft) 94,34 %
29.01.2018 16:28 8,8 C 4,4 C 82 % 1025,3 hPa 0,0 l/m 2,6 km/h (1 Bft) W 279 2 min 0,000 mm 0,0 UV-I 45 W/m 5,9 C 8,8 C 4,8 km/h (1 Bft) 95,12 %
29.01.2018 16:30 8,8 C 4,4 C 82 % 1025,3 hPa 0,0 l/m 4,8 km/h (1 Bft) W-SW 258 2 min 0,000 mm 0,0 UV-I 41 W/m 5,9 C 8,8 C 9,7 km/h (2 Bft) 94,00 %
29.01.2018 16:32 8,8 C 4,4 C 82 % 1025,3 hPa 0,0 l/m 2,0 km/h (1 Bft) W-NW 285 2 min 0,000 mm 0,0 UV-I 39 W/m 5,9 C 8,8 C 6,4 km/h (2 Bft) 96,00 %
29.01.2018 16:34 8,7 C 4,4 C 82 % 1025,2 hPa 0,0 l/m 3,3 km/h (1 Bft) W 273 2 min 0,000 mm 0,0 UV-I 36 W/m 5,8 C 8,7 C 6,4 km/h (2 Bft) 93,62 %
29.01.2018 16:36 8,7 C 4,4 C 82 % 1025,1 hPa 0,0 l/m 1,4 km/h (1 Bft) W 273 2 min 0,000 mm 0,0 UV-I 32 W/m 5,8 C 8,7 C 3,2 km/h (1 Bft) 97,87 %
29.01.2018 16:38 8,6 C 4,4 C 83 % 1025,1 hPa 0,0 l/m 2,3 km/h (1 Bft) W 273 2 min 0,000 mm 0,0 UV-I 30 W/m 5,9 C 8,6 C 9,7 km/h (2 Bft) 98,00 %
29.01.2018 16:40 8,5 C 4,4 C 83 % 1025,1 hPa 0,0 l/m 2,1 km/h (1 Bft) W 271 2 min 0,000 mm 0,0 UV-I 27 W/m 5,8 C 8,5 C 6,4 km/h (2 Bft) 97,62 %
29.01.2018 16:42 8,4 C 4,4 C 84 % 1025,0 hPa 0,0 l/m 0,8 km/h (0 Bft) W 273 2 min 0,000 mm 0,0 UV-I 25 W/m 5,9 C 8,4 C 3,2 km/h (1 Bft) 97,87 %
29.01.2018 16:44 8,3 C 4,4 C 84 % 1025,0 hPa 0,0 l/m 0,0 km/h (0 Bft) W 273 2 min 0,000 mm 0,0 UV-I 22 W/m 5,8 C 8,3 C 1,6 km/h (1 Bft) 96,00 %
29.01.2018 16:46 8,3 C 4,4 C 84 % 1025,0 hPa 0,0 l/m 1,0 km/h (0 Bft) W 273 2 min 0,000 mm 0,0 UV-I 20 W/m 5,8 C 8,3 C 1,6 km/h (1 Bft) 98,00 %
29.01.2018 16:48 8,3 C 4,4 C 84 % 1025,0 hPa 0,0 l/m 0,5 km/h (0 Bft) W 273 0 min 0,000 mm 0,0 UV-I 18 W/m 5,8 C 8,3 C 1,6 km/h (1 Bft) 97,14 %
29.01.2018 16:50 8,3 C 4,4 C 85 % 1025,0 hPa 0,0 l/m 1,0 km/h (0 Bft) W 273 0 min 0,000 mm 0,0 UV-I 16 W/m 5,9 C 8,3 C 3,2 km/h (1 Bft) 98,00 %
29.01.2018 16:52 8,1 C 4,4 C 85 % 1025,0 hPa 0,0 l/m 0,9 km/h (0 Bft) W 273 0 min 0,000 mm 0,0 UV-I 14 W/m 5,7 C 8,1 C 1,6 km/h (1 Bft) 100,00 %
29.01.2018 16:54 7,9 C 4,4 C 85 % 1025,0 hPa 0,0 l/m 2,6 km/h (1 Bft) W-NW 295 0 min 0,000 mm 0,0 UV-I 12 W/m 5,5 C 7,9 C 4,8 km/h (1 Bft) 100,00 %
29.01.2018 16:56 7,8 C 4,4 C 86 % 1025,0 hPa 0,0 l/m 1,0 km/h (0 Bft) W-NW 294 0 min 0,000 mm 0,0 UV-I 11 W/m 5,6 C 7,8 C 3,2 km/h (1 Bft) 98,00 %
29.01.2018 16:58 7,7 C 4,4 C 86 % 1025,0 hPa 0,0 l/m 0,9 km/h (0 Bft) W-NW 294 0 min 0,000 mm 0,0 UV-I 10 W/m 5,5 C 7,7 C 3,2 km/h (1 Bft) 100,00 %
29.01.2018 17:00 7,7 C 4,4 C 87 % 1025,0 hPa 0,0 l/m 0,2 km/h (0 Bft) W-NW 294 0 min 0,000 mm 0,0 UV-I 9 W/m 5,7 C 7,7 C 1,6 km/h (1 Bft) 100,00 %
29.01.2018 17:02 7,6 C 4,4 C 87 % 1025,0 hPa 0,0 l/m 0,9 km/h (0 Bft) NW 317 0 min 0,025 mm 0,0 UV-I 9 W/m 5,6 C 7,6 C 3,2 km/h (1 Bft) 95,74 %
29.01.2018 17:04 7,4 C 4,4 C 88 % 1025,0 hPa 0,0 l/m 2,3 km/h (1 Bft) N-NW 347 0 min 0,000 mm 0,0 UV-I 7 W/m 5,5 C 7,4 C 4,8 km/h (1 Bft) 98,11 %
29.01.2018 17:06 7,4 C 4,4 C 88 % 1025,0 hPa 0,0 l/m 1,3 km/h (1 Bft) N-NW 347 0 min 0,000 mm 0,0 UV-I 7 W/m 5,5 C 7,4 C 3,2 km/h (1 Bft) 100,00 %
29.01.2018 17:08 7,4 C 4,4 C 88 % 1025,0 hPa 0,0 l/m 1,5 km/h (1 Bft) N-NW 337 0 min 0,000 mm 0,0 UV-I 7 W/m 5,5 C 7,4 C 3,2 km/h (1 Bft) 98,00 %
29.01.2018 17:10 7,3 C 4,4 C 88 % 1025,0 hPa 0,0 l/m 1,3 km/h (1 Bft) N-NW 337 0 min 0,000 mm 0,0 UV-I 5 W/m 5,4 C 7,3 C 3,2 km/h (1 Bft) 97,37 %
29.01.2018 17:12 7,3 C 4,4 C 88 % 1024,9 hPa 0,0 l/m 0,2 km/h (0 Bft) N-NW 337 0 min 0,000 mm 0,0 UV-I 5 W/m 5,4 C 7,3 C 1,6 km/h (1 Bft) 100,00 %
29.01.2018 17:14 7,3 C 4,4 C 88 % 1024,9 hPa 0,0 l/m 0,1 km/h (0 Bft) N-NW 337 0 min 0,000 mm 0,0 UV-I 5 W/m 5,4 C 7,3 C 1,6 km/h (1 Bft) 100,00 %
29.01.2018 17:16 7,3 C 4,4 C 88 % 1024,9 hPa 0,0 l/m 0,1 km/h (0 Bft) N-NW 337 0 min 0,000 mm 0,0 UV-I 5 W/m 5,4 C 7,3 C 1,6 km/h (1 Bft) 100,00 %
29.01.2018 17:18 7,2 C 4,4 C 88 % 1024,9 hPa 0,0 l/m 1,9 km/h (1 Bft) N-NW 337 0 min 0,000 mm 0,0 UV-I 1 W/m 5,3 C 7,2 C 3,2 km/h (1 Bft) 100,00 %
29.01.2018 17:20 7,3 C 4,4 C 88 % 1025,0 hPa 0,0 l/m 1,6 km/h (1 Bft) N-NW 337 0 min 0,000 mm 0,0 UV-I 0 W/m 5,4 C 7,3 C 3,2 km/h (1 Bft) 100,00 %
29.01.2018 17:22 7,2 C 4,4 C 88 % 1025,0 hPa 0,0 l/m 0,0 km/h (0 Bft) N-NW 337 0 min 0,000 mm 0,0 UV-I 0 W/m 5,3 C 7,2 C 1,6 km/h (1 Bft) 100,00 %
29.01.2018 17:24 7,2 C 4,4 C 88 % 1024,9 hPa 0,0 l/m 1,0 km/h (0 Bft) N-NW 337 0 min 0,000 mm 0,0 UV-I 0 W/m 5,3 C 7,2 C 3,2 km/h (1 Bft) 100,00 %
29.01.2018 17:26 7,1 C 4,4 C 88 % 1024,9 hPa 0,0 l/m 2,3 km/h (1 Bft) N-NW 337 0 min 0,000 mm 0,0 UV-I 0 W/m 5,2 C 7,1 C 4,8 km/h (1 Bft) 100,00 %
29.01.2018 17:28 7,0 C 4,4 C 88 % 1024,9 hPa 0,0 l/m 2,3 km/h (1 Bft) N-NW 336 0 min 0,000 mm 0,0 UV-I 0 W/m 5,2 C 7,0 C 4,8 km/h (1 Bft) 95,65 %
29.01.2018 17:30 6,9 C 4,4 C 89 % 1024,9 hPa 0,0 l/m 2,0 km/h (1 Bft) W-NW 303 0 min 0,000 mm 0,0 UV-I 0 W/m 5,2 C 6,9 C 4,8 km/h (1 Bft) 98,39 %
29.01.2018 17:32 6,7 C 4,4 C 89 % 1024,8 hPa 0,0 l/m 2,2 km/h (1 Bft) W 272 0 min 0,000 mm 0,0 UV-I 0 W/m 5,0 C 6,7 C 4,8 km/h (1 Bft) 100,00 %
29.01.2018 17:34 6,7 C 4,4 C 89 % 1024,8 hPa 0,0 l/m 2,3 km/h (1 Bft) W 272 0 min 0,000 mm 0,0 UV-I 0 W/m 5,0 C 6,7 C 3,2 km/h (1 Bft) 100,00 %
29.01.2018 17:36 6,7 C 4,4 C 89 % 1024,7 hPa 0,0 l/m 2,3 km/h (1 Bft) W 272 0 min 0,000 mm 0,0 UV-I 0 W/m 5,0 C 6,7 C 3,2 km/h (1 Bft) 100,00 %
29.01.2018 17:38 6,6 C 4,4 C 89 % 1024,7 hPa 0,0 l/m 2,1 km/h (1 Bft) W 272 0 min 0,000 mm 0,0 UV-I 0 W/m 4,9 C 6,6 C 3,2 km/h (1 Bft) 100,00 %
29.01.2018 17:40 6,5 C 4,4 C 90 % 1024,7 hPa 0,0 l/m 3,7 km/h (1 Bft) W 281 0 min 0,000 mm 0,0 UV-I 0 W/m 5,0 C 6,5 C 6,4 km/h (2 Bft) 100,00 %
29.01.2018 17:42 6,4 C 4,4 C 90 % 1024,7 hPa 0,0 l/m 4,0 km/h (1 Bft) W 279 0 min 0,000 mm 0,0 UV-I 0 W/m 4,9 C 6,4 C 6,4 km/h (2 Bft) 98,00 %
29.01.2018 17:44 6,5 C 4,4 C 90 % 1024,7 hPa 0,0 l/m 4,0 km/h (1 Bft) W-SW 254 0 min 0,000 mm 0,0 UV-I 0 W/m 5,0 C 6,5 C 4,8 km/h (1 Bft) 100,00 %
29.01.2018 17:46 6,6 C 4,4 C 90 % 1024,7 hPa 0,0 l/m 3,8 km/h (1 Bft) W-SW 254 0 min 0,000 mm 0,0 UV-I 0 W/m 5,1 C 6,6 C 4,8 km/h (1 Bft) 100,00 %
29.01.2018 17:48 6,6 C 4,4 C 90 % 1024,7 hPa 0,0 l/m 3,5 km/h (1 Bft) W-SW 254 0 min 0,000 mm 0,0 UV-I 0 W/m 5,1 C 6,6 C 4,8 km/h (1 Bft) 100,00 %
29.01.2018 17:50 6,6 C 4,4 C 89 % 1024,7 hPa 0,0 l/m 2,6 km/h (1 Bft) W-SW 254 0 min 0,000 mm 0,0 UV-I 0 W/m 4,9 C 6,6 C 4,8 km/h (1 Bft) 98,00 %
29.01.2018 17:52 6,6 C 4,4 C 90 % 1024,7 hPa 0,0 l/m 1,8 km/h (1 Bft) W-SW 254 0 min 0,000 mm 0,0 UV-I 0 W/m 5,1 C 6,6 C 3,2 km/h (1 Bft) 100,00 %
29.01.2018 17:54 6,5 C 4,4 C 89 % 1024,7 hPa 0,0 l/m 1,9 km/h (1 Bft) W-SW 254 0 min 0,000 mm 0,0 UV-I 0 W/m 4,8 C 6,5 C 3,2 km/h (1 Bft) 98,00 %
29.01.2018 17:56 6,3 C 4,4 C 89 % 1024,7 hPa 0,0 l/m 1,3 km/h (1 Bft) W-SW 252 0 min 0,000 mm 0,0 UV-I 0 W/m 4,6 C 6,3 C 3,2 km/h (1 Bft) 97,87 %
29.01.2018 17:58 6,1 C 4,4 C 90 % 1024,7 hPa 0,0 l/m 1,6 km/h (1 Bft) W-SW 238 0 min 0,000 mm 0,0 UV-I 0 W/m 4,6 C 6,1 C 3,2 km/h (1 Bft) 100,00 %
29.01.2018 18:00 6,1 C 4,4 C 91 % 1024,7 hPa 0,0 l/m 2,3 km/h (1 Bft) W-SW 238 0 min 0,000 mm 0,0 UV-I 0 W/m 4,7 C 6,1 C 4,8 km/h (1 Bft) 100,00 %
29.01.2018 18:02 5,8 C 4,4 C 91 % 1024,6 hPa 0,0 l/m 3,1 km/h (1 Bft) W-SW 238 0 min 0,000 mm 0,0 UV-I 0 W/m 4,4 C 5,8 C 4,8 km/h (1 Bft) 100,00 %
29.01.2018 18:04 5,8 C 4,4 C 91 % 1024,6 hPa 0,0 l/m 3,6 km/h (1 Bft) W-SW 238 0 min 0,000 mm 0,0 UV-I 0 W/m 4,4 C 5,8 C 6,4 km/h (2 Bft) 98,11 %
29.01.2018 18:06 5,9 C 4,4 C 92 % 1024,6 hPa 0,0 l/m 4,4 km/h (1 Bft) W-SW 238 0 min 0,000 mm 0,0 UV-I 0 W/m 4,7 C 5,9 C 6,4 km/h (2 Bft) 100,00 %
29.01.2018 18:08 6,1 C 4,4 C 92 % 1024,6 hPa 0,0 l/m 3,8 km/h (1 Bft) W-SW 238 0 min 0,000 mm 0,0 UV-I 0 W/m 4,9 C 6,1 C 6,4 km/h (2 Bft) 100,00 %
29.01.2018 18:10 6,2 C 4,4 C 91 % 1024,5 hPa 0,0 l/m 4,2 km/h (1 Bft) W-SW 246 0 min 0,000 mm 0,0 UV-I 0 W/m 4,8 C 6,2 C 6,4 km/h (2 Bft) 100,00 %
29.01.2018 18:12 6,2 C 4,4 C 91 % 1024,6 hPa 0,0 l/m 4,1 km/h (1 Bft) W-SW 245 0 min 0,000 mm 0,0 UV-I 0 W/m 4,8 C 6,2 C 6,4 km/h (2 Bft) 97,87 %
29.01.2018 18:14 6,2 C 4,4 C 91 % 1024,6 hPa 0,0 l/m 3,4 km/h (1 Bft) W-SW 244 0 min 0,000 mm 0,0 UV-I 0 W/m 4,8 C 6,2 C 4,8 km/h (1 Bft) 100,00 %
29.01.2018 18:16 6,1 C 4,4 C 91 % 1024,4 hPa 0,0 l/m 4,5 km/h (1 Bft) W-SW 244 0 min 0,000 mm 0,0 UV-I 0 W/m 4,7 C 6,1 C 6,4 km/h (2 Bft) 97,56 %
29.01.2018 18:18 6,0 C 4,4 C 91 % 1024,4 hPa 0,0 l/m 3,5 km/h (1 Bft) W-SW 244 0 min 0,000 mm 0,0 UV-I 0 W/m 4,6 C 6,0 C 4,8 km/h (1 Bft) 100,00 %
29.01.2018 18:20 5,9 C 4,4 C 91 % 1024,5 hPa 0,0 l/m 3,6 km/h (1 Bft) W-SW 244 0 min 0,000 mm 0,0 UV-I 0 W/m 4,5 C 5,9 C 4,8 km/h (1 Bft) 100,00 %
29.01.2018 18:22 5,9 C 4,4 C 91 % 1024,5 hPa 0,0 l/m 3,5 km/h (1 Bft) W-SW 244 0 min 0,000 mm 0,0 UV-I 0 W/m 4,5 C 5,9 C 4,8 km/h (1 Bft) 100,00 %
29.01.2018 18:24 5,8 C 4,4 C 92 % 1024,5 hPa 0,0 l/m 2,7 km/h (1 Bft) W-SW 244 0 min 0,000 mm 0,0 UV-I 0 W/m 4,6 C 5,8 C 4,8 km/h (1 Bft) 100,00 %
29.01.2018 18:26 5,7 C 4,4 C 91 % 1024,4 hPa 0,0 l/m 3,5 km/h (1 Bft) W-SW 244 0 min 0,000 mm 0,0 UV-I 0 W/m 4,3 C 5,7 C 4,8 km/h (1 Bft) 100,00 %
29.01.2018 18:28 5,7 C 4,4 C 92 % 1024,4 hPa 0,0 l/m 4,0 km/h (1 Bft) W-SW 244 0 min 0,000 mm 0,0 UV-I 0 W/m 4,5 C 5,7 C 4,8 km/h (1 Bft) 100,00 %
29.01.2018 18:30 5,6 C 4,4 C 92 % 1024,4 hPa 0,0 l/m 3,2 km/h (1 Bft) W-SW 244 0 min 0,000 mm 0,0 UV-I 0 W/m 4,4 C 5,6 C 4,8 km/h (1 Bft) 100,00 %
29.01.2018 18:32 5,4 C 4,4 C 92 % 1024,4 hPa 0,0 l/m 2,9 km/h (1 Bft) W-SW 244 0 min 0,000 mm 0,0 UV-I 0 W/m 4,2 C 5,4 C 4,8 km/h (1 Bft) 100,00 %
29.01.2018 18:34 5,2 C 4,4 C 92 % 1024,4 hPa 0,0 l/m 2,1 km/h (1 Bft) W-SW 243 0 min 0,000 mm 0,0 UV-I 0 W/m 4,0 C 5,2 C 3,2 km/h (1 Bft) 100,00 %
29.01.2018 18:36 4,9 C 4,4 C 92 % 1024,4 hPa 0,0 l/m 3,2 km/h (1 Bft) SW 219 0 min 0,000 mm 0,0 UV-I 0 W/m 3,7 C 4,9 C 4,8 km/h (1 Bft) 100,00 %
29.01.2018 18:38 4,8 C 4,4 C 92 % 1024,4 hPa 0,0 l/m 3,5 km/h (1 Bft) SW 219 0 min 0,000 mm 0,0 UV-I 0 W/m 3,6 C 4,8 C 4,8 km/h (1 Bft) 97,87 %
29.01.2018 18:40 4,8 C 4,4 C 93 % 1024,4 hPa 0,0 l/m 3,3 km/h (1 Bft) SW 219 0 min 0,000 mm 0,0 UV-I 0 W/m 3,8 C 4,8 C 4,8 km/h (1 Bft) 98,00 %
29.01.2018 18:42 5,1 C 4,4 C 94 % 1024,5 hPa 0,0 l/m 4,2 km/h (1 Bft) SW 221 0 min 0,000 mm 0,0 UV-I 0 W/m 4,2 C 5,1 C 4,8 km/h (1 Bft) 97,56 %
29.01.2018 18:44 5,2 C 4,4 C 94 % 1024,5 hPa 0,0 l/m 3,8 km/h (1 Bft) SW 221 0 min 0,000 mm 0,0 UV-I 0 W/m 4,3 C 5,2 C 4,8 km/h (1 Bft) 98,00 %
29.01.2018 18:46 5,2 C 4,4 C 94 % 1024,4 hPa 0,0 l/m 2,8 km/h (1 Bft) SW 221 0 min 0,000 mm 0,0 UV-I 0 W/m 4,3 C 5,2 C 4,8 km/h (1 Bft) 96,00 %
29.01.2018 18:48 5,2 C 4,4 C 93 % 1024,4 hPa 0,0 l/m 3,5 km/h (1 Bft) SW 221 0 min 0,000 mm 0,0 UV-I 0 W/m 4,2 C 5,2 C 4,8 km/h (1 Bft) 97,37 %
29.01.2018 18:50 5,1 C 4,4 C 93 % 1024,4 hPa 0,0 l/m 3,6 km/h (1 Bft) SW 221 0 min 0,000 mm 0,0 UV-I 0 W/m 4,1 C 5,1 C 4,8 km/h (1 Bft) 96,00 %
29.01.2018 18:52 5,0 C 4,4 C 93 % 1024,4 hPa 0,0 l/m 3,2 km/h (1 Bft) SW 221 0 min 0,000 mm 0,0 UV-I 0 W/m 4,0 C 5,0 C 4,8 km/h (1 Bft) 98,00 %
29.01.2018 18:54 4,9 C 4,4 C 93 % 1024,5 hPa 0,0 l/m 3,3 km/h (1 Bft) SW 221 0 min 0,000 mm 0,0 UV-I 0 W/m 3,9 C 4,9 C 4,8 km/h (1 Bft) 96,23 %
29.01.2018 18:56 4,9 C 4,4 C 94 % 1024,4 hPa 0,0 l/m 2,8 km/h (1 Bft) SW 222 0 min 0,000 mm 0,0 UV-I 0 W/m 4,0 C 4,9 C 4,8 km/h (1 Bft) 97,37 %
29.01.2018 18:58 4,8 C 4,4 C 93 % 1024,5 hPa 0,0 l/m 3,4 km/h (1 Bft) W 275 0 min 0,000 mm 0,0 UV-I 0 W/m 3,8 C 4,8 C 6,4 km/h (2 Bft) 97,56 %
29.01.2018 19:00 4,9 C 4,4 C 94 % 1024,4 hPa 0,0 l/m 3,3 km/h (1 Bft) W 275 0 min 0,000 mm 0,0 UV-I 0 W/m 4,0 C 4,9 C 6,4 km/h (2 Bft) 96,23 %
29.01.2018 19:02 5,1 C 4,4 C 94 % 1024,4 hPa 0,0 l/m 2,8 km/h (1 Bft) W 274 0 min 0,000 mm 0,0 UV-I 0 W/m 4,2 C 5,1 C 4,8 km/h (1 Bft) 96,00 %
29.01.2018 19:04 5,1 C 4,4 C 94 % 1024,4 hPa 0,0 l/m 3,6 km/h (1 Bft) W 263 0 min 0,000 mm 0,0 UV-I 0 W/m 4,2 C 5,1 C 6,4 km/h (2 Bft) 97,73 %
29.01.2018 19:06 4,9 C 4,4 C 93 % 1024,4 hPa 0,0 l/m 3,7 km/h (1 Bft) W 263 0 min 0,000 mm 0,0 UV-I 0 W/m 3,9 C 4,9 C 6,4 km/h (2 Bft) 95,45 %
29.01.2018 19:08 5,1 C 4,4 C 94 % 1024,3 hPa 0,0 l/m 5,1 km/h (1 Bft) W-SW 258 0 min 0,000 mm 0,0 UV-I 0 W/m 4,2 C 5,1 C 6,4 km/h (2 Bft) 97,62 %
29.01.2018 19:10 5,2 C 4,4 C 94 % 1024,3 hPa 0,0 l/m 4,3 km/h (1 Bft) W-SW 257 0 min 0,000 mm 0,0 UV-I 0 W/m 4,3 C 5,2 C 6,4 km/h (2 Bft) 98,11 %
29.01.2018 19:12 5,3 C 4,4 C 94 % 1024,3 hPa 0,0 l/m 4,6 km/h (1 Bft) W 277 0 min 0,000 mm 0,0 UV-I 0 W/m 4,4 C 5,3 C 6,4 km/h (2 Bft) 96,23 %
29.01.2018 19:14 5,3 C 4,4 C 94 % 1024,2 hPa 0,0 l/m 4,6 km/h (1 Bft) W 279 0 min 0,000 mm 0,0 UV-I 0 W/m 4,4 C 5,3 C 6,4 km/h (2 Bft) 97,22 %
29.01.2018 19:16 5,5 C 4,4 C 93 % 1024,2 hPa 0,0 l/m 5,7 km/h (1 Bft) W-SW 254 0 min 0,000 mm 0,0 UV-I 0 W/m 4,5 C 5,5 C 11,3 km/h (2 Bft) 98,15 %
29.01.2018 19:18 5,5 C 4,4 C 93 % 1024,3 hPa 0,0 l/m 6,0 km/h (2 Bft) W 261 0 min 0,000 mm 0,0 UV-I 0 W/m 4,5 C 5,5 C 8,0 km/h (2 Bft) 97,87 %
29.01.2018 19:20 5,4 C 4,4 C 93 % 1024,2 hPa 0,0 l/m 6,3 km/h (2 Bft) W 260 0 min 0,000 mm 0,0 UV-I 0 W/m 4,4 C 5,4 C 9,7 km/h (2 Bft) 100,00 %
29.01.2018 19:22 5,5 C 4,4 C 93 % 1024,2 hPa 0,0 l/m 8,3 km/h (2 Bft) W-SW 247 0 min 0,000 mm 0,0 UV-I 0 W/m 4,5 C 3,9 C 11,3 km/h (2 Bft) 97,56 %
29.01.2018 19:24 5,6 C 4,4 C 93 % 1024,3 hPa 0,0 l/m 8,4 km/h (2 Bft) W-SW 241 0 min 0,000 mm 0,0 UV-I 0 W/m 4,6 C 3,9 C 12,9 km/h (3 Bft) 100,00 %
29.01.2018 19:26 5,7 C 4,4 C 93 % 1024,2 hPa 0,0 l/m 8,9 km/h (2 Bft) W-SW 246 0 min 0,000 mm 0,0 UV-I 0 W/m 4,7 C 3,6 C 14,5 km/h (3 Bft) 93,62 %
29.01.2018 19:28 5,7 C 4,4 C 93 % 1024,2 hPa 0,0 l/m 8,3 km/h (2 Bft) W-SW 255 0 min 0,000 mm 0,0 UV-I 0 W/m 4,7 C 4,1 C 12,9 km/h (3 Bft) 98,00 %
29.01.2018 19:30 5,8 C 4,4 C 92 % 1024,2 hPa 0,0 l/m 6,2 km/h (2 Bft) W-SW 253 0 min 0,000 mm 0,0 UV-I 0 W/m 4,6 C 5,8 C 9,7 km/h (2 Bft) 100,00 %
29.01.2018 19:32 5,7 C 4,4 C 92 % 1024,3 hPa 0,0 l/m 8,7 km/h (2 Bft) W-SW 254 0 min 0,000 mm 0,0 UV-I 0 W/m 4,5 C 3,8 C 11,3 km/h (2 Bft) 100,00 %
29.01.2018 19:34 5,7 C 4,4 C 92 % 1024,3 hPa 0,0 l/m 9,1 km/h (2 Bft) W 271 0 min 0,000 mm 0,0 UV-I 0 W/m 4,5 C 3,5 C 12,9 km/h (3 Bft) 98,11 %
29.01.2018 19:36 5,8 C 4,4 C 92 % 1024,3 hPa 0,0 l/m 8,2 km/h (2 Bft) W 259 0 min 0,000 mm 0,0 UV-I 0 W/m 4,6 C 4,3 C 12,9 km/h (3 Bft) 100,00 %
29.01.2018 19:38 5,7 C 4,4 C 92 % 1024,4 hPa 0,0 l/m 7,8 km/h (2 Bft) W 259 0 min 0,000 mm 0,0 UV-I 0 W/m 4,5 C 4,5 C 11,3 km/h (2 Bft) 100,00 %
29.01.2018 19:40 5,7 C 4,4 C 92 % 1024,3 hPa 0,0 l/m 7,7 km/h (2 Bft) W 265 0 min 0,000 mm 0,0 UV-I 0 W/m 4,5 C 4,6 C 11,3 km/h (2 Bft) 100,00 %
29.01.2018 19:42 5,7 C 4,4 C 92 % 1024,3 hPa 0,0 l/m 7,6 km/h (2 Bft) W-SW 257 0 min 0,000 mm 0,0 UV-I 0 W/m 4,5 C 4,7 C 11,3 km/h (2 Bft) 98,00 %
29.01.2018 19:44 5,7 C 4,4 C 92 % 1024,4 hPa 0,0 l/m 8,5 km/h (2 Bft) W-SW 243 0 min 0,000 mm 0,0 UV-I 0 W/m 4,5 C 3,9 C 12,9 km/h (3 Bft) 97,87 %
29.01.2018 19:46 5,7 C 4,4 C 92 % 1024,4 hPa 0,0 l/m 10,4 km/h (2 Bft) W 262 0 min 0,000 mm 0,0 UV-I 0 W/m 4,5 C 2,6 C 12,9 km/h (3 Bft) 97,87 %
29.01.2018 19:48 5,7 C 4,4 C 92 % 1024,4 hPa 0,0 l/m 9,8 km/h (2 Bft) W 264 0 min 0,000 mm 0,0 UV-I 0 W/m 4,5 C 3,0 C 12,9 km/h (3 Bft) 97,44 %
29.01.2018 19:50 5,7 C 4,4 C 92 % 1024,4 hPa 0,0 l/m 8,5 km/h (2 Bft) W 263 0 min 0,000 mm 0,0 UV-I 0 W/m 4,5 C 3,9 C 9,7 km/h (2 Bft) 96,36 %
29.01.2018 19:52 5,7 C 4,4 C 92 % 1024,4 hPa 0,0 l/m 8,5 km/h (2 Bft) W 263 0 min 0,000 mm 0,0 UV-I 0 W/m 4,5 C 3,9 C 11,3 km/h (2 Bft) 96,08 %
29.01.2018 19:54 5,7 C 4,4 C 92 % 1024,4 hPa 0,0 l/m 7,6 km/h (2 Bft) W 267 0 min 0,000 mm 0,0 UV-I 0 W/m 4,5 C 4,7 C 9,7 km/h (2 Bft) 97,14 %
29.01.2018 19:56 5,7 C 4,4 C 92 % 1024,5 hPa 0,0 l/m 8,7 km/h (2 Bft) W-SW 246 0 min 0,000 mm 0,0 UV-I 0 W/m 4,5 C 3,8 C 12,9 km/h (3 Bft) 98,00 %
29.01.2018 19:58 5,7 C 4,4 C 92 % 1024,4 hPa 0,0 l/m 9,0 km/h (2 Bft) W-SW 257 0 min 0,000 mm 0,0 UV-I 0 W/m 4,5 C 3,6 C 14,5 km/h (3 Bft) 91,49 %
29.01.2018 20:00 5,7 C 4,4 C 92 % 1024,4 hPa 0,0 l/m 10,7 km/h (2 Bft) W 262 0 min 0,000 mm 0,0 UV-I 0 W/m 4,5 C 2,4 C 14,5 km/h (3 Bft) 93,62 %
29.01.2018 20:02 5,7 C 4,4 C 92 % 1024,4 hPa 0,0 l/m 9,4 km/h (2 Bft) W 260 0 min 0,000 mm 0,0 UV-I 0 W/m 4,5 C 3,3 C 12,9 km/h (3 Bft) 98,21 %
29.01.2018 20:04 5,7 C 4,4 C 92 % 1024,5 hPa 0,0 l/m 9,5 km/h (2 Bft) W 260 0 min 0,000 mm 0,0 UV-I 0 W/m 4,5 C 3,2 C 11,3 km/h (2 Bft) 97,14 %
29.01.2018 20:06 5,7 C 4,4 C 92 % 1024,5 hPa 0,0 l/m 9,1 km/h (2 Bft) W-SW 255 0 min 0,000 mm 0,0 UV-I 0 W/m 4,5 C 3,5 C 12,9 km/h (3 Bft) 96,23 %
29.01.2018 20:08 5,7 C 4,4 C 92 % 1024,6 hPa 0,0 l/m 8,1 km/h (2 Bft) W 263 0 min 0,000 mm 0,0 UV-I 0 W/m 4,5 C 4,3 C 11,3 km/h (2 Bft) 95,12 %
29.01.2018 20:10 5,6 C 4,4 C 92 % 1024,6 hPa 0,0 l/m 8,8 km/h (2 Bft) W-SW 257 0 min 0,000 mm 0,0 UV-I 0 W/m 4,4 C 3,6 C 12,9 km/h (3 Bft) 98,00 %
29.01.2018 20:12 5,6 C 4,4 C 92 % 1024,6 hPa 0,0 l/m 7,5 km/h (2 Bft) W-SW 240 0 min 0,000 mm 0,0 UV-I 0 W/m 4,4 C 4,6 C 11,3 km/h (2 Bft) 98,11 %
29.01.2018 20:14 5,6 C 4,4 C 92 % 1024,5 hPa 0,0 l/m 6,1 km/h (2 Bft) W-SW 252 0 min 0,000 mm 0,0 UV-I 0 W/m 4,4 C 5,6 C 9,7 km/h (2 Bft) 93,62 %
29.01.2018 20:16 5,5 C 4,4 C 92 % 1024,4 hPa 0,0 l/m 6,3 km/h (2 Bft) SW 233 0 min 0,000 mm 0,0 UV-I 0 W/m 4,3 C 5,5 C 11,3 km/h (2 Bft) 95,74 %
29.01.2018 20:18 5,5 C 4,4 C 92 % 1024,4 hPa 0,0 l/m 7,0 km/h (2 Bft) SW 236 0 min 0,000 mm 0,0 UV-I 0 W/m 4,3 C 5,0 C 11,3 km/h (2 Bft) 97,87 %
29.01.2018 20:20 5,5 C 4,4 C 92 % 1024,4 hPa 0,0 l/m 7,8 km/h (2 Bft) W 266 0 min 0,000 mm 0,0 UV-I 0 W/m 4,3 C 4,3 C 11,3 km/h (2 Bft) 100,00 %
29.01.2018 20:22 5,4 C 4,4 C 92 % 1024,4 hPa 0,0 l/m 9,2 km/h (2 Bft) W-SW 254 0 min 0,000 mm 0,0 UV-I 0 W/m 4,2 C 3,1 C 14,5 km/h (3 Bft) 96,23 %
29.01.2018 20:24 5,4 C 4,4 C 92 % 1024,5 hPa 0,0 l/m 8,3 km/h (2 Bft) W-SW 249 0 min 0,000 mm 0,0 UV-I 0 W/m 4,2 C 3,8 C 12,9 km/h (3 Bft) 98,00 %
29.01.2018 20:26 5,3 C 4,4 C 92 % 1024,4 hPa 0,0 l/m 8,2 km/h (2 Bft) SW 236 0 min 0,000 mm 0,0 UV-I 0 W/m 4,1 C 3,8 C 12,9 km/h (3 Bft) 97,56 %
29.01.2018 20:28 5,3 C 4,4 C 92 % 1024,4 hPa 0,0 l/m 6,4 km/h (2 Bft) W-SW 241 0 min 0,000 mm 0,0 UV-I 0 W/m 4,1 C 5,3 C 8,0 km/h (2 Bft) 97,92 %
29.01.2018 20:30 5,2 C 4,4 C 92 % 1024,4 hPa 0,0 l/m 10,0 km/h (2 Bft) W 268 0 min 0,000 mm 0,0 UV-I 0 W/m 4,0 C 2,3 C 12,9 km/h (3 Bft) 97,87 %
29.01.2018 20:32 5,2 C 4,4 C 93 % 1024,4 hPa 0,0 l/m 9,9 km/h (2 Bft) W 261 0 min 0,000 mm 0,0 UV-I 0 W/m 4,2 C 2,4 C 12,9 km/h (3 Bft) 97,56 %
29.01.2018 20:34 5,3 C 4,4 C 93 % 1024,5 hPa 0,0 l/m 10,7 km/h (2 Bft) W 265 0 min 0,000 mm 0,0 UV-I 0 W/m 4,3 C 1,9 C 14,5 km/h (3 Bft) 98,21 %
29.01.2018 20:36 5,2 C 4,4 C 93 % 1024,6 hPa 0,0 l/m 9,4 km/h (2 Bft) W-SW 255 0 min 0,000 mm 0,0 UV-I 0 W/m 4,2 C 2,7 C 12,9 km/h (3 Bft) 94,74 %
29.01.2018 20:38 5,2 C 4,4 C 93 % 1024,6 hPa 0,0 l/m 11,3 km/h (2 Bft) W-SW 237 0 min 0,000 mm 0,0 UV-I 0 W/m 4,2 C 1,4 C 14,5 km/h (3 Bft) 98,11 %
29.01.2018 20:40 5,2 C 4,4 C 93 % 1024,6 hPa 0,0 l/m 10,8 km/h (2 Bft) W-SW 248 0 min 0,000 mm 0,0 UV-I 0 W/m 4,2 C 1,7 C 14,5 km/h (3 Bft) 97,73 %
29.01.2018 20:42 5,2 C 4,4 C 93 % 1024,7 hPa 0,0 l/m 10,2 km/h (2 Bft) W-SW 254 0 min 0,000 mm 0,0 UV-I 0 W/m 4,2 C 2,2 C 12,9 km/h (3 Bft) 96,23 %
29.01.2018 20:44 5,3 C 4,4 C 93 % 1024,7 hPa 0,0 l/m 10,6 km/h (2 Bft) W-SW 242 0 min 0,000 mm 0,0 UV-I 0 W/m 4,3 C 2,0 C 14,5 km/h (3 Bft) 94,74 %
29.01.2018 20:46 5,2 C 4,4 C 93 % 1024,7 hPa 0,0 l/m 10,8 km/h (2 Bft) W-SW 248 0 min 0,000 mm 0,0 UV-I 0 W/m 4,2 C 1,7 C 12,9 km/h (3 Bft) 97,87 %
29.01.2018 20:48 5,2 C 4,4 C 93 % 1024,6 hPa 0,0 l/m 10,3 km/h (2 Bft) W 259 0 min 0,000 mm 0,0 UV-I 0 W/m 4,2 C 2,1 C 14,5 km/h (3 Bft) 96,43 %
29.01.2018 20:50 5,2 C 4,4 C 93 % 1024,6 hPa 0,0 l/m 9,0 km/h (2 Bft) W 265 0 min 0,000 mm 0,0 UV-I 0 W/m 4,2 C 3,0 C 12,9 km/h (3 Bft) 95,12 %
29.01.2018 20:52 5,2 C 4,4 C 93 % 1024,7 hPa 0,0 l/m 9,6 km/h (2 Bft) W-SW 238 0 min 0,000 mm 0,0 UV-I 0 W/m 4,2 C 2,6 C 14,5 km/h (3 Bft) 98,00 %
29.01.2018 20:54 5,2 C 4,4 C 93 % 1024,7 hPa 0,0 l/m 9,0 km/h (2 Bft) W 259 0 min 0,000 mm 0,0 UV-I 0 W/m 4,2 C 3,0 C 14,5 km/h (3 Bft) 97,56 %
29.01.2018 20:56 5,2 C 4,4 C 93 % 1024,7 hPa 0,0 l/m 8,8 km/h (2 Bft) W-SW 254 0 min 0,000 mm 0,0 UV-I 0 W/m 4,2 C 3,2 C 11,3 km/h (2 Bft) 96,23 %
29.01.2018 20:58 5,2 C 4,4 C 93 % 1024,7 hPa 0,0 l/m 8,0 km/h (2 Bft) W 260 0 min 0,000 mm 0,0 UV-I 0 W/m 4,2 C 3,8 C 11,3 km/h (2 Bft) 100,00 %
29.01.2018 21:00 5,1 C 4,4 C 93 % 1024,8 hPa 0,0 l/m 8,6 km/h (2 Bft) W 267 0 min 0,000 mm 0,0 UV-I 0 W/m 4,1 C 3,2 C 11,3 km/h (2 Bft) 98,11 %
29.01.2018 21:02 5,2 C 4,4 C 93 % 1024,8 hPa 0,0 l/m 9,7 km/h (2 Bft) W-SW 245 0 min 0,000 mm 0,0 UV-I 0 W/m 4,2 C 2,5 C 14,5 km/h (3 Bft) 98,11 %
29.01.2018 21:04 5,2 C 4,4 C 93 % 1024,8 hPa 0,0 l/m 8,1 km/h (2 Bft) W-SW 252 0 min 0,000 mm 0,0 UV-I 0 W/m 4,2 C 3,7 C 14,5 km/h (3 Bft) 97,56 %
29.01.2018 21:06 5,2 C 4,4 C 93 % 1024,8 hPa 0,0 l/m 6,3 km/h (2 Bft) W-SW 252 0 min 0,000 mm 0,0 UV-I 0 W/m 4,2 C 5,2 C 9,7 km/h (2 Bft) 97,78 %
29.01.2018 21:08 5,2 C 4,4 C 93 % 1024,9 hPa 0,0 l/m 8,4 km/h (2 Bft) W-SW 248 0 min 0,000 mm 0,0 UV-I 0 W/m 4,2 C 3,5 C 12,9 km/h (3 Bft) 98,00 %
29.01.2018 21:10 5,2 C 4,4 C 93 % 1024,8 hPa 0,0 l/m 8,0 km/h (2 Bft) W 267 0 min 0,000 mm 0,0 UV-I 0 W/m 4,2 C 3,8 C 11,3 km/h (2 Bft) 97,73 %
29.01.2018 21:12 5,1 C 4,4 C 93 % 1024,9 hPa 0,0 l/m 8,0 km/h (2 Bft) W-SW 254 0 min 0,000 mm 0,0 UV-I 0 W/m 4,1 C 3,7 C 11,3 km/h (2 Bft) 97,87 %
29.01.2018 21:14 5,1 C 4,4 C 93 % 1025,0 hPa 0,0 l/m 9,2 km/h (2 Bft) W 259 0 min 0,000 mm 0,0 UV-I 0 W/m 4,1 C 2,8 C 12,9 km/h (3 Bft) 96,00 %
29.01.2018 21:16 5,1 C 4,4 C 93 % 1025,0 hPa 0,0 l/m 9,1 km/h (2 Bft) W-SW 242 0 min 0,000 mm 0,0 UV-I 0 W/m 4,1 C 2,8 C 12,9 km/h (3 Bft) 97,73 %
29.01.2018 21:18 5,1 C 4,4 C 93 % 1025,0 hPa 0,0 l/m 9,3 km/h (2 Bft) W 273 0 min 0,000 mm 0,0 UV-I 0 W/m 4,1 C 2,7 C 14,5 km/h (3 Bft) 98,21 %
29.01.2018 21:20 5,2 C 4,4 C 93 % 1025,1 hPa 0,0 l/m 9,5 km/h (2 Bft) W 259 0 min 0,000 mm 0,0 UV-I 0 W/m 4,2 C 2,7 C 14,5 km/h (3 Bft) 97,37 %
29.01.2018 21:22 5,2 C 4,4 C 93 % 1025,1 hPa 0,0 l/m 8,0 km/h (2 Bft) W-SW 257 0 min 0,000 mm 0,0 UV-I 0 W/m 4,2 C 3,8 C 11,3 km/h (2 Bft) 98,00 %
29.01.2018 21:24 5,2 C 4,4 C 93 % 1025,1 hPa 0,0 l/m 9,7 km/h (2 Bft) W-SW 246 0 min 0,000 mm 0,0 UV-I 0 W/m 4,2 C 2,5 C 14,5 km/h (3 Bft) 96,00 %
29.01.2018 21:26 5,2 C 4,4 C 93 % 1025,1 hPa 0,0 l/m 8,1 km/h (2 Bft) W-SW 258 0 min 0,000 mm 0,0 UV-I 0 W/m 4,2 C 3,7 C 11,3 km/h (2 Bft) 97,87 %
29.01.2018 21:28 5,2 C 4,4 C 93 % 1025,1 hPa 0,0 l/m 8,6 km/h (2 Bft) W-SW 237 0 min 0,000 mm 0,0 UV-I 0 W/m 4,2 C 3,3 C 14,5 km/h (3 Bft) 97,37 %
29.01.2018 21:30 5,3 C 4,4 C 93 % 1025,1 hPa 0,0 l/m 7,8 km/h (2 Bft) W 274 0 min 0,000 mm 0,0 UV-I 0 W/m 4,3 C 4,1 C 14,5 km/h (3 Bft) 97,87 %
29.01.2018 21:32 5,4 C 4,4 C 93 % 1025,1 hPa 0,0 l/m 6,7 km/h (2 Bft) W-SW 249 0 min 0,000 mm 0,0 UV-I 0 W/m 4,4 C 5,2 C 9,7 km/h (2 Bft) 96,00 %
29.01.2018 21:34 5,5 C 4,4 C 93 % 1025,1 hPa 0,0 l/m 10,0 km/h (2 Bft) W-SW 238 0 min 0,000 mm 0,0 UV-I 0 W/m 4,5 C 2,6 C 14,5 km/h (3 Bft) 97,87 %
29.01.2018 21:36 5,6 C 4,4 C 92 % 1025,1 hPa 0,0 l/m 8,9 km/h (2 Bft) W-SW 239 0 min 0,000 mm 0,0 UV-I 0 W/m 4,4 C 3,5 C 12,9 km/h (3 Bft) 98,11 %
29.01.2018 21:38 5,6 C 4,4 C 92 % 1025,1 hPa 0,0 l/m 10,0 km/h (2 Bft) SW 228 0 min 0,000 mm 0,0 UV-I 0 W/m 4,4 C 2,7 C 16,1 km/h (3 Bft) 100,00 %
29.01.2018 21:40 5,5 C 4,4 C 92 % 1025,2 hPa 0,0 l/m 7,7 km/h (2 Bft) W-SW 240 0 min 0,000 mm 0,0 UV-I 0 W/m 4,3 C 4,4 C 12,9 km/h (3 Bft) 100,00 %
29.01.2018 21:42 5,4 C 4,4 C 92 % 1025,2 hPa 0,0 l/m 7,6 km/h (2 Bft) W-SW 240 0 min 0,000 mm 0,0 UV-I 0 W/m 4,2 C 4,4 C 9,7 km/h (2 Bft) 100,00 %
29.01.2018 21:44 5,4 C 4,4 C 92 % 1025,1 hPa 0,0 l/m 7,3 km/h (2 Bft) W-SW 252 0 min 0,000 mm 0,0 UV-I 0 W/m 4,2 C 4,6 C 11,3 km/h (2 Bft) 100,00 %
29.01.2018 21:46 5,6 C 4,4 C 93 % 1025,2 hPa 0,0 l/m 9,2 km/h (2 Bft) W-SW 243 0 min 0,000 mm 0,0 UV-I 0 W/m 4,6 C 3,3 C 14,5 km/h (3 Bft) 97,62 %
29.01.2018 21:48 5,7 C 4,4 C 93 % 1025,1 hPa 0,0 l/m 10,1 km/h (2 Bft) W 275 0 min 0,000 mm 0,0 UV-I 0 W/m 4,7 C 2,8 C 16,1 km/h (3 Bft) 95,74 %
29.01.2018 21:50 5,8 C 4,4 C 92 % 1025,1 hPa 0,0 l/m 10,1 km/h (2 Bft) W-SW 256 0 min 0,000 mm 0,0 UV-I 0 W/m 4,6 C 2,9 C 16,1 km/h (3 Bft) 97,87 %
29.01.2018 21:52 6,1 C 4,4 C 92 % 1025,1 hPa 0,0 l/m 11,6 km/h (2 Bft) W-SW 242 0 min 0,000 mm 0,0 UV-I 0 W/m 4,9 C 2,3 C 19,3 km/h (3 Bft) 97,56 %
29.01.2018 21:54 6,3 C 4,4 C 92 % 1025,1 hPa 0,0 l/m 13,0 km/h (3 Bft) W 259 0 min 0,000 mm 0,0 UV-I 0 W/m 5,1 C 1,7 C 19,3 km/h (3 Bft) 100,00 %
29.01.2018 21:56 6,3 C 4,4 C 91 % 1025,2 hPa 0,0 l/m 13,1 km/h (3 Bft) W 260 0 min 0,000 mm 0,0 UV-I 0 W/m 4,9 C 1,6 C 17,7 km/h (3 Bft) 100,00 %
29.01.2018 21:58 6,5 C 4,4 C 91 % 1025,1 hPa 0,0 l/m 12,6 km/h (3 Bft) W-SW 248 0 min 0,000 mm 0,0 UV-I 0 W/m 5,1 C 2,1 C 19,3 km/h (3 Bft) 100,00 %
29.01.2018 22:00 6,6 C 4,4 C 91 % 1025,2 hPa 0,0 l/m 14,1 km/h (3 Bft) W-SW 246 0 min 0,000 mm 0,0 UV-I 0 W/m 5,2 C 1,5 C 20,9 km/h (4 Bft) 100,00 %
29.01.2018 22:02 6,7 C 4,4 C 91 % 1025,2 hPa 0,0 l/m 13,5 km/h (3 Bft) W 259 0 min 0,000 mm 0,0 UV-I 0 W/m 5,3 C 1,9 C 20,9 km/h (4 Bft) 97,87 %
29.01.2018 22:04 6,8 C 4,4 C 90 % 1025,2 hPa 0,0 l/m 12,6 km/h (3 Bft) W 265 0 min 0,000 mm 0,0 UV-I 0 W/m 5,3 C 2,5 C 20,9 km/h (4 Bft) 97,37 %
29.01.2018 22:06 6,9 C 4,4 C 90 % 1025,2 hPa 0,0 l/m 15,1 km/h (3 Bft) W-SW 246 0 min 0,000 mm 0,0 UV-I 0 W/m 5,4 C 1,3 C 24,1 km/h (4 Bft) 98,11 %
29.01.2018 22:08 6,9 C 4,4 C 90 % 1025,2 hPa 0,0 l/m 14,2 km/h (3 Bft) W-SW 249 0 min 0,000 mm 0,0 UV-I 0 W/m 5,4 C 1,8 C 20,9 km/h (4 Bft) 100,00 %
29.01.2018 22:10 6,9 C 4,4 C 89 % 1025,3 hPa 0,0 l/m 14,2 km/h (3 Bft) W-SW 255 0 min 0,000 mm 0,0 UV-I 0 W/m 5,2 C 1,8 C 19,3 km/h (3 Bft) 100,00 %
29.01.2018 22:12 6,9 C 4,4 C 90 % 1025,2 hPa 0,0 l/m 12,8 km/h (3 Bft) W-SW 247 0 min 0,000 mm 0,0 UV-I 0 W/m 5,4 C 2,5 C 19,3 km/h (3 Bft) 100,00 %
29.01.2018 22:14 6,9 C 4,4 C 90 % 1025,3 hPa 0,0 l/m 16,4 km/h (3 Bft) W-SW 244 0 min 0,000 mm 0,0 UV-I 0 W/m 5,4 C 0,7 C 22,5 km/h (4 Bft) 97,87 %
29.01.2018 22:16 6,9 C 4,4 C 89 % 1025,3 hPa 0,0 l/m 12,5 km/h (3 Bft) W 271 0 min 0,000 mm 0,0 UV-I 0 W/m 5,2 C 2,7 C 19,3 km/h (3 Bft) 100,00 %
29.01.2018 22:18 6,9 C 4,4 C 89 % 1025,2 hPa 0,0 l/m 9,9 km/h (2 Bft) SW 236 0 min 0,000 mm 0,0 UV-I 0 W/m 5,2 C 4,2 C 16,1 km/h (3 Bft) 100,00 %
29.01.2018 22:20 6,9 C 4,4 C 89 % 1025,3 hPa 0,0 l/m 11,0 km/h (2 Bft) W-SW 254 0 min 0,000 mm 0,0 UV-I 0 W/m 5,2 C 3,5 C 17,7 km/h (3 Bft) 100,00 %
29.01.2018 22:22 6,9 C 4,4 C 90 % 1025,3 hPa 0,0 l/m 10,6 km/h (2 Bft) W 274 0 min 0,000 mm 0,0 UV-I 0 W/m 5,4 C 3,8 C 16,1 km/h (3 Bft) 97,44 %
29.01.2018 22:24 6,8 C 4,4 C 89 % 1025,3 hPa 0,0 l/m 10,8 km/h (2 Bft) W-SW 252 0 min 0,000 mm 0,0 UV-I 0 W/m 5,1 C 3,5 C 14,5 km/h (3 Bft) 100,00 %
29.01.2018 22:26 6,8 C 4,4 C 90 % 1025,3 hPa 0,0 l/m 11,7 km/h (2 Bft) W-SW 244 0 min 0,000 mm 0,0 UV-I 0 W/m 5,3 C 3,0 C 16,1 km/h (3 Bft) 100,00 %
29.01.2018 22:28 6,8 C 4,4 C 90 % 1025,4 hPa 0,0 l/m 9,0 km/h (2 Bft) SW 217 0 min 0,000 mm 0,0 UV-I 0 W/m 5,3 C 4,7 C 14,5 km/h (3 Bft) 100,00 %
29.01.2018 22:30 6,7 C 4,4 C 90 % 1025,4 hPa 0,0 l/m 9,3 km/h (2 Bft) W-SW 248 0 min 0,000 mm 0,0 UV-I 0 W/m 5,2 C 4,4 C 14,5 km/h (3 Bft) 100,00 %
29.01.2018 22:32 6,7 C 4,4 C 90 % 1025,4 hPa 0,0 l/m 13,4 km/h (3 Bft) W 269 0 min 0,000 mm 0,0 UV-I 0 W/m 5,2 C 1,9 C 19,3 km/h (3 Bft) 100,00 %
29.01.2018 22:34 6,8 C 4,4 C 90 % 1025,4 hPa 0,0 l/m 13,7 km/h (3 Bft) W 263 0 min 0,000 mm 0,0 UV-I 0 W/m 5,3 C 1,9 C 17,7 km/h (3 Bft) 98,53 %
29.01.2018 22:36 6,8 C 4,4 C 90 % 1025,5 hPa 0,0 l/m 12,2 km/h (2 Bft) W-SW 238 0 min 0,000 mm 0,0 UV-I 0 W/m 5,3 C 2,7 C 17,7 km/h (3 Bft) 97,67 %
29.01.2018 22:38 6,8 C 4,4 C 90 % 1025,4 hPa 0,0 l/m 12,5 km/h (3 Bft) W-SW 255 0 min 0,000 mm 0,0 UV-I 0 W/m 5,3 C 2,5 C 19,3 km/h (3 Bft) 98,11 %
29.01.2018 22:40 6,8 C 4,4 C 90 % 1025,5 hPa 0,0 l/m 12,0 km/h (2 Bft) SW 225 0 min 0,000 mm 0,0 UV-I 0 W/m 5,3 C 2,8 C 17,7 km/h (3 Bft) 97,87 %
29.01.2018 22:42 6,9 C 4,4 C 89 % 1025,4 hPa 0,0 l/m 17,1 km/h (3 Bft) SW 221 0 min 0,000 mm 0,0 UV-I 0 W/m 5,2 C 0,4 C 25,7 km/h (4 Bft) 97,87 %
29.01.2018 22:44 7,0 C 4,4 C 89 % 1025,5 hPa 0,0 l/m 17,2 km/h (3 Bft) W-SW 242 0 min 0,000 mm 0,0 UV-I 0 W/m 5,3 C 0,5 C 25,7 km/h (4 Bft) 97,37 %
29.01.2018 22:46 7,1 C 4,4 C 88 % 1025,5 hPa 0,0 l/m 15,8 km/h (3 Bft) W-SW 257 0 min 0,000 mm 0,0 UV-I 0 W/m 5,2 C 1,3 C 22,5 km/h (4 Bft) 100,00 %
29.01.2018 22:48 7,1 C 4,4 C 88 % 1025,5 hPa 0,0 l/m 15,6 km/h (3 Bft) W-NW 290 0 min 0,000 mm 0,0 UV-I 0 W/m 5,2 C 1,3 C 22,5 km/h (4 Bft) 100,00 %
29.01.2018 22:50 7,2 C 4,4 C 88 % 1025,6 hPa 0,0 l/m 14,9 km/h (3 Bft) W 280 0 min 0,000 mm 0,0 UV-I 0 W/m 5,3 C 1,8 C 22,5 km/h (4 Bft) 96,23 %
29.01.2018 22:52 7,1 C 4,4 C 88 % 1025,6 hPa 0,0 l/m 14,0 km/h (3 Bft) W 261 0 min 0,000 mm 0,0 UV-I 0 W/m 5,2 C 2,1 C 20,9 km/h (4 Bft) 100,00 %
29.01.2018 22:55 7,2 C 4,4 C 88 % 1025,6 hPa 0,0 l/m 15,6 km/h (3 Bft) W 272 0 min 0,000 mm 0,0 UV-I 0 W/m 5,3 C 1,5 C 24,1 km/h (4 Bft) 98,57 %
29.01.2018 22:56 7,3 C 4,4 C 88 % 1025,6 hPa 0,0 l/m 15,2 km/h (3 Bft) W 271 0 min 0,000 mm 0,0 UV-I 0 W/m 5,4 C 1,8 C 19,3 km/h (3 Bft) 95,65 %
29.01.2018 22:58 7,3 C 4,4 C 88 % 1025,6 hPa 0,0 l/m 15,7 km/h (3 Bft) W 265 0 min 0,000 mm 0,0 UV-I 0 W/m 5,4 C 1,5 C 30,6 km/h (5 Bft) 100,00 %
29.01.2018 23:00 7,4 C 4,4 C 87 % 1025,6 hPa 0,0 l/m 14,8 km/h (3 Bft) W 277 0 min 0,000 mm 0,0 UV-I 0 W/m 5,4 C 2,1 C 24,1 km/h (4 Bft) 97,62 %
29.01.2018 23:02 7,6 C 4,4 C 87 % 1025,7 hPa 0,0 l/m 21,1 km/h (4 Bft) W 262 0 min 0,026 mm 0,0 UV-I 0 W/m 5,6 C -0,2 C 27,4 km/h (4 Bft) 97,87 %
29.01.2018 23:04 7,7 C 4,4 C 87 % 1025,7 hPa 0,0 l/m 19,6 km/h (3 Bft) W 271 0 min 0,000 mm 0,0 UV-I 0 W/m 5,7 C 0,5 C 25,7 km/h (4 Bft) 96,00 %
29.01.2018 23:06 7,7 C 4,4 C 86 % 1025,8 hPa 0,0 l/m 17,8 km/h (3 Bft) W-NW 282 0 min 0,000 mm 0,0 UV-I 0 W/m 5,5 C 1,1 C 27,4 km/h (4 Bft) 100,00 %
29.01.2018 23:08 7,8 C 4,4 C 86 % 1025,8 hPa 0,0 l/m 17,1 km/h (3 Bft) W 265 0 min 0,000 mm 0,0 UV-I 0 W/m 5,6 C 1,6 C 27,4 km/h (4 Bft) 98,11 %
29.01.2018 23:10 7,7 C 4,4 C 86 % 1025,8 hPa 0,0 l/m 15,0 km/h (3 Bft) SW 234 0 min 0,000 mm 0,0 UV-I 0 W/m 5,5 C 2,3 C 20,9 km/h (4 Bft) 100,00 %
29.01.2018 23:12 7,8 C 4,4 C 86 % 1025,9 hPa 0,0 l/m 19,7 km/h (3 Bft) W 270 0 min 0,000 mm 0,0 UV-I 0 W/m 5,6 C 0,6 C 30,6 km/h (5 Bft) 97,14 %
29.01.2018 23:14 7,8 C 4,4 C 86 % 1025,9 hPa 0,0 l/m 17,6 km/h (3 Bft) W-SW 255 0 min 0,000 mm 0,0 UV-I 0 W/m 5,6 C 1,4 C 29,0 km/h (5 Bft) 94,00 %
29.01.2018 23:16 7,9 C 4,4 C 86 % 1025,9 hPa 0,0 l/m 15,0 km/h (3 Bft) W-NW 294 0 min 0,000 mm 0,0 UV-I 0 W/m 5,7 C 2,6 C 20,9 km/h (4 Bft) 98,11 %
29.01.2018 23:18 7,9 C 4,4 C 86 % 1025,9 hPa 0,0 l/m 15,4 km/h (3 Bft) W 268 0 min 0,000 mm 0,0 UV-I 0 W/m 5,7 C 2,4 C 24,1 km/h (4 Bft) 97,87 %
29.01.2018 23:20 8,0 C 4,4 C 86 % 1026,0 hPa 0,0 l/m 21,1 km/h (4 Bft) W-NW 284 0 min 0,000 mm 0,0 UV-I 0 W/m 5,8 C 0,3 C 35,4 km/h (5 Bft) 94,74 %
29.01.2018 23:22 8,1 C 4,4 C 85 % 1026,0 hPa 0,0 l/m 16,5 km/h (3 Bft) W 263 0 min 0,000 mm 0,0 UV-I 0 W/m 5,7 C 2,2 C 30,6 km/h (5 Bft) 95,12 %
29.01.2018 23:24 8,1 C 4,4 C 85 % 1026,1 hPa 0,0 l/m 17,2 km/h (3 Bft) W-SW 249 0 min 0,000 mm 0,0 UV-I 0 W/m 5,7 C 1,9 C 22,5 km/h (4 Bft) 96,23 %
29.01.2018 23:26 8,2 C 4,4 C 85 % 1026,1 hPa 0,0 l/m 15,4 km/h (3 Bft) W-SW 249 0 min 0,000 mm 0,0 UV-I 0 W/m 5,8 C 2,8 C 22,5 km/h (4 Bft) 95,74 %
29.01.2018 23:28 8,2 C 4,4 C 85 % 1026,1 hPa 0,0 l/m 18,0 km/h (3 Bft) W 269 0 min 0,000 mm 0,0 UV-I 0 W/m 5,8 C 1,7 C 27,4 km/h (4 Bft) 94,00 %
29.01.2018 23:30 8,2 C 4,4 C 85 % 1026,1 hPa 0,0 l/m 15,8 km/h (3 Bft) W-SW 250 0 min 0,000 mm 0,0 UV-I 0 W/m 5,8 C 2,6 C 22,5 km/h (4 Bft) 93,62 %
29.01.2018 23:32 8,2 C 4,4 C 85 % 1026,1 hPa 0,0 l/m 20,9 km/h (4 Bft) W-SW 240 0 min 0,000 mm 0,0 UV-I 0 W/m 5,8 C 0,7 C 38,6 km/h (5 Bft) 93,62 %
29.01.2018 23:34 8,2 C 4,4 C 84 % 1026,1 hPa 0,0 l/m 22,9 km/h (4 Bft) W-NW 286 0 min 0,000 mm 0,0 UV-I 0 W/m 5,7 C 0,0 C 32,2 km/h (5 Bft) 92,86 %
29.01.2018 23:36 8,3 C 4,4 C 83 % 1026,2 hPa 0,0 l/m 24,9 km/h (4 Bft) W 261 0 min 0,000 mm 0,0 UV-I 0 W/m 5,6 C -0,4 C 41,8 km/h (6 Bft) 98,08 %
29.01.2018 23:38 8,3 C 4,4 C 82 % 1026,3 hPa 0,0 l/m 26,8 km/h (4 Bft) SW 219 0 min 0,000 mm 0,0 UV-I 0 W/m 5,4 C -1,0 C 41,8 km/h (6 Bft) 96,23 %
29.01.2018 23:40 8,3 C 4,4 C 82 % 1026,3 hPa 0,0 l/m 31,9 km/h (5 Bft) W-SW 254 0 min 0,000 mm 0,0 UV-I 0 W/m 5,4 C -2,2 C 49,9 km/h (6 Bft) 97,22 %
29.01.2018 23:42 8,3 C 4,4 C 82 % 1026,3 hPa 0,0 l/m 19,4 km/h (3 Bft) W-SW 252 0 min 0,000 mm 0,0 UV-I 0 W/m 5,4 C 1,3 C 25,7 km/h (4 Bft) 94,64 %
29.01.2018 23:44 8,3 C 4,4 C 82 % 1026,2 hPa 0,0 l/m 16,8 km/h (3 Bft) W 260 0 min 0,000 mm 0,0 UV-I 0 W/m 5,4 C 2,3 C 25,7 km/h (4 Bft) 97,87 %
29.01.2018 23:46 8,3 C 4,4 C 81 % 1026,3 hPa 0,0 l/m 20,6 km/h (4 Bft) W-SW 247 0 min 0,000 mm 0,0 UV-I 0 W/m 5,2 C 0,9 C 30,6 km/h (5 Bft) 97,56 %
29.01.2018 23:48 8,3 C 4,4 C 80 % 1026,3 hPa 0,0 l/m 26,3 km/h (4 Bft) W 261 0 min 0,000 mm 0,0 UV-I 0 W/m 5,1 C -0,8 C 40,2 km/h (6 Bft) 98,11 %
29.01.2018 23:50 8,3 C 4,4 C 81 % 1026,3 hPa 0,0 l/m 20,3 km/h (4 Bft) W-SW 257 0 min 0,000 mm 0,0 UV-I 0 W/m 5,2 C 1,0 C 29,0 km/h (5 Bft) 94,74 %
29.01.2018 23:52 8,2 C 4,4 C 80 % 1026,3 hPa 0,0 l/m 25,5 km/h (4 Bft) W-SW 257 0 min 0,000 mm 0,0 UV-I 0 W/m 5,0 C -0,7 C 37,0 km/h (5 Bft) 100,00 %
29.01.2018 23:54 8,3 C 4,4 C 80 % 1026,2 hPa 0,0 l/m 20,8 km/h (4 Bft) W 275 0 min 0,000 mm 0,0 UV-I 0 W/m 5,1 C 0,8 C 32,2 km/h (5 Bft) 100,00 %
29.01.2018 23:56 8,2 C 4,4 C 80 % 1026,3 hPa 0,0 l/m 17,3 km/h (3 Bft) W-SW 257 0 min 0,000 mm 0,0 UV-I 0 W/m 5,0 C 2,0 C 27,4 km/h (4 Bft) 100,00 %
29.01.2018 23:58 8,2 C 4,4 C 80 % 1026,4 hPa 0,0 l/m 19,9 km/h (4 Bft) W 265 0 min 0,000 mm 0,0 UV-I 0 W/m 5,0 C 1,0 C 33,8 km/h (5 Bft) 100,00 %
_ Min-Zeit 18:38 00:00 13:28 19:14 - 16:44 - - - - - - 18:38 23:40 16:44 00:02
Minimum _ 4,7 C 3,9 C 72 % 1024,2 hPa - 0,0 km/h (0 Bft) - - - - - - 3,6 C -2,2 C 1,6 km/h (1 Bft) 10,53 %
_ Max-Zeit 13:46 10:52 18:42 00:00 00:00 23:40 - - 08:16 12:00 11:36 11:08 14:34 13:46 23:40 00:00
Maximum _ 11,2 C 4,4 C 94 % 1033,2 hPa 0,0 l/m 31,9 km/h
W-SW (5 Bft)
- - 2 min 0,203 mm 1,1 UV-I 455 W/m 7,0 C 11,2 C 49,9 km/h
W-SW (6 Bft)
100,00 %
Durchschnitt _ 8,2 C 4,2 C 82 % 1028,7 hPa #0,0 l/m 8,7 km/h (2 Bft) W-SW - #7:34 h #1,372 mm 0,8 UV-I 221 W/m 5,3 C 6,2 C 13,9 km/h (3 Bft) 98,02 %